<?xml version="1.0" encoding="UTF-8" standalone="no" ?>
<gpx xmlns="http://www.topografix.com/GPX/1/1" creator="www.cicloide.com" version="1.1" xmlns:xsi="http://www.w3.org/2001/XMLSchema-instance" xsi:schemaLocation="http://www.topografix.com/GPX/1/1 http://www.topografix.com/GPX/1/1/gpx.xsd">
  <trk>
    <name>www.cicloide.com 17276</name>
    <desc>www.cicloide.com 17276</desc>
    <trkseg>
      <trkpt lat="41.543708000" lon="1.886087000">
        <ele>91.60</ele>
        <time>2014-03-09T08:38:05Z</time>
      </trkpt>
      <trkpt lat="41.543646000" lon="1.886103000">
        <ele>91.80</ele>
        <time>2014-03-09T08:38:27Z</time>
      </trkpt>
      <trkpt lat="41.543606000" lon="1.886123000">
        <ele>91.70</ele>
        <time>2014-03-09T08:38:31Z</time>
      </trkpt>
      <trkpt lat="41.543555000" lon="1.886160000">
        <ele>91.70</ele>
        <time>2014-03-09T08:38:35Z</time>
      </trkpt>
      <trkpt lat="41.543358000" lon="1.886316000">
        <ele>91.40</ele>
        <time>2014-03-09T08:38:47Z</time>
      </trkpt>
      <trkpt lat="41.543290000" lon="1.886767000">
        <ele>91.20</ele>
        <time>2014-03-09T08:39:02Z</time>
      </trkpt>
      <trkpt lat="41.543456000" lon="1.887191000">
        <ele>92.70</ele>
        <time>2014-03-09T08:39:16Z</time>
      </trkpt>
      <trkpt lat="41.543597000" lon="1.887292000">
        <ele>92.70</ele>
        <time>2014-03-09T08:39:22Z</time>
      </trkpt>
      <trkpt lat="41.544057000" lon="1.887124000">
        <ele>93.50</ele>
        <time>2014-03-09T08:39:40Z</time>
      </trkpt>
      <trkpt lat="41.544587000" lon="1.887324000">
        <ele>96.10</ele>
        <time>2014-03-09T08:40:00Z</time>
      </trkpt>
      <trkpt lat="41.544888000" lon="1.887423000">
        <ele>99.30</ele>
        <time>2014-03-09T08:40:13Z</time>
      </trkpt>
      <trkpt lat="41.545242000" lon="1.887562000">
        <ele>102.50</ele>
        <time>2014-03-09T08:40:28Z</time>
      </trkpt>
      <trkpt lat="41.545580000" lon="1.887692000">
        <ele>105.80</ele>
        <time>2014-03-09T08:40:42Z</time>
      </trkpt>
      <trkpt lat="41.546119000" lon="1.887866000">
        <ele>109.00</ele>
        <time>2014-03-09T08:41:03Z</time>
      </trkpt>
      <trkpt lat="41.546485000" lon="1.888020000">
        <ele>110.30</ele>
        <time>2014-03-09T08:41:20Z</time>
      </trkpt>
      <trkpt lat="41.546779000" lon="1.888036000">
        <ele>113.40</ele>
        <time>2014-03-09T08:41:35Z</time>
      </trkpt>
      <trkpt lat="41.547024000" lon="1.888067000">
        <ele>116.70</ele>
        <time>2014-03-09T08:41:47Z</time>
      </trkpt>
      <trkpt lat="41.547312000" lon="1.888105000">
        <ele>119.90</ele>
        <time>2014-03-09T08:42:02Z</time>
      </trkpt>
      <trkpt lat="41.547538000" lon="1.888121000">
        <ele>123.00</ele>
        <time>2014-03-09T08:42:14Z</time>
      </trkpt>
      <trkpt lat="41.547710000" lon="1.888108000">
        <ele>125.20</ele>
        <time>2014-03-09T08:42:23Z</time>
      </trkpt>
      <trkpt lat="41.547951000" lon="1.888116000">
        <ele>127.70</ele>
        <time>2014-03-09T08:42:42Z</time>
      </trkpt>
      <trkpt lat="41.547949000" lon="1.888142000">
        <ele>127.70</ele>
        <time>2014-03-09T08:43:07Z</time>
      </trkpt>
      <trkpt lat="41.547948000" lon="1.888157000">
        <ele>127.90</ele>
        <time>2014-03-09T08:43:09Z</time>
      </trkpt>
      <trkpt lat="41.547944000" lon="1.888642000">
        <ele>127.70</ele>
        <time>2014-03-09T08:43:21Z</time>
      </trkpt>
      <trkpt lat="41.547991000" lon="1.889077000">
        <ele>128.40</ele>
        <time>2014-03-09T08:43:33Z</time>
      </trkpt>
      <trkpt lat="41.547979000" lon="1.889148000">
        <ele>128.90</ele>
        <time>2014-03-09T08:43:36Z</time>
      </trkpt>
      <trkpt lat="41.547949000" lon="1.889196000">
        <ele>129.70</ele>
        <time>2014-03-09T08:43:38Z</time>
      </trkpt>
      <trkpt lat="41.547853000" lon="1.889628000">
        <ele>131.60</ele>
        <time>2014-03-09T08:43:49Z</time>
      </trkpt>
      <trkpt lat="41.547826000" lon="1.889837000">
        <ele>131.50</ele>
        <time>2014-03-09T08:43:54Z</time>
      </trkpt>
      <trkpt lat="41.547880000" lon="1.890071000">
        <ele>130.90</ele>
        <time>2014-03-09T08:43:59Z</time>
      </trkpt>
      <trkpt lat="41.547901000" lon="1.890163000">
        <ele>130.80</ele>
        <time>2014-03-09T08:44:01Z</time>
      </trkpt>
      <trkpt lat="41.547975000" lon="1.890742000">
        <ele>131.00</ele>
        <time>2014-03-09T08:44:14Z</time>
      </trkpt>
      <trkpt lat="41.548273000" lon="1.890986000">
        <ele>131.90</ele>
        <time>2014-03-09T08:44:26Z</time>
      </trkpt>
      <trkpt lat="41.548659000" lon="1.891260000">
        <ele>134.70</ele>
        <time>2014-03-09T08:44:40Z</time>
      </trkpt>
      <trkpt lat="41.548750000" lon="1.891739000">
        <ele>134.00</ele>
        <time>2014-03-09T08:44:51Z</time>
      </trkpt>
      <trkpt lat="41.548781000" lon="1.892094000">
        <ele>134.20</ele>
        <time>2014-03-09T08:45:02Z</time>
      </trkpt>
      <trkpt lat="41.548687000" lon="1.892229000">
        <ele>133.10</ele>
        <time>2014-03-09T08:45:07Z</time>
      </trkpt>
      <trkpt lat="41.548635000" lon="1.893054000">
        <ele>133.50</ele>
        <time>2014-03-09T08:45:26Z</time>
      </trkpt>
      <trkpt lat="41.548753000" lon="1.893486000">
        <ele>131.60</ele>
        <time>2014-03-09T08:45:38Z</time>
      </trkpt>
      <trkpt lat="41.548886000" lon="1.893630000">
        <ele>129.60</ele>
        <time>2014-03-09T08:45:42Z</time>
      </trkpt>
      <trkpt lat="41.549298000" lon="1.893535000">
        <ele>132.40</ele>
        <time>2014-03-09T08:45:55Z</time>
      </trkpt>
      <trkpt lat="41.549673000" lon="1.893275000">
        <ele>135.40</ele>
        <time>2014-03-09T08:46:10Z</time>
      </trkpt>
      <trkpt lat="41.549819000" lon="1.893023000">
        <ele>138.50</ele>
        <time>2014-03-09T08:46:18Z</time>
      </trkpt>
      <trkpt lat="41.550181000" lon="1.892554000">
        <ele>139.80</ele>
        <time>2014-03-09T08:46:34Z</time>
      </trkpt>
      <trkpt lat="41.550699000" lon="1.892367000">
        <ele>141.30</ele>
        <time>2014-03-09T08:46:50Z</time>
      </trkpt>
      <trkpt lat="41.551276000" lon="1.892120000">
        <ele>143.60</ele>
        <time>2014-03-09T08:47:10Z</time>
      </trkpt>
      <trkpt lat="41.551507000" lon="1.892131000">
        <ele>142.70</ele>
        <time>2014-03-09T08:47:17Z</time>
      </trkpt>
      <trkpt lat="41.552049000" lon="1.892099000">
        <ele>144.00</ele>
        <time>2014-03-09T08:47:32Z</time>
      </trkpt>
      <trkpt lat="41.552263000" lon="1.892121000">
        <ele>147.50</ele>
        <time>2014-03-09T08:47:42Z</time>
      </trkpt>
      <trkpt lat="41.552286000" lon="1.892129000">
        <ele>147.70</ele>
        <time>2014-03-09T08:47:43Z</time>
      </trkpt>
      <trkpt lat="41.552733000" lon="1.892276000">
        <ele>150.70</ele>
        <time>2014-03-09T08:48:01Z</time>
      </trkpt>
      <trkpt lat="41.553388000" lon="1.892366000">
        <ele>151.90</ele>
        <time>2014-03-09T08:48:23Z</time>
      </trkpt>
      <trkpt lat="41.553773000" lon="1.892546000">
        <ele>154.60</ele>
        <time>2014-03-09T08:48:39Z</time>
      </trkpt>
      <trkpt lat="41.553890000" lon="1.892416000">
        <ele>157.80</ele>
        <time>2014-03-09T08:48:47Z</time>
      </trkpt>
      <trkpt lat="41.553893000" lon="1.892373000">
        <ele>158.60</ele>
        <time>2014-03-09T08:48:49Z</time>
      </trkpt>
      <trkpt lat="41.553895000" lon="1.892294000">
        <ele>159.70</ele>
        <time>2014-03-09T08:48:52Z</time>
      </trkpt>
      <trkpt lat="41.553919000" lon="1.892174000">
        <ele>160.60</ele>
        <time>2014-03-09T08:48:56Z</time>
      </trkpt>
      <trkpt lat="41.553921000" lon="1.891453000">
        <ele>161.80</ele>
        <time>2014-03-09T08:49:18Z</time>
      </trkpt>
      <trkpt lat="41.553941000" lon="1.890862000">
        <ele>162.80</ele>
        <time>2014-03-09T08:49:34Z</time>
      </trkpt>
      <trkpt lat="41.554017000" lon="1.890807000">
        <ele>163.40</ele>
        <time>2014-03-09T08:49:38Z</time>
      </trkpt>
      <trkpt lat="41.554084000" lon="1.890792000">
        <ele>163.70</ele>
        <time>2014-03-09T08:49:41Z</time>
      </trkpt>
      <trkpt lat="41.554548000" lon="1.890800000">
        <ele>166.80</ele>
        <time>2014-03-09T08:50:00Z</time>
      </trkpt>
      <trkpt lat="41.554924000" lon="1.890789000">
        <ele>169.50</ele>
        <time>2014-03-09T08:50:16Z</time>
      </trkpt>
      <trkpt lat="41.555344000" lon="1.890870000">
        <ele>172.20</ele>
        <time>2014-03-09T08:50:34Z</time>
      </trkpt>
      <trkpt lat="41.555765000" lon="1.890960000">
        <ele>175.20</ele>
        <time>2014-03-09T08:50:51Z</time>
      </trkpt>
      <trkpt lat="41.556149000" lon="1.890896000">
        <ele>177.50</ele>
        <time>2014-03-09T08:51:06Z</time>
      </trkpt>
      <trkpt lat="41.556572000" lon="1.890921000">
        <ele>180.20</ele>
        <time>2014-03-09T08:51:23Z</time>
      </trkpt>
      <trkpt lat="41.556561000" lon="1.891488000">
        <ele>179.80</ele>
        <time>2014-03-09T08:51:39Z</time>
      </trkpt>
      <trkpt lat="41.556658000" lon="1.891588000">
        <ele>181.90</ele>
        <time>2014-03-09T08:51:44Z</time>
      </trkpt>
      <trkpt lat="41.557028000" lon="1.891662000">
        <ele>184.60</ele>
        <time>2014-03-09T08:51:59Z</time>
      </trkpt>
      <trkpt lat="41.557226000" lon="1.891690000">
        <ele>186.30</ele>
        <time>2014-03-09T08:52:10Z</time>
      </trkpt>
      <trkpt lat="41.557538000" lon="1.891737000">
        <ele>189.40</ele>
        <time>2014-03-09T08:52:25Z</time>
      </trkpt>
      <trkpt lat="41.557817000" lon="1.891801000">
        <ele>192.60</ele>
        <time>2014-03-09T08:52:39Z</time>
      </trkpt>
      <trkpt lat="41.557952000" lon="1.892121000">
        <ele>195.20</ele>
        <time>2014-03-09T08:52:53Z</time>
      </trkpt>
      <trkpt lat="41.558120000" lon="1.892510000">
        <ele>198.40</ele>
        <time>2014-03-09T08:53:11Z</time>
      </trkpt>
      <trkpt lat="41.558259000" lon="1.892726000">
        <ele>201.60</ele>
        <time>2014-03-09T08:53:26Z</time>
      </trkpt>
      <trkpt lat="41.558371000" lon="1.892816000">
        <ele>203.10</ele>
        <time>2014-03-09T08:53:33Z</time>
      </trkpt>
      <trkpt lat="41.558549000" lon="1.892900000">
        <ele>206.50</ele>
        <time>2014-03-09T08:53:46Z</time>
      </trkpt>
      <trkpt lat="41.558813000" lon="1.892916000">
        <ele>209.60</ele>
        <time>2014-03-09T08:54:03Z</time>
      </trkpt>
      <trkpt lat="41.558993000" lon="1.892906000">
        <ele>211.30</ele>
        <time>2014-03-09T08:54:17Z</time>
      </trkpt>
      <trkpt lat="41.559075000" lon="1.892933000">
        <ele>211.90</ele>
        <time>2014-03-09T08:54:23Z</time>
      </trkpt>
      <trkpt lat="41.559332000" lon="1.893126000">
        <ele>214.10</ele>
        <time>2014-03-09T08:54:43Z</time>
      </trkpt>
      <trkpt lat="41.559388000" lon="1.893137000">
        <ele>214.50</ele>
        <time>2014-03-09T08:54:47Z</time>
      </trkpt>
      <trkpt lat="41.559559000" lon="1.893271000">
        <ele>217.80</ele>
        <time>2014-03-09T08:55:01Z</time>
      </trkpt>
      <trkpt lat="41.559706000" lon="1.893244000">
        <ele>220.50</ele>
        <time>2014-03-09T08:55:11Z</time>
      </trkpt>
      <trkpt lat="41.559760000" lon="1.893250000">
        <ele>221.90</ele>
        <time>2014-03-09T08:55:15Z</time>
      </trkpt>
      <trkpt lat="41.559922000" lon="1.893299000">
        <ele>225.30</ele>
        <time>2014-03-09T08:55:27Z</time>
      </trkpt>
      <trkpt lat="41.559913000" lon="1.893337000">
        <ele>225.50</ele>
        <time>2014-03-09T08:55:31Z</time>
      </trkpt>
      <trkpt lat="41.559907000" lon="1.893365000">
        <ele>225.80</ele>
        <time>2014-03-09T08:55:33Z</time>
      </trkpt>
      <trkpt lat="41.559955000" lon="1.893428000">
        <ele>226.50</ele>
        <time>2014-03-09T08:55:38Z</time>
      </trkpt>
      <trkpt lat="41.560076000" lon="1.893804000">
        <ele>229.20</ele>
        <time>2014-03-09T08:55:57Z</time>
      </trkpt>
      <trkpt lat="41.560279000" lon="1.894008000">
        <ele>229.50</ele>
        <time>2014-03-09T08:56:11Z</time>
      </trkpt>
      <trkpt lat="41.560505000" lon="1.894034000">
        <ele>229.80</ele>
        <time>2014-03-09T08:56:23Z</time>
      </trkpt>
      <trkpt lat="41.560540000" lon="1.893690000">
        <ele>231.40</ele>
        <time>2014-03-09T08:56:36Z</time>
      </trkpt>
      <trkpt lat="41.560652000" lon="1.893506000">
        <ele>233.40</ele>
        <time>2014-03-09T08:56:48Z</time>
      </trkpt>
      <trkpt lat="41.560815000" lon="1.893358000">
        <ele>236.90</ele>
        <time>2014-03-09T08:57:02Z</time>
      </trkpt>
      <trkpt lat="41.560845000" lon="1.893350000">
        <ele>237.50</ele>
        <time>2014-03-09T08:57:04Z</time>
      </trkpt>
      <trkpt lat="41.560942000" lon="1.893342000">
        <ele>238.90</ele>
        <time>2014-03-09T08:57:11Z</time>
      </trkpt>
      <trkpt lat="41.561025000" lon="1.893379000">
        <ele>240.00</ele>
        <time>2014-03-09T08:57:17Z</time>
      </trkpt>
      <trkpt lat="41.561072000" lon="1.893460000">
        <ele>241.10</ele>
        <time>2014-03-09T08:57:22Z</time>
      </trkpt>
      <trkpt lat="41.561092000" lon="1.893488000">
        <ele>241.50</ele>
        <time>2014-03-09T08:57:24Z</time>
      </trkpt>
      <trkpt lat="41.561107000" lon="1.893525000">
        <ele>241.90</ele>
        <time>2014-03-09T08:57:26Z</time>
      </trkpt>
      <trkpt lat="41.561138000" lon="1.893561000">
        <ele>243.00</ele>
        <time>2014-03-09T08:57:29Z</time>
      </trkpt>
      <trkpt lat="41.561179000" lon="1.893680000">
        <ele>244.80</ele>
        <time>2014-03-09T08:57:36Z</time>
      </trkpt>
      <trkpt lat="41.561276000" lon="1.893874000">
        <ele>248.10</ele>
        <time>2014-03-09T08:57:48Z</time>
      </trkpt>
      <trkpt lat="41.561372000" lon="1.893924000">
        <ele>249.80</ele>
        <time>2014-03-09T08:57:55Z</time>
      </trkpt>
      <trkpt lat="41.561407000" lon="1.893884000">
        <ele>250.50</ele>
        <time>2014-03-09T08:57:59Z</time>
      </trkpt>
      <trkpt lat="41.561524000" lon="1.893695000">
        <ele>253.90</ele>
        <time>2014-03-09T08:58:12Z</time>
      </trkpt>
      <trkpt lat="41.561642000" lon="1.893549000">
        <ele>257.40</ele>
        <time>2014-03-09T08:58:24Z</time>
      </trkpt>
      <trkpt lat="41.561754000" lon="1.893490000">
        <ele>259.80</ele>
        <time>2014-03-09T08:58:34Z</time>
      </trkpt>
      <trkpt lat="41.561958000" lon="1.893492000">
        <ele>263.00</ele>
        <time>2014-03-09T08:58:48Z</time>
      </trkpt>
      <trkpt lat="41.562158000" lon="1.893536000">
        <ele>265.00</ele>
        <time>2014-03-09T08:59:04Z</time>
      </trkpt>
      <trkpt lat="41.562409000" lon="1.893615000">
        <ele>267.50</ele>
        <time>2014-03-09T08:59:22Z</time>
      </trkpt>
      <trkpt lat="41.562701000" lon="1.893865000">
        <ele>269.80</ele>
        <time>2014-03-09T08:59:42Z</time>
      </trkpt>
      <trkpt lat="41.562724000" lon="1.893876000">
        <ele>269.90</ele>
        <time>2014-03-09T08:59:44Z</time>
      </trkpt>
      <trkpt lat="41.562753000" lon="1.893915000">
        <ele>270.30</ele>
        <time>2014-03-09T08:59:48Z</time>
      </trkpt>
      <trkpt lat="41.562950000" lon="1.894095000">
        <ele>272.10</ele>
        <time>2014-03-09T09:00:05Z</time>
      </trkpt>
      <trkpt lat="41.562963000" lon="1.894106000">
        <ele>272.10</ele>
        <time>2014-03-09T09:00:06Z</time>
      </trkpt>
      <trkpt lat="41.563084000" lon="1.894094000">
        <ele>272.60</ele>
        <time>2014-03-09T09:00:15Z</time>
      </trkpt>
      <trkpt lat="41.563186000" lon="1.893772000">
        <ele>274.50</ele>
        <time>2014-03-09T09:00:32Z</time>
      </trkpt>
      <trkpt lat="41.563223000" lon="1.893670000">
        <ele>275.20</ele>
        <time>2014-03-09T09:00:37Z</time>
      </trkpt>
      <trkpt lat="41.563458000" lon="1.893680000">
        <ele>275.90</ele>
        <time>2014-03-09T09:00:51Z</time>
      </trkpt>
      <trkpt lat="41.563664000" lon="1.894210000">
        <ele>277.30</ele>
        <time>2014-03-09T09:01:09Z</time>
      </trkpt>
      <trkpt lat="41.563734000" lon="1.894424000">
        <ele>277.00</ele>
        <time>2014-03-09T09:01:16Z</time>
      </trkpt>
      <trkpt lat="41.563926000" lon="1.894267000">
        <ele>278.50</ele>
        <time>2014-03-09T09:01:27Z</time>
      </trkpt>
      <trkpt lat="41.564087000" lon="1.894038000">
        <ele>281.50</ele>
        <time>2014-03-09T09:01:40Z</time>
      </trkpt>
      <trkpt lat="41.564271000" lon="1.893902000">
        <ele>284.50</ele>
        <time>2014-03-09T09:01:53Z</time>
      </trkpt>
      <trkpt lat="41.564406000" lon="1.893976000">
        <ele>287.60</ele>
        <time>2014-03-09T09:02:02Z</time>
      </trkpt>
      <trkpt lat="41.564590000" lon="1.893941000">
        <ele>290.50</ele>
        <time>2014-03-09T09:02:15Z</time>
      </trkpt>
      <trkpt lat="41.564777000" lon="1.893821000">
        <ele>293.00</ele>
        <time>2014-03-09T09:02:30Z</time>
      </trkpt>
      <trkpt lat="41.565020000" lon="1.893888000">
        <ele>295.10</ele>
        <time>2014-03-09T09:02:48Z</time>
      </trkpt>
      <trkpt lat="41.565153000" lon="1.893930000">
        <ele>295.40</ele>
        <time>2014-03-09T09:02:56Z</time>
      </trkpt>
      <trkpt lat="41.565289000" lon="1.894086000">
        <ele>297.20</ele>
        <time>2014-03-09T09:03:08Z</time>
      </trkpt>
      <trkpt lat="41.565407000" lon="1.894089000">
        <ele>298.50</ele>
        <time>2014-03-09T09:03:16Z</time>
      </trkpt>
      <trkpt lat="41.565450000" lon="1.893922000">
        <ele>299.60</ele>
        <time>2014-03-09T09:03:24Z</time>
      </trkpt>
      <trkpt lat="41.565496000" lon="1.893453000">
        <ele>302.70</ele>
        <time>2014-03-09T09:03:45Z</time>
      </trkpt>
      <trkpt lat="41.565423000" lon="1.892847000">
        <ele>303.80</ele>
        <time>2014-03-09T09:04:05Z</time>
      </trkpt>
      <trkpt lat="41.565372000" lon="1.892545000">
        <ele>304.50</ele>
        <time>2014-03-09T09:04:15Z</time>
      </trkpt>
      <trkpt lat="41.565576000" lon="1.892398000">
        <ele>303.70</ele>
        <time>2014-03-09T09:04:24Z</time>
      </trkpt>
      <trkpt lat="41.566130000" lon="1.892627000">
        <ele>303.70</ele>
        <time>2014-03-09T09:04:42Z</time>
      </trkpt>
      <trkpt lat="41.566606000" lon="1.892620000">
        <ele>305.90</ele>
        <time>2014-03-09T09:05:00Z</time>
      </trkpt>
      <trkpt lat="41.567108000" lon="1.892569000">
        <ele>306.60</ele>
        <time>2014-03-09T09:05:19Z</time>
      </trkpt>
      <trkpt lat="41.567692000" lon="1.892611000">
        <ele>306.10</ele>
        <time>2014-03-09T09:05:37Z</time>
      </trkpt>
      <trkpt lat="41.568243000" lon="1.892883000">
        <ele>307.70</ele>
        <time>2014-03-09T09:05:58Z</time>
      </trkpt>
      <trkpt lat="41.568464000" lon="1.893305000">
        <ele>309.50</ele>
        <time>2014-03-09T09:06:14Z</time>
      </trkpt>
      <trkpt lat="41.568560000" lon="1.893688000">
        <ele>311.90</ele>
        <time>2014-03-09T09:06:27Z</time>
      </trkpt>
      <trkpt lat="41.568739000" lon="1.893611000">
        <ele>312.60</ele>
        <time>2014-03-09T09:06:36Z</time>
      </trkpt>
      <trkpt lat="41.568974000" lon="1.893219000">
        <ele>315.00</ele>
        <time>2014-03-09T09:06:54Z</time>
      </trkpt>
      <trkpt lat="41.569249000" lon="1.893016000">
        <ele>317.00</ele>
        <time>2014-03-09T09:07:09Z</time>
      </trkpt>
      <trkpt lat="41.569653000" lon="1.892913000">
        <ele>317.40</ele>
        <time>2014-03-09T09:07:25Z</time>
      </trkpt>
      <trkpt lat="41.570070000" lon="1.893171000">
        <ele>317.90</ele>
        <time>2014-03-09T09:07:44Z</time>
      </trkpt>
      <trkpt lat="41.570281000" lon="1.893360000">
        <ele>320.90</ele>
        <time>2014-03-09T09:07:56Z</time>
      </trkpt>
      <trkpt lat="41.570638000" lon="1.893457000">
        <ele>322.90</ele>
        <time>2014-03-09T09:08:13Z</time>
      </trkpt>
      <trkpt lat="41.571207000" lon="1.893601000">
        <ele>325.20</ele>
        <time>2014-03-09T09:08:37Z</time>
      </trkpt>
      <trkpt lat="41.571621000" lon="1.893804000">
        <ele>327.20</ele>
        <time>2014-03-09T09:08:56Z</time>
      </trkpt>
      <trkpt lat="41.571929000" lon="1.894100000">
        <ele>329.90</ele>
        <time>2014-03-09T09:09:12Z</time>
      </trkpt>
      <trkpt lat="41.572163000" lon="1.894629000">
        <ele>331.70</ele>
        <time>2014-03-09T09:09:32Z</time>
      </trkpt>
      <trkpt lat="41.572214000" lon="1.895025000">
        <ele>331.10</ele>
        <time>2014-03-09T09:09:44Z</time>
      </trkpt>
      <trkpt lat="41.572361000" lon="1.894986000">
        <ele>331.10</ele>
        <time>2014-03-09T09:09:50Z</time>
      </trkpt>
      <trkpt lat="41.572554000" lon="1.894697000">
        <ele>329.70</ele>
        <time>2014-03-09T09:09:58Z</time>
      </trkpt>
      <trkpt lat="41.572723000" lon="1.894630000">
        <ele>328.70</ele>
        <time>2014-03-09T09:10:02Z</time>
      </trkpt>
      <trkpt lat="41.572738000" lon="1.894322000">
        <ele>330.80</ele>
        <time>2014-03-09T09:10:09Z</time>
      </trkpt>
      <trkpt lat="41.572628000" lon="1.894035000">
        <ele>334.20</ele>
        <time>2014-03-09T09:10:19Z</time>
      </trkpt>
      <trkpt lat="41.572527000" lon="1.893663000">
        <ele>337.20</ele>
        <time>2014-03-09T09:10:31Z</time>
      </trkpt>
      <trkpt lat="41.572555000" lon="1.893067000">
        <ele>338.70</ele>
        <time>2014-03-09T09:10:48Z</time>
      </trkpt>
      <trkpt lat="41.572608000" lon="1.892643000">
        <ele>341.70</ele>
        <time>2014-03-09T09:11:01Z</time>
      </trkpt>
      <trkpt lat="41.572830000" lon="1.892182000">
        <ele>344.60</ele>
        <time>2014-03-09T09:11:19Z</time>
      </trkpt>
      <trkpt lat="41.573011000" lon="1.891823000">
        <ele>346.40</ele>
        <time>2014-03-09T09:11:34Z</time>
      </trkpt>
      <trkpt lat="41.573014000" lon="1.891802000">
        <ele>346.90</ele>
        <time>2014-03-09T09:11:35Z</time>
      </trkpt>
      <trkpt lat="41.572980000" lon="1.891692000">
        <ele>348.90</ele>
        <time>2014-03-09T09:11:41Z</time>
      </trkpt>
      <trkpt lat="41.572951000" lon="1.891634000">
        <ele>350.30</ele>
        <time>2014-03-09T09:11:45Z</time>
      </trkpt>
      <trkpt lat="41.572839000" lon="1.891589000">
        <ele>352.70</ele>
        <time>2014-03-09T09:11:53Z</time>
      </trkpt>
      <trkpt lat="41.572644000" lon="1.891521000">
        <ele>356.00</ele>
        <time>2014-03-09T09:12:06Z</time>
      </trkpt>
      <trkpt lat="41.572440000" lon="1.891492000">
        <ele>359.20</ele>
        <time>2014-03-09T09:12:19Z</time>
      </trkpt>
      <trkpt lat="41.572266000" lon="1.891437000">
        <ele>362.40</ele>
        <time>2014-03-09T09:12:30Z</time>
      </trkpt>
      <trkpt lat="41.572155000" lon="1.891381000">
        <ele>364.40</ele>
        <time>2014-03-09T09:12:37Z</time>
      </trkpt>
      <trkpt lat="41.572099000" lon="1.891068000">
        <ele>367.70</ele>
        <time>2014-03-09T09:12:51Z</time>
      </trkpt>
      <trkpt lat="41.571996000" lon="1.890713000">
        <ele>370.80</ele>
        <time>2014-03-09T09:13:08Z</time>
      </trkpt>
      <trkpt lat="41.571975000" lon="1.890662000">
        <ele>372.00</ele>
        <time>2014-03-09T09:13:11Z</time>
      </trkpt>
      <trkpt lat="41.572029000" lon="1.890618000">
        <ele>373.10</ele>
        <time>2014-03-09T09:13:16Z</time>
      </trkpt>
      <trkpt lat="41.572311000" lon="1.891000000">
        <ele>376.50</ele>
        <time>2014-03-09T09:13:37Z</time>
      </trkpt>
      <trkpt lat="41.572566000" lon="1.891117000">
        <ele>378.80</ele>
        <time>2014-03-09T09:13:53Z</time>
      </trkpt>
      <trkpt lat="41.573053000" lon="1.891052000">
        <ele>377.80</ele>
        <time>2014-03-09T09:14:11Z</time>
      </trkpt>
      <trkpt lat="41.573323000" lon="1.891074000">
        <ele>380.60</ele>
        <time>2014-03-09T09:14:22Z</time>
      </trkpt>
      <trkpt lat="41.573646000" lon="1.890969000">
        <ele>384.50</ele>
        <time>2014-03-09T09:14:39Z</time>
      </trkpt>
      <trkpt lat="41.573680000" lon="1.890867000">
        <ele>386.10</ele>
        <time>2014-03-09T09:14:43Z</time>
      </trkpt>
      <trkpt lat="41.573742000" lon="1.890699000">
        <ele>389.20</ele>
        <time>2014-03-09T09:14:52Z</time>
      </trkpt>
      <trkpt lat="41.573736000" lon="1.890678000">
        <ele>389.40</ele>
        <time>2014-03-09T09:14:54Z</time>
      </trkpt>
      <trkpt lat="41.573717000" lon="1.890670000">
        <ele>389.30</ele>
        <time>2014-03-09T09:15:15Z</time>
      </trkpt>
      <trkpt lat="41.573715000" lon="1.890670000">
        <ele>389.30</ele>
        <time>2014-03-09T09:16:13Z</time>
      </trkpt>
      <trkpt lat="41.573714000" lon="1.890672000">
        <ele>389.00</ele>
        <time>2014-03-09T09:16:59Z</time>
      </trkpt>
      <trkpt lat="41.573711000" lon="1.890680000">
        <ele>388.90</ele>
        <time>2014-03-09T09:17:32Z</time>
      </trkpt>
      <trkpt lat="41.573722000" lon="1.890679000">
        <ele>389.10</ele>
        <time>2014-03-09T09:21:21Z</time>
      </trkpt>
      <trkpt lat="41.573722000" lon="1.890679000">
        <ele>389.20</ele>
        <time>2014-03-09T09:21:26Z</time>
      </trkpt>
      <trkpt lat="41.573795000" lon="1.890692000">
        <ele>389.50</ele>
        <time>2014-03-09T09:21:32Z</time>
      </trkpt>
      <trkpt lat="41.573868000" lon="1.890916000">
        <ele>391.10</ele>
        <time>2014-03-09T09:21:47Z</time>
      </trkpt>
      <trkpt lat="41.573867000" lon="1.891018000">
        <ele>391.90</ele>
        <time>2014-03-09T09:22:07Z</time>
      </trkpt>
      <trkpt lat="41.573880000" lon="1.891032000">
        <ele>392.00</ele>
        <time>2014-03-09T09:22:19Z</time>
      </trkpt>
      <trkpt lat="41.573834000" lon="1.891120000">
        <ele>391.40</ele>
        <time>2014-03-09T09:22:30Z</time>
      </trkpt>
      <trkpt lat="41.573840000" lon="1.891165000">
        <ele>391.70</ele>
        <time>2014-03-09T09:22:36Z</time>
      </trkpt>
      <trkpt lat="41.573867000" lon="1.891228000">
        <ele>392.80</ele>
        <time>2014-03-09T09:22:49Z</time>
      </trkpt>
      <trkpt lat="41.573843000" lon="1.891620000">
        <ele>393.40</ele>
        <time>2014-03-09T09:23:02Z</time>
      </trkpt>
      <trkpt lat="41.573848000" lon="1.891981000">
        <ele>394.60</ele>
        <time>2014-03-09T09:23:12Z</time>
      </trkpt>
      <trkpt lat="41.573863000" lon="1.892078000">
        <ele>395.30</ele>
        <time>2014-03-09T09:23:16Z</time>
      </trkpt>
      <trkpt lat="41.573886000" lon="1.892267000">
        <ele>396.30</ele>
        <time>2014-03-09T09:23:22Z</time>
      </trkpt>
      <trkpt lat="41.573839000" lon="1.892465000">
        <ele>396.90</ele>
        <time>2014-03-09T09:23:27Z</time>
      </trkpt>
      <trkpt lat="41.573551000" lon="1.892997000">
        <ele>399.50</ele>
        <time>2014-03-09T09:23:43Z</time>
      </trkpt>
      <trkpt lat="41.573465000" lon="1.893325000">
        <ele>398.70</ele>
        <time>2014-03-09T09:23:53Z</time>
      </trkpt>
      <trkpt lat="41.573530000" lon="1.893500000">
        <ele>397.40</ele>
        <time>2014-03-09T09:23:57Z</time>
      </trkpt>
      <trkpt lat="41.573794000" lon="1.894148000">
        <ele>395.60</ele>
        <time>2014-03-09T09:24:12Z</time>
      </trkpt>
      <trkpt lat="41.573975000" lon="1.894663000">
        <ele>392.10</ele>
        <time>2014-03-09T09:24:20Z</time>
      </trkpt>
      <trkpt lat="41.574091000" lon="1.894948000">
        <ele>392.10</ele>
        <time>2014-03-09T09:24:24Z</time>
      </trkpt>
      <trkpt lat="41.574317000" lon="1.895436000">
        <ele>394.10</ele>
        <time>2014-03-09T09:24:35Z</time>
      </trkpt>
      <trkpt lat="41.574412000" lon="1.895870000">
        <ele>397.40</ele>
        <time>2014-03-09T09:24:46Z</time>
      </trkpt>
      <trkpt lat="41.574606000" lon="1.896041000">
        <ele>400.90</ele>
        <time>2014-03-09T09:24:56Z</time>
      </trkpt>
      <trkpt lat="41.574673000" lon="1.896114000">
        <ele>402.40</ele>
        <time>2014-03-09T09:25:01Z</time>
      </trkpt>
      <trkpt lat="41.574700000" lon="1.896139000">
        <ele>402.80</ele>
        <time>2014-03-09T09:25:03Z</time>
      </trkpt>
      <trkpt lat="41.574720000" lon="1.896216000">
        <ele>403.60</ele>
        <time>2014-03-09T09:25:06Z</time>
      </trkpt>
      <trkpt lat="41.574895000" lon="1.896337000">
        <ele>407.00</ele>
        <time>2014-03-09T09:25:17Z</time>
      </trkpt>
      <trkpt lat="41.574982000" lon="1.896353000">
        <ele>408.60</ele>
        <time>2014-03-09T09:25:22Z</time>
      </trkpt>
      <trkpt lat="41.575189000" lon="1.896345000">
        <ele>411.90</ele>
        <time>2014-03-09T09:25:35Z</time>
      </trkpt>
      <trkpt lat="41.575391000" lon="1.896354000">
        <ele>415.00</ele>
        <time>2014-03-09T09:25:49Z</time>
      </trkpt>
      <trkpt lat="41.575758000" lon="1.896330000">
        <ele>417.90</ele>
        <time>2014-03-09T09:26:10Z</time>
      </trkpt>
      <trkpt lat="41.575985000" lon="1.896415000">
        <ele>421.30</ele>
        <time>2014-03-09T09:26:26Z</time>
      </trkpt>
      <trkpt lat="41.576240000" lon="1.896503000">
        <ele>424.50</ele>
        <time>2014-03-09T09:26:41Z</time>
      </trkpt>
      <trkpt lat="41.576255000" lon="1.896506000">
        <ele>424.80</ele>
        <time>2014-03-09T09:26:42Z</time>
      </trkpt>
      <trkpt lat="41.576612000" lon="1.896525000">
        <ele>427.20</ele>
        <time>2014-03-09T09:27:00Z</time>
      </trkpt>
      <trkpt lat="41.576897000" lon="1.896888000">
        <ele>429.90</ele>
        <time>2014-03-09T09:27:19Z</time>
      </trkpt>
      <trkpt lat="41.577166000" lon="1.897366000">
        <ele>433.10</ele>
        <time>2014-03-09T09:27:39Z</time>
      </trkpt>
      <trkpt lat="41.577191000" lon="1.897747000">
        <ele>436.20</ele>
        <time>2014-03-09T09:27:52Z</time>
      </trkpt>
      <trkpt lat="41.577110000" lon="1.898171000">
        <ele>439.20</ele>
        <time>2014-03-09T09:28:06Z</time>
      </trkpt>
      <trkpt lat="41.577078000" lon="1.898569000">
        <ele>442.30</ele>
        <time>2014-03-09T09:28:20Z</time>
      </trkpt>
      <trkpt lat="41.576962000" lon="1.898795000">
        <ele>444.90</ele>
        <time>2014-03-09T09:28:36Z</time>
      </trkpt>
      <trkpt lat="41.577023000" lon="1.898817000">
        <ele>445.10</ele>
        <time>2014-03-09T09:28:43Z</time>
      </trkpt>
      <trkpt lat="41.577064000" lon="1.898757000">
        <ele>444.80</ele>
        <time>2014-03-09T09:28:51Z</time>
      </trkpt>
      <trkpt lat="41.577002000" lon="1.898721000">
        <ele>444.30</ele>
        <time>2014-03-09T09:28:58Z</time>
      </trkpt>
      <trkpt lat="41.577010000" lon="1.898774000">
        <ele>444.90</ele>
        <time>2014-03-09T09:29:04Z</time>
      </trkpt>
      <trkpt lat="41.577050000" lon="1.898777000">
        <ele>444.50</ele>
        <time>2014-03-09T09:29:08Z</time>
      </trkpt>
      <trkpt lat="41.577092000" lon="1.898795000">
        <ele>444.60</ele>
        <time>2014-03-09T09:29:21Z</time>
      </trkpt>
      <trkpt lat="41.577092000" lon="1.898794000">
        <ele>444.60</ele>
        <time>2014-03-09T09:29:49Z</time>
      </trkpt>
      <trkpt lat="41.577113000" lon="1.898820000">
        <ele>445.10</ele>
        <time>2014-03-09T09:30:09Z</time>
      </trkpt>
      <trkpt lat="41.577118000" lon="1.898813000">
        <ele>444.80</ele>
        <time>2014-03-09T09:30:39Z</time>
      </trkpt>
      <trkpt lat="41.577117000" lon="1.898813000">
        <ele>444.90</ele>
        <time>2014-03-09T09:30:58Z</time>
      </trkpt>
      <trkpt lat="41.577320000" lon="1.898990000">
        <ele>446.70</ele>
        <time>2014-03-09T09:31:12Z</time>
      </trkpt>
      <trkpt lat="41.577390000" lon="1.898992000">
        <ele>448.10</ele>
        <time>2014-03-09T09:31:21Z</time>
      </trkpt>
      <trkpt lat="41.577462000" lon="1.899000000">
        <ele>450.00</ele>
        <time>2014-03-09T09:31:29Z</time>
      </trkpt>
      <trkpt lat="41.577512000" lon="1.899013000">
        <ele>450.50</ele>
        <time>2014-03-09T09:31:39Z</time>
      </trkpt>
      <trkpt lat="41.577591000" lon="1.899077000">
        <ele>450.00</ele>
        <time>2014-03-09T09:31:49Z</time>
      </trkpt>
      <trkpt lat="41.577633000" lon="1.899084000">
        <ele>449.40</ele>
        <time>2014-03-09T09:31:52Z</time>
      </trkpt>
      <trkpt lat="41.577677000" lon="1.899057000">
        <ele>447.60</ele>
        <time>2014-03-09T09:31:56Z</time>
      </trkpt>
      <trkpt lat="41.577912000" lon="1.899093000">
        <ele>446.10</ele>
        <time>2014-03-09T09:32:06Z</time>
      </trkpt>
      <trkpt lat="41.578045000" lon="1.899124000">
        <ele>446.50</ele>
        <time>2014-03-09T09:32:13Z</time>
      </trkpt>
      <trkpt lat="41.578133000" lon="1.899201000">
        <ele>447.00</ele>
        <time>2014-03-09T09:32:18Z</time>
      </trkpt>
      <trkpt lat="41.578140000" lon="1.899335000">
        <ele>446.90</ele>
        <time>2014-03-09T09:32:22Z</time>
      </trkpt>
      <trkpt lat="41.578164000" lon="1.899649000">
        <ele>448.80</ele>
        <time>2014-03-09T09:32:34Z</time>
      </trkpt>
      <trkpt lat="41.578199000" lon="1.899841000">
        <ele>450.70</ele>
        <time>2014-03-09T09:32:46Z</time>
      </trkpt>
      <trkpt lat="41.578208000" lon="1.899961000">
        <ele>452.90</ele>
        <time>2014-03-09T09:32:56Z</time>
      </trkpt>
      <trkpt lat="41.578314000" lon="1.899939000">
        <ele>455.50</ele>
        <time>2014-03-09T09:33:11Z</time>
      </trkpt>
      <trkpt lat="41.578409000" lon="1.899932000">
        <ele>458.10</ele>
        <time>2014-03-09T09:33:24Z</time>
      </trkpt>
      <trkpt lat="41.578478000" lon="1.899923000">
        <ele>460.40</ele>
        <time>2014-03-09T09:33:38Z</time>
      </trkpt>
      <trkpt lat="41.578575000" lon="1.899900000">
        <ele>460.80</ele>
        <time>2014-03-09T09:33:45Z</time>
      </trkpt>
      <trkpt lat="41.578682000" lon="1.899980000">
        <ele>458.50</ele>
        <time>2014-03-09T09:34:00Z</time>
      </trkpt>
      <trkpt lat="41.578676000" lon="1.900026000">
        <ele>457.90</ele>
        <time>2014-03-09T09:34:04Z</time>
      </trkpt>
      <trkpt lat="41.578663000" lon="1.900143000">
        <ele>456.20</ele>
        <time>2014-03-09T09:34:08Z</time>
      </trkpt>
      <trkpt lat="41.578663000" lon="1.900247000">
        <ele>455.30</ele>
        <time>2014-03-09T09:34:10Z</time>
      </trkpt>
      <trkpt lat="41.578749000" lon="1.900800000">
        <ele>455.50</ele>
        <time>2014-03-09T09:34:22Z</time>
      </trkpt>
      <trkpt lat="41.578772000" lon="1.900873000">
        <ele>455.60</ele>
        <time>2014-03-09T09:34:24Z</time>
      </trkpt>
      <trkpt lat="41.578760000" lon="1.901054000">
        <ele>457.10</ele>
        <time>2014-03-09T09:34:37Z</time>
      </trkpt>
      <trkpt lat="41.578756000" lon="1.901138000">
        <ele>457.40</ele>
        <time>2014-03-09T09:34:54Z</time>
      </trkpt>
      <trkpt lat="41.578757000" lon="1.901139000">
        <ele>457.30</ele>
        <time>2014-03-09T09:35:08Z</time>
      </trkpt>
      <trkpt lat="41.578807000" lon="1.901276000">
        <ele>455.30</ele>
        <time>2014-03-09T09:35:14Z</time>
      </trkpt>
      <trkpt lat="41.578826000" lon="1.901518000">
        <ele>451.20</ele>
        <time>2014-03-09T09:35:18Z</time>
      </trkpt>
      <trkpt lat="41.578871000" lon="1.901634000">
        <ele>450.70</ele>
        <time>2014-03-09T09:35:21Z</time>
      </trkpt>
      <trkpt lat="41.578896000" lon="1.901800000">
        <ele>446.20</ele>
        <time>2014-03-09T09:35:24Z</time>
      </trkpt>
      <trkpt lat="41.578907000" lon="1.901854000">
        <ele>445.40</ele>
        <time>2014-03-09T09:35:25Z</time>
      </trkpt>
      <trkpt lat="41.578988000" lon="1.902042000">
        <ele>440.70</ele>
        <time>2014-03-09T09:35:28Z</time>
      </trkpt>
      <trkpt lat="41.579009000" lon="1.902119000">
        <ele>439.50</ele>
        <time>2014-03-09T09:35:29Z</time>
      </trkpt>
      <trkpt lat="41.579046000" lon="1.902383000">
        <ele>434.20</ele>
        <time>2014-03-09T09:35:32Z</time>
      </trkpt>
      <trkpt lat="41.579053000" lon="1.902647000">
        <ele>428.50</ele>
        <time>2014-03-09T09:35:35Z</time>
      </trkpt>
      <trkpt lat="41.579034000" lon="1.902919000">
        <ele>424.30</ele>
        <time>2014-03-09T09:35:38Z</time>
      </trkpt>
      <trkpt lat="41.579038000" lon="1.903111000">
        <ele>421.70</ele>
        <time>2014-03-09T09:35:40Z</time>
      </trkpt>
      <trkpt lat="41.579080000" lon="1.903406000">
        <ele>418.20</ele>
        <time>2014-03-09T09:35:43Z</time>
      </trkpt>
      <trkpt lat="41.579125000" lon="1.903687000">
        <ele>414.90</ele>
        <time>2014-03-09T09:35:46Z</time>
      </trkpt>
      <trkpt lat="41.579155000" lon="1.903939000">
        <ele>411.80</ele>
        <time>2014-03-09T09:35:49Z</time>
      </trkpt>
      <trkpt lat="41.579166000" lon="1.904001000">
        <ele>410.80</ele>
        <time>2014-03-09T09:35:50Z</time>
      </trkpt>
      <trkpt lat="41.579260000" lon="1.904229000">
        <ele>406.30</ele>
        <time>2014-03-09T09:35:53Z</time>
      </trkpt>
      <trkpt lat="41.579377000" lon="1.904494000">
        <ele>403.00</ele>
        <time>2014-03-09T09:35:56Z</time>
      </trkpt>
      <trkpt lat="41.579591000" lon="1.904788000">
        <ele>398.70</ele>
        <time>2014-03-09T09:36:01Z</time>
      </trkpt>
      <trkpt lat="41.579687000" lon="1.904891000">
        <ele>396.80</ele>
        <time>2014-03-09T09:36:03Z</time>
      </trkpt>
      <trkpt lat="41.579837000" lon="1.905049000">
        <ele>393.00</ele>
        <time>2014-03-09T09:36:07Z</time>
      </trkpt>
      <trkpt lat="41.579907000" lon="1.905143000">
        <ele>389.60</ele>
        <time>2014-03-09T09:36:09Z</time>
      </trkpt>
      <trkpt lat="41.580011000" lon="1.905387000">
        <ele>387.20</ele>
        <time>2014-03-09T09:36:13Z</time>
      </trkpt>
      <trkpt lat="41.580082000" lon="1.905796000">
        <ele>385.20</ele>
        <time>2014-03-09T09:36:19Z</time>
      </trkpt>
      <trkpt lat="41.580347000" lon="1.906165000">
        <ele>381.30</ele>
        <time>2014-03-09T09:36:25Z</time>
      </trkpt>
      <trkpt lat="41.580400000" lon="1.906193000">
        <ele>381.10</ele>
        <time>2014-03-09T09:36:26Z</time>
      </trkpt>
      <trkpt lat="41.580554000" lon="1.906268000">
        <ele>377.80</ele>
        <time>2014-03-09T09:36:29Z</time>
      </trkpt>
      <trkpt lat="41.580603000" lon="1.906297000">
        <ele>376.60</ele>
        <time>2014-03-09T09:36:30Z</time>
      </trkpt>
      <trkpt lat="41.580744000" lon="1.906417000">
        <ele>372.80</ele>
        <time>2014-03-09T09:36:33Z</time>
      </trkpt>
      <trkpt lat="41.580918000" lon="1.906772000">
        <ele>369.70</ele>
        <time>2014-03-09T09:36:38Z</time>
      </trkpt>
      <trkpt lat="41.580971000" lon="1.906931000">
        <ele>366.20</ele>
        <time>2014-03-09T09:36:40Z</time>
      </trkpt>
      <trkpt lat="41.581027000" lon="1.907129000">
        <ele>363.30</ele>
        <time>2014-03-09T09:36:42Z</time>
      </trkpt>
      <trkpt lat="41.581252000" lon="1.907454000">
        <ele>359.90</ele>
        <time>2014-03-09T09:36:46Z</time>
      </trkpt>
      <trkpt lat="41.581319000" lon="1.907530000">
        <ele>359.30</ele>
        <time>2014-03-09T09:36:47Z</time>
      </trkpt>
      <trkpt lat="41.581670000" lon="1.907943000">
        <ele>355.20</ele>
        <time>2014-03-09T09:36:52Z</time>
      </trkpt>
      <trkpt lat="41.581905000" lon="1.908212000">
        <ele>351.50</ele>
        <time>2014-03-09T09:36:55Z</time>
      </trkpt>
      <trkpt lat="41.582301000" lon="1.908618000">
        <ele>350.70</ele>
        <time>2014-03-09T09:37:01Z</time>
      </trkpt>
      <trkpt lat="41.582424000" lon="1.908864000">
        <ele>348.00</ele>
        <time>2014-03-09T09:37:04Z</time>
      </trkpt>
      <trkpt lat="41.582445000" lon="1.908958000">
        <ele>348.00</ele>
        <time>2014-03-09T09:37:05Z</time>
      </trkpt>
      <trkpt lat="41.582520000" lon="1.909336000">
        <ele>347.10</ele>
        <time>2014-03-09T09:37:09Z</time>
      </trkpt>
      <trkpt lat="41.582547000" lon="1.909525000">
        <ele>346.30</ele>
        <time>2014-03-09T09:37:11Z</time>
      </trkpt>
      <trkpt lat="41.582574000" lon="1.909733000">
        <ele>344.70</ele>
        <time>2014-03-09T09:37:13Z</time>
      </trkpt>
      <trkpt lat="41.582699000" lon="1.910179000">
        <ele>345.40</ele>
        <time>2014-03-09T09:37:21Z</time>
      </trkpt>
      <trkpt lat="41.582707000" lon="1.910320000">
        <ele>345.60</ele>
        <time>2014-03-09T09:37:34Z</time>
      </trkpt>
      <trkpt lat="41.582710000" lon="1.910321000">
        <ele>345.50</ele>
        <time>2014-03-09T09:37:35Z</time>
      </trkpt>
      <trkpt lat="41.582749000" lon="1.910305000">
        <ele>345.20</ele>
        <time>2014-03-09T09:37:39Z</time>
      </trkpt>
      <trkpt lat="41.582793000" lon="1.910276000">
        <ele>343.30</ele>
        <time>2014-03-09T09:37:43Z</time>
      </trkpt>
      <trkpt lat="41.582854000" lon="1.910264000">
        <ele>340.40</ele>
        <time>2014-03-09T09:37:56Z</time>
      </trkpt>
      <trkpt lat="41.582975000" lon="1.910309000">
        <ele>338.50</ele>
        <time>2014-03-09T09:38:10Z</time>
      </trkpt>
      <trkpt lat="41.583021000" lon="1.910335000">
        <ele>339.90</ele>
        <time>2014-03-09T09:38:16Z</time>
      </trkpt>
      <trkpt lat="41.583212000" lon="1.910723000">
        <ele>339.70</ele>
        <time>2014-03-09T09:38:29Z</time>
      </trkpt>
      <trkpt lat="41.583294000" lon="1.911066000">
        <ele>339.80</ele>
        <time>2014-03-09T09:38:36Z</time>
      </trkpt>
      <trkpt lat="41.583357000" lon="1.911283000">
        <ele>339.10</ele>
        <time>2014-03-09T09:38:40Z</time>
      </trkpt>
      <trkpt lat="41.583426000" lon="1.911462000">
        <ele>337.30</ele>
        <time>2014-03-09T09:38:43Z</time>
      </trkpt>
      <trkpt lat="41.583442000" lon="1.911586000">
        <ele>337.10</ele>
        <time>2014-03-09T09:38:45Z</time>
      </trkpt>
      <trkpt lat="41.583454000" lon="1.911695000">
        <ele>337.90</ele>
        <time>2014-03-09T09:38:47Z</time>
      </trkpt>
      <trkpt lat="41.583616000" lon="1.912078000">
        <ele>336.10</ele>
        <time>2014-03-09T09:38:55Z</time>
      </trkpt>
      <trkpt lat="41.583834000" lon="1.912668000">
        <ele>333.90</ele>
        <time>2014-03-09T09:39:09Z</time>
      </trkpt>
      <trkpt lat="41.583872000" lon="1.912750000">
        <ele>334.10</ele>
        <time>2014-03-09T09:39:12Z</time>
      </trkpt>
      <trkpt lat="41.583870000" lon="1.912795000">
        <ele>334.10</ele>
        <time>2014-03-09T09:39:14Z</time>
      </trkpt>
      <trkpt lat="41.583956000" lon="1.913131000">
        <ele>332.10</ele>
        <time>2014-03-09T09:39:24Z</time>
      </trkpt>
      <trkpt lat="41.583994000" lon="1.913206000">
        <ele>331.10</ele>
        <time>2014-03-09T09:39:26Z</time>
      </trkpt>
      <trkpt lat="41.584097000" lon="1.913254000">
        <ele>330.60</ele>
        <time>2014-03-09T09:39:31Z</time>
      </trkpt>
      <trkpt lat="41.584347000" lon="1.913225000">
        <ele>332.60</ele>
        <time>2014-03-09T09:39:46Z</time>
      </trkpt>
      <trkpt lat="41.584539000" lon="1.913287000">
        <ele>335.30</ele>
        <time>2014-03-09T09:39:58Z</time>
      </trkpt>
      <trkpt lat="41.584620000" lon="1.913297000">
        <ele>337.10</ele>
        <time>2014-03-09T09:40:03Z</time>
      </trkpt>
      <trkpt lat="41.584759000" lon="1.913293000">
        <ele>339.20</ele>
        <time>2014-03-09T09:40:15Z</time>
      </trkpt>
      <trkpt lat="41.584820000" lon="1.913412000">
        <ele>339.20</ele>
        <time>2014-03-09T09:40:22Z</time>
      </trkpt>
      <trkpt lat="41.584963000" lon="1.913647000">
        <ele>341.80</ele>
        <time>2014-03-09T09:40:39Z</time>
      </trkpt>
      <trkpt lat="41.585024000" lon="1.913656000">
        <ele>343.20</ele>
        <time>2014-03-09T09:40:45Z</time>
      </trkpt>
      <trkpt lat="41.585106000" lon="1.913603000">
        <ele>345.40</ele>
        <time>2014-03-09T09:40:58Z</time>
      </trkpt>
      <trkpt lat="41.585256000" lon="1.913589000">
        <ele>348.20</ele>
        <time>2014-03-09T09:41:12Z</time>
      </trkpt>
      <trkpt lat="41.585276000" lon="1.913587000">
        <ele>348.40</ele>
        <time>2014-03-09T09:41:13Z</time>
      </trkpt>
      <trkpt lat="41.585354000" lon="1.913588000">
        <ele>349.90</ele>
        <time>2014-03-09T09:41:16Z</time>
      </trkpt>
      <trkpt lat="41.585396000" lon="1.913585000">
        <ele>350.60</ele>
        <time>2014-03-09T09:41:18Z</time>
      </trkpt>
      <trkpt lat="41.585468000" lon="1.913529000">
        <ele>351.40</ele>
        <time>2014-03-09T09:41:23Z</time>
      </trkpt>
      <trkpt lat="41.585637000" lon="1.913313000">
        <ele>354.00</ele>
        <time>2014-03-09T09:41:37Z</time>
      </trkpt>
      <trkpt lat="41.585800000" lon="1.913086000">
        <ele>355.40</ele>
        <time>2014-03-09T09:41:51Z</time>
      </trkpt>
      <trkpt lat="41.585915000" lon="1.913015000">
        <ele>356.60</ele>
        <time>2014-03-09T09:41:59Z</time>
      </trkpt>
      <trkpt lat="41.586096000" lon="1.913081000">
        <ele>356.90</ele>
        <time>2014-03-09T09:42:14Z</time>
      </trkpt>
      <trkpt lat="41.586378000" lon="1.912982000">
        <ele>355.50</ele>
        <time>2014-03-09T09:42:24Z</time>
      </trkpt>
      <trkpt lat="41.586591000" lon="1.912864000">
        <ele>353.70</ele>
        <time>2014-03-09T09:42:31Z</time>
      </trkpt>
      <trkpt lat="41.586959000" lon="1.912900000">
        <ele>349.00</ele>
        <time>2014-03-09T09:42:37Z</time>
      </trkpt>
      <trkpt lat="41.587248000" lon="1.913028000">
        <ele>347.10</ele>
        <time>2014-03-09T09:42:41Z</time>
      </trkpt>
      <trkpt lat="41.587461000" lon="1.913133000">
        <ele>343.70</ele>
        <time>2014-03-09T09:42:44Z</time>
      </trkpt>
      <trkpt lat="41.587528000" lon="1.913159000">
        <ele>343.50</ele>
        <time>2014-03-09T09:42:45Z</time>
      </trkpt>
      <trkpt lat="41.587588000" lon="1.913178000">
        <ele>343.60</ele>
        <time>2014-03-09T09:42:46Z</time>
      </trkpt>
      <trkpt lat="41.587727000" lon="1.913012000">
        <ele>341.60</ele>
        <time>2014-03-09T09:42:52Z</time>
      </trkpt>
      <trkpt lat="41.587715000" lon="1.912961000">
        <ele>341.80</ele>
        <time>2014-03-09T09:42:53Z</time>
      </trkpt>
      <trkpt lat="41.587701000" lon="1.912861000">
        <ele>342.40</ele>
        <time>2014-03-09T09:42:55Z</time>
      </trkpt>
      <trkpt lat="41.587766000" lon="1.912774000">
        <ele>344.80</ele>
        <time>2014-03-09T09:42:59Z</time>
      </trkpt>
      <trkpt lat="41.587772000" lon="1.912801000">
        <ele>344.80</ele>
        <time>2014-03-09T09:43:00Z</time>
      </trkpt>
      <trkpt lat="41.587907000" lon="1.913204000">
        <ele>345.10</ele>
        <time>2014-03-09T09:43:10Z</time>
      </trkpt>
      <trkpt lat="41.588659000" lon="1.913699000">
        <ele>344.30</ele>
        <time>2014-03-09T09:43:29Z</time>
      </trkpt>
      <trkpt lat="41.588915000" lon="1.913799000">
        <ele>344.10</ele>
        <time>2014-03-09T09:43:35Z</time>
      </trkpt>
      <trkpt lat="41.589088000" lon="1.913824000">
        <ele>343.80</ele>
        <time>2014-03-09T09:43:39Z</time>
      </trkpt>
      <trkpt lat="41.589632000" lon="1.913704000">
        <ele>346.70</ele>
        <time>2014-03-09T09:43:54Z</time>
      </trkpt>
      <trkpt lat="41.589820000" lon="1.913600000">
        <ele>347.60</ele>
        <time>2014-03-09T09:44:00Z</time>
      </trkpt>
      <trkpt lat="41.590248000" lon="1.913174000">
        <ele>351.10</ele>
        <time>2014-03-09T09:44:17Z</time>
      </trkpt>
      <trkpt lat="41.590980000" lon="1.912797000">
        <ele>351.50</ele>
        <time>2014-03-09T09:44:39Z</time>
      </trkpt>
      <trkpt lat="41.591359000" lon="1.912762000">
        <ele>349.80</ele>
        <time>2014-03-09T09:44:47Z</time>
      </trkpt>
      <trkpt lat="41.591799000" lon="1.912874000">
        <ele>348.50</ele>
        <time>2014-03-09T09:44:55Z</time>
      </trkpt>
      <trkpt lat="41.591995000" lon="1.913143000">
        <ele>347.90</ele>
        <time>2014-03-09T09:45:01Z</time>
      </trkpt>
      <trkpt lat="41.592362000" lon="1.913442000">
        <ele>348.70</ele>
        <time>2014-03-09T09:45:12Z</time>
      </trkpt>
      <trkpt lat="41.592541000" lon="1.913231000">
        <ele>348.80</ele>
        <time>2014-03-09T09:45:18Z</time>
      </trkpt>
      <trkpt lat="41.592550000" lon="1.912915000">
        <ele>350.00</ele>
        <time>2014-03-09T09:45:24Z</time>
      </trkpt>
      <trkpt lat="41.592493000" lon="1.912670000">
        <ele>351.00</ele>
        <time>2014-03-09T09:45:32Z</time>
      </trkpt>
      <trkpt lat="41.592691000" lon="1.912292000">
        <ele>351.80</ele>
        <time>2014-03-09T09:45:46Z</time>
      </trkpt>
      <trkpt lat="41.593050000" lon="1.912450000">
        <ele>353.40</ele>
        <time>2014-03-09T09:45:56Z</time>
      </trkpt>
      <trkpt lat="41.593680000" lon="1.912995000">
        <ele>356.40</ele>
        <time>2014-03-09T09:46:14Z</time>
      </trkpt>
      <trkpt lat="41.594155000" lon="1.913098000">
        <ele>358.60</ele>
        <time>2014-03-09T09:46:28Z</time>
      </trkpt>
      <trkpt lat="41.594364000" lon="1.912583000">
        <ele>361.90</ele>
        <time>2014-03-09T09:46:42Z</time>
      </trkpt>
      <trkpt lat="41.594469000" lon="1.912397000">
        <ele>365.00</ele>
        <time>2014-03-09T09:46:49Z</time>
      </trkpt>
      <trkpt lat="41.594703000" lon="1.912510000">
        <ele>367.40</ele>
        <time>2014-03-09T09:46:59Z</time>
      </trkpt>
      <trkpt lat="41.595015000" lon="1.912523000">
        <ele>369.70</ele>
        <time>2014-03-09T09:47:12Z</time>
      </trkpt>
      <trkpt lat="41.595596000" lon="1.912487000">
        <ele>371.00</ele>
        <time>2014-03-09T09:47:30Z</time>
      </trkpt>
      <trkpt lat="41.595948000" lon="1.912591000">
        <ele>371.70</ele>
        <time>2014-03-09T09:47:39Z</time>
      </trkpt>
      <trkpt lat="41.596067000" lon="1.912624000">
        <ele>371.90</ele>
        <time>2014-03-09T09:47:42Z</time>
      </trkpt>
      <trkpt lat="41.596421000" lon="1.912486000">
        <ele>371.10</ele>
        <time>2014-03-09T09:47:52Z</time>
      </trkpt>
      <trkpt lat="41.596502000" lon="1.912460000">
        <ele>371.00</ele>
        <time>2014-03-09T09:47:54Z</time>
      </trkpt>
      <trkpt lat="41.596769000" lon="1.912517000">
        <ele>369.40</ele>
        <time>2014-03-09T09:48:02Z</time>
      </trkpt>
      <trkpt lat="41.596800000" lon="1.912483000">
        <ele>368.00</ele>
        <time>2014-03-09T09:48:04Z</time>
      </trkpt>
      <trkpt lat="41.596863000" lon="1.912311000">
        <ele>366.50</ele>
        <time>2014-03-09T09:48:08Z</time>
      </trkpt>
      <trkpt lat="41.596885000" lon="1.912073000">
        <ele>365.00</ele>
        <time>2014-03-09T09:48:13Z</time>
      </trkpt>
      <trkpt lat="41.596941000" lon="1.911910000">
        <ele>362.50</ele>
        <time>2014-03-09T09:48:17Z</time>
      </trkpt>
      <trkpt lat="41.597009000" lon="1.911825000">
        <ele>360.60</ele>
        <time>2014-03-09T09:48:22Z</time>
      </trkpt>
      <trkpt lat="41.597114000" lon="1.911779000">
        <ele>358.40</ele>
        <time>2014-03-09T09:48:25Z</time>
      </trkpt>
      <trkpt lat="41.597262000" lon="1.911660000">
        <ele>357.20</ele>
        <time>2014-03-09T09:48:29Z</time>
      </trkpt>
      <trkpt lat="41.597331000" lon="1.911636000">
        <ele>358.40</ele>
        <time>2014-03-09T09:48:32Z</time>
      </trkpt>
      <trkpt lat="41.597442000" lon="1.911559000">
        <ele>359.40</ele>
        <time>2014-03-09T09:48:44Z</time>
      </trkpt>
      <trkpt lat="41.597556000" lon="1.911355000">
        <ele>358.90</ele>
        <time>2014-03-09T09:48:54Z</time>
      </trkpt>
      <trkpt lat="41.597780000" lon="1.911277000">
        <ele>356.60</ele>
        <time>2014-03-09T09:49:01Z</time>
      </trkpt>
      <trkpt lat="41.597998000" lon="1.910911000">
        <ele>355.90</ele>
        <time>2014-03-09T09:49:12Z</time>
      </trkpt>
      <trkpt lat="41.598088000" lon="1.910774000">
        <ele>354.80</ele>
        <time>2014-03-09T09:49:16Z</time>
      </trkpt>
      <trkpt lat="41.598149000" lon="1.910739000">
        <ele>353.50</ele>
        <time>2014-03-09T09:49:18Z</time>
      </trkpt>
      <trkpt lat="41.598222000" lon="1.910728000">
        <ele>352.60</ele>
        <time>2014-03-09T09:49:20Z</time>
      </trkpt>
      <trkpt lat="41.598354000" lon="1.910684000">
        <ele>352.00</ele>
        <time>2014-03-09T09:49:23Z</time>
      </trkpt>
      <trkpt lat="41.598614000" lon="1.910647000">
        <ele>349.20</ele>
        <time>2014-03-09T09:49:30Z</time>
      </trkpt>
      <trkpt lat="41.598670000" lon="1.910598000">
        <ele>349.00</ele>
        <time>2014-03-09T09:49:32Z</time>
      </trkpt>
      <trkpt lat="41.598873000" lon="1.910570000">
        <ele>347.40</ele>
        <time>2014-03-09T09:49:37Z</time>
      </trkpt>
      <trkpt lat="41.598970000" lon="1.910570000">
        <ele>347.20</ele>
        <time>2014-03-09T09:49:39Z</time>
      </trkpt>
      <trkpt lat="41.599374000" lon="1.910667000">
        <ele>346.80</ele>
        <time>2014-03-09T09:49:49Z</time>
      </trkpt>
      <trkpt lat="41.599456000" lon="1.910694000">
        <ele>346.40</ele>
        <time>2014-03-09T09:49:51Z</time>
      </trkpt>
      <trkpt lat="41.599584000" lon="1.910590000">
        <ele>346.60</ele>
        <time>2014-03-09T09:49:56Z</time>
      </trkpt>
      <trkpt lat="41.599582000" lon="1.910353000">
        <ele>347.50</ele>
        <time>2014-03-09T09:50:04Z</time>
      </trkpt>
      <trkpt lat="41.599363000" lon="1.910001000">
        <ele>348.40</ele>
        <time>2014-03-09T09:50:15Z</time>
      </trkpt>
      <trkpt lat="41.599285000" lon="1.909875000">
        <ele>350.30</ele>
        <time>2014-03-09T09:50:19Z</time>
      </trkpt>
      <trkpt lat="41.599248000" lon="1.909821000">
        <ele>349.90</ele>
        <time>2014-03-09T09:50:21Z</time>
      </trkpt>
      <trkpt lat="41.599227000" lon="1.909698000">
        <ele>350.80</ele>
        <time>2014-03-09T09:50:25Z</time>
      </trkpt>
      <trkpt lat="41.599193000" lon="1.909421000">
        <ele>352.40</ele>
        <time>2014-03-09T09:50:33Z</time>
      </trkpt>
      <trkpt lat="41.599268000" lon="1.909274000">
        <ele>351.50</ele>
        <time>2014-03-09T09:50:37Z</time>
      </trkpt>
      <trkpt lat="41.599418000" lon="1.909021000">
        <ele>351.00</ele>
        <time>2014-03-09T09:50:43Z</time>
      </trkpt>
      <trkpt lat="41.599559000" lon="1.908513000">
        <ele>351.40</ele>
        <time>2014-03-09T09:50:53Z</time>
      </trkpt>
      <trkpt lat="41.599579000" lon="1.908348000">
        <ele>352.30</ele>
        <time>2014-03-09T09:50:57Z</time>
      </trkpt>
      <trkpt lat="41.599795000" lon="1.908056000">
        <ele>350.80</ele>
        <time>2014-03-09T09:51:07Z</time>
      </trkpt>
      <trkpt lat="41.599818000" lon="1.907942000">
        <ele>349.80</ele>
        <time>2014-03-09T09:51:17Z</time>
      </trkpt>
      <trkpt lat="41.599823000" lon="1.907945000">
        <ele>349.80</ele>
        <time>2014-03-09T09:51:56Z</time>
      </trkpt>
      <trkpt lat="41.599871000" lon="1.907819000">
        <ele>348.90</ele>
        <time>2014-03-09T09:52:05Z</time>
      </trkpt>
      <trkpt lat="41.599877000" lon="1.907803000">
        <ele>348.60</ele>
        <time>2014-03-09T09:52:06Z</time>
      </trkpt>
      <trkpt lat="41.599967000" lon="1.907727000">
        <ele>346.40</ele>
        <time>2014-03-09T09:52:11Z</time>
      </trkpt>
      <trkpt lat="41.600040000" lon="1.907671000">
        <ele>345.60</ele>
        <time>2014-03-09T09:52:15Z</time>
      </trkpt>
      <trkpt lat="41.600366000" lon="1.907353000">
        <ele>343.30</ele>
        <time>2014-03-09T09:52:28Z</time>
      </trkpt>
      <trkpt lat="41.600459000" lon="1.907267000">
        <ele>342.60</ele>
        <time>2014-03-09T09:52:32Z</time>
      </trkpt>
      <trkpt lat="41.600506000" lon="1.907254000">
        <ele>342.40</ele>
        <time>2014-03-09T09:52:34Z</time>
      </trkpt>
      <trkpt lat="41.600654000" lon="1.907102000">
        <ele>341.60</ele>
        <time>2014-03-09T09:52:43Z</time>
      </trkpt>
      <trkpt lat="41.600698000" lon="1.906988000">
        <ele>340.20</ele>
        <time>2014-03-09T09:52:47Z</time>
      </trkpt>
      <trkpt lat="41.600704000" lon="1.906771000">
        <ele>338.60</ele>
        <time>2014-03-09T09:52:51Z</time>
      </trkpt>
      <trkpt lat="41.600697000" lon="1.906530000">
        <ele>338.30</ele>
        <time>2014-03-09T09:52:55Z</time>
      </trkpt>
      <trkpt lat="41.600659000" lon="1.906349000">
        <ele>337.40</ele>
        <time>2014-03-09T09:52:58Z</time>
      </trkpt>
      <trkpt lat="41.600680000" lon="1.905979000">
        <ele>336.50</ele>
        <time>2014-03-09T09:53:04Z</time>
      </trkpt>
      <trkpt lat="41.600812000" lon="1.905900000">
        <ele>336.00</ele>
        <time>2014-03-09T09:53:08Z</time>
      </trkpt>
      <trkpt lat="41.601086000" lon="1.905753000">
        <ele>333.70</ele>
        <time>2014-03-09T09:53:18Z</time>
      </trkpt>
      <trkpt lat="41.601092000" lon="1.905749000">
        <ele>333.70</ele>
        <time>2014-03-09T09:53:56Z</time>
      </trkpt>
      <trkpt lat="41.601078000" lon="1.905754000">
        <ele>333.60</ele>
        <time>2014-03-09T09:54:21Z</time>
      </trkpt>
      <trkpt lat="41.601042000" lon="1.905739000">
        <ele>333.00</ele>
        <time>2014-03-09T09:54:23Z</time>
      </trkpt>
      <trkpt lat="41.600741000" lon="1.905410000">
        <ele>329.90</ele>
        <time>2014-03-09T09:54:34Z</time>
      </trkpt>
      <trkpt lat="41.600713000" lon="1.905355000">
        <ele>329.50</ele>
        <time>2014-03-09T09:54:35Z</time>
      </trkpt>
      <trkpt lat="41.600647000" lon="1.905245000">
        <ele>328.60</ele>
        <time>2014-03-09T09:54:37Z</time>
      </trkpt>
      <trkpt lat="41.600434000" lon="1.904939000">
        <ele>327.50</ele>
        <time>2014-03-09T09:54:43Z</time>
      </trkpt>
      <trkpt lat="41.600394000" lon="1.904717000">
        <ele>327.10</ele>
        <time>2014-03-09T09:54:47Z</time>
      </trkpt>
      <trkpt lat="41.600403000" lon="1.904549000">
        <ele>327.60</ele>
        <time>2014-03-09T09:54:52Z</time>
      </trkpt>
      <trkpt lat="41.600352000" lon="1.904208000">
        <ele>327.40</ele>
        <time>2014-03-09T09:54:58Z</time>
      </trkpt>
      <trkpt lat="41.600200000" lon="1.903930000">
        <ele>325.40</ele>
        <time>2014-03-09T09:55:03Z</time>
      </trkpt>
      <trkpt lat="41.599909000" lon="1.903274000">
        <ele>322.00</ele>
        <time>2014-03-09T09:55:13Z</time>
      </trkpt>
      <trkpt lat="41.599718000" lon="1.902879000">
        <ele>320.60</ele>
        <time>2014-03-09T09:55:21Z</time>
      </trkpt>
      <trkpt lat="41.599429000" lon="1.902632000">
        <ele>316.90</ele>
        <time>2014-03-09T09:55:33Z</time>
      </trkpt>
      <trkpt lat="41.599415000" lon="1.902629000">
        <ele>316.40</ele>
        <time>2014-03-09T09:55:34Z</time>
      </trkpt>
      <trkpt lat="41.599390000" lon="1.902563000">
        <ele>315.40</ele>
        <time>2014-03-09T09:55:38Z</time>
      </trkpt>
      <trkpt lat="41.599418000" lon="1.902517000">
        <ele>315.10</ele>
        <time>2014-03-09T09:55:41Z</time>
      </trkpt>
      <trkpt lat="41.599355000" lon="1.902449000">
        <ele>313.40</ele>
        <time>2014-03-09T09:55:48Z</time>
      </trkpt>
      <trkpt lat="41.599264000" lon="1.902500000">
        <ele>312.60</ele>
        <time>2014-03-09T09:56:01Z</time>
      </trkpt>
      <trkpt lat="41.599264000" lon="1.902501000">
        <ele>312.60</ele>
        <time>2014-03-09T09:56:09Z</time>
      </trkpt>
      <trkpt lat="41.599118000" lon="1.902408000">
        <ele>311.70</ele>
        <time>2014-03-09T09:56:19Z</time>
      </trkpt>
      <trkpt lat="41.599074000" lon="1.902312000">
        <ele>311.50</ele>
        <time>2014-03-09T09:56:22Z</time>
      </trkpt>
      <trkpt lat="41.599008000" lon="1.902207000">
        <ele>311.10</ele>
        <time>2014-03-09T09:56:26Z</time>
      </trkpt>
      <trkpt lat="41.598816000" lon="1.901884000">
        <ele>310.20</ele>
        <time>2014-03-09T09:56:36Z</time>
      </trkpt>
      <trkpt lat="41.598792000" lon="1.901802000">
        <ele>310.30</ele>
        <time>2014-03-09T09:56:38Z</time>
      </trkpt>
      <trkpt lat="41.598735000" lon="1.901758000">
        <ele>310.60</ele>
        <time>2014-03-09T09:56:41Z</time>
      </trkpt>
      <trkpt lat="41.598719000" lon="1.901585000">
        <ele>308.50</ele>
        <time>2014-03-09T09:56:45Z</time>
      </trkpt>
      <trkpt lat="41.598577000" lon="1.901459000">
        <ele>306.20</ele>
        <time>2014-03-09T09:56:49Z</time>
      </trkpt>
      <trkpt lat="41.598321000" lon="1.901262000">
        <ele>305.30</ele>
        <time>2014-03-09T09:56:55Z</time>
      </trkpt>
      <trkpt lat="41.598194000" lon="1.901129000">
        <ele>304.60</ele>
        <time>2014-03-09T09:57:00Z</time>
      </trkpt>
      <trkpt lat="41.597867000" lon="1.900807000">
        <ele>303.40</ele>
        <time>2014-03-09T09:57:11Z</time>
      </trkpt>
      <trkpt lat="41.597821000" lon="1.900445000">
        <ele>302.00</ele>
        <time>2014-03-09T09:57:20Z</time>
      </trkpt>
      <trkpt lat="41.597813000" lon="1.900389000">
        <ele>301.90</ele>
        <time>2014-03-09T09:57:31Z</time>
      </trkpt>
      <trkpt lat="41.597829000" lon="1.900181000">
        <ele>301.40</ele>
        <time>2014-03-09T10:00:33Z</time>
      </trkpt>
      <trkpt lat="41.598141000" lon="1.900063000">
        <ele>301.70</ele>
        <time>2014-03-09T10:00:44Z</time>
      </trkpt>
      <trkpt lat="41.598449000" lon="1.900173000">
        <ele>302.60</ele>
        <time>2014-03-09T10:00:53Z</time>
      </trkpt>
      <trkpt lat="41.598660000" lon="1.900334000">
        <ele>301.20</ele>
        <time>2014-03-09T10:00:58Z</time>
      </trkpt>
      <trkpt lat="41.598981000" lon="1.900935000">
        <ele>302.40</ele>
        <time>2014-03-09T10:01:11Z</time>
      </trkpt>
      <trkpt lat="41.599286000" lon="1.901198000">
        <ele>302.60</ele>
        <time>2014-03-09T10:01:22Z</time>
      </trkpt>
      <trkpt lat="41.599532000" lon="1.900813000">
        <ele>301.90</ele>
        <time>2014-03-09T10:01:32Z</time>
      </trkpt>
      <trkpt lat="41.599455000" lon="1.900686000">
        <ele>302.30</ele>
        <time>2014-03-09T10:01:35Z</time>
      </trkpt>
      <trkpt lat="41.599403000" lon="1.900463000">
        <ele>303.10</ele>
        <time>2014-03-09T10:01:40Z</time>
      </trkpt>
      <trkpt lat="41.599679000" lon="1.899847000">
        <ele>306.70</ele>
        <time>2014-03-09T10:01:56Z</time>
      </trkpt>
      <trkpt lat="41.599788000" lon="1.899716000">
        <ele>307.80</ele>
        <time>2014-03-09T10:02:01Z</time>
      </trkpt>
      <trkpt lat="41.599950000" lon="1.899672000">
        <ele>310.20</ele>
        <time>2014-03-09T10:02:06Z</time>
      </trkpt>
      <trkpt lat="41.600160000" lon="1.899262000">
        <ele>311.20</ele>
        <time>2014-03-09T10:02:19Z</time>
      </trkpt>
      <trkpt lat="41.600532000" lon="1.899029000">
        <ele>311.00</ele>
        <time>2014-03-09T10:02:32Z</time>
      </trkpt>
      <trkpt lat="41.600726000" lon="1.898619000">
        <ele>312.20</ele>
        <time>2014-03-09T10:02:42Z</time>
      </trkpt>
      <trkpt lat="41.600986000" lon="1.898366000">
        <ele>311.50</ele>
        <time>2014-03-09T10:02:54Z</time>
      </trkpt>
      <trkpt lat="41.601111000" lon="1.898172000">
        <ele>310.00</ele>
        <time>2014-03-09T10:03:01Z</time>
      </trkpt>
      <trkpt lat="41.601191000" lon="1.898100000">
        <ele>308.70</ele>
        <time>2014-03-09T10:03:03Z</time>
      </trkpt>
      <trkpt lat="41.601288000" lon="1.898049000">
        <ele>308.20</ele>
        <time>2014-03-09T10:03:05Z</time>
      </trkpt>
      <trkpt lat="41.601597000" lon="1.897824000">
        <ele>304.60</ele>
        <time>2014-03-09T10:03:11Z</time>
      </trkpt>
      <trkpt lat="41.601747000" lon="1.897666000">
        <ele>303.90</ele>
        <time>2014-03-09T10:03:14Z</time>
      </trkpt>
      <trkpt lat="41.602004000" lon="1.897511000">
        <ele>301.10</ele>
        <time>2014-03-09T10:03:18Z</time>
      </trkpt>
      <trkpt lat="41.602348000" lon="1.897434000">
        <ele>298.90</ele>
        <time>2014-03-09T10:03:25Z</time>
      </trkpt>
      <trkpt lat="41.602492000" lon="1.897387000">
        <ele>297.00</ele>
        <time>2014-03-09T10:03:29Z</time>
      </trkpt>
      <trkpt lat="41.602802000" lon="1.897297000">
        <ele>293.40</ele>
        <time>2014-03-09T10:03:35Z</time>
      </trkpt>
      <trkpt lat="41.602870000" lon="1.897263000">
        <ele>292.70</ele>
        <time>2014-03-09T10:03:36Z</time>
      </trkpt>
      <trkpt lat="41.603109000" lon="1.896847000">
        <ele>288.70</ele>
        <time>2014-03-09T10:03:41Z</time>
      </trkpt>
      <trkpt lat="41.603118000" lon="1.896734000">
        <ele>288.60</ele>
        <time>2014-03-09T10:03:42Z</time>
      </trkpt>
      <trkpt lat="41.603185000" lon="1.896340000">
        <ele>289.70</ele>
        <time>2014-03-09T10:03:46Z</time>
      </trkpt>
      <trkpt lat="41.603130000" lon="1.896083000">
        <ele>291.10</ele>
        <time>2014-03-09T10:03:49Z</time>
      </trkpt>
      <trkpt lat="41.603028000" lon="1.895904000">
        <ele>292.60</ele>
        <time>2014-03-09T10:03:52Z</time>
      </trkpt>
      <trkpt lat="41.602996000" lon="1.895860000">
        <ele>292.70</ele>
        <time>2014-03-09T10:03:53Z</time>
      </trkpt>
      <trkpt lat="41.602470000" lon="1.895495000">
        <ele>291.20</ele>
        <time>2014-03-09T10:04:05Z</time>
      </trkpt>
      <trkpt lat="41.602314000" lon="1.895280000">
        <ele>289.30</ele>
        <time>2014-03-09T10:04:09Z</time>
      </trkpt>
      <trkpt lat="41.602097000" lon="1.894678000">
        <ele>285.20</ele>
        <time>2014-03-09T10:04:16Z</time>
      </trkpt>
      <trkpt lat="41.602032000" lon="1.894525000">
        <ele>284.10</ele>
        <time>2014-03-09T10:04:18Z</time>
      </trkpt>
      <trkpt lat="41.601870000" lon="1.894379000">
        <ele>283.10</ele>
        <time>2014-03-09T10:04:22Z</time>
      </trkpt>
      <trkpt lat="41.601780000" lon="1.894099000">
        <ele>282.30</ele>
        <time>2014-03-09T10:04:31Z</time>
      </trkpt>
      <trkpt lat="41.601732000" lon="1.894006000">
        <ele>282.10</ele>
        <time>2014-03-09T10:04:35Z</time>
      </trkpt>
      <trkpt lat="41.601626000" lon="1.894045000">
        <ele>281.60</ele>
        <time>2014-03-09T10:04:41Z</time>
      </trkpt>
      <trkpt lat="41.601662000" lon="1.893859000">
        <ele>278.50</ele>
        <time>2014-03-09T10:04:46Z</time>
      </trkpt>
      <trkpt lat="41.601849000" lon="1.893616000">
        <ele>274.30</ele>
        <time>2014-03-09T10:04:50Z</time>
      </trkpt>
      <trkpt lat="41.602121000" lon="1.893247000">
        <ele>270.90</ele>
        <time>2014-03-09T10:04:55Z</time>
      </trkpt>
      <trkpt lat="41.602289000" lon="1.893011000">
        <ele>267.60</ele>
        <time>2014-03-09T10:04:58Z</time>
      </trkpt>
      <trkpt lat="41.602475000" lon="1.892734000">
        <ele>264.10</ele>
        <time>2014-03-09T10:05:01Z</time>
      </trkpt>
      <trkpt lat="41.602539000" lon="1.892637000">
        <ele>263.60</ele>
        <time>2014-03-09T10:05:02Z</time>
      </trkpt>
      <trkpt lat="41.602743000" lon="1.891953000">
        <ele>259.40</ele>
        <time>2014-03-09T10:05:08Z</time>
      </trkpt>
      <trkpt lat="41.602797000" lon="1.891713000">
        <ele>258.40</ele>
        <time>2014-03-09T10:05:10Z</time>
      </trkpt>
      <trkpt lat="41.602864000" lon="1.891339000">
        <ele>259.50</ele>
        <time>2014-03-09T10:05:14Z</time>
      </trkpt>
      <trkpt lat="41.602880000" lon="1.891066000">
        <ele>260.00</ele>
        <time>2014-03-09T10:05:18Z</time>
      </trkpt>
      <trkpt lat="41.602883000" lon="1.890787000">
        <ele>260.10</ele>
        <time>2014-03-09T10:05:22Z</time>
      </trkpt>
      <trkpt lat="41.602905000" lon="1.890573000">
        <ele>259.20</ele>
        <time>2014-03-09T10:05:25Z</time>
      </trkpt>
      <trkpt lat="41.602962000" lon="1.890359000">
        <ele>259.00</ele>
        <time>2014-03-09T10:05:28Z</time>
      </trkpt>
      <trkpt lat="41.603020000" lon="1.890144000">
        <ele>257.40</ele>
        <time>2014-03-09T10:05:31Z</time>
      </trkpt>
      <trkpt lat="41.603143000" lon="1.889932000">
        <ele>255.60</ele>
        <time>2014-03-09T10:05:34Z</time>
      </trkpt>
      <trkpt lat="41.603350000" lon="1.889542000">
        <ele>254.70</ele>
        <time>2014-03-09T10:05:42Z</time>
      </trkpt>
      <trkpt lat="41.603514000" lon="1.889288000">
        <ele>253.80</ele>
        <time>2014-03-09T10:05:49Z</time>
      </trkpt>
      <trkpt lat="41.603719000" lon="1.889044000">
        <ele>252.10</ele>
        <time>2014-03-09T10:05:54Z</time>
      </trkpt>
      <trkpt lat="41.603818000" lon="1.888936000">
        <ele>251.50</ele>
        <time>2014-03-09T10:05:56Z</time>
      </trkpt>
      <trkpt lat="41.604011000" lon="1.888775000">
        <ele>249.20</ele>
        <time>2014-03-09T10:05:59Z</time>
      </trkpt>
      <trkpt lat="41.604137000" lon="1.888634000">
        <ele>248.40</ele>
        <time>2014-03-09T10:06:01Z</time>
      </trkpt>
      <trkpt lat="41.604220000" lon="1.888333000">
        <ele>247.80</ele>
        <time>2014-03-09T10:06:04Z</time>
      </trkpt>
      <trkpt lat="41.604267000" lon="1.887928000">
        <ele>246.40</ele>
        <time>2014-03-09T10:06:08Z</time>
      </trkpt>
      <trkpt lat="41.604262000" lon="1.887534000">
        <ele>248.80</ele>
        <time>2014-03-09T10:06:13Z</time>
      </trkpt>
      <trkpt lat="41.604291000" lon="1.887208000">
        <ele>248.50</ele>
        <time>2014-03-09T10:06:24Z</time>
      </trkpt>
      <trkpt lat="41.604290000" lon="1.887206000">
        <ele>248.70</ele>
        <time>2014-03-09T10:08:52Z</time>
      </trkpt>
      <trkpt lat="41.604324000" lon="1.887165000">
        <ele>248.60</ele>
        <time>2014-03-09T10:08:56Z</time>
      </trkpt>
      <trkpt lat="41.604353000" lon="1.887138000">
        <ele>248.80</ele>
        <time>2014-03-09T10:08:59Z</time>
      </trkpt>
      <trkpt lat="41.604444000" lon="1.887166000">
        <ele>249.50</ele>
        <time>2014-03-09T10:09:04Z</time>
      </trkpt>
      <trkpt lat="41.604578000" lon="1.887293000">
        <ele>251.80</ele>
        <time>2014-03-09T10:09:11Z</time>
      </trkpt>
      <trkpt lat="41.604631000" lon="1.887288000">
        <ele>252.60</ele>
        <time>2014-03-09T10:09:13Z</time>
      </trkpt>
      <trkpt lat="41.604685000" lon="1.887234000">
        <ele>253.00</ele>
        <time>2014-03-09T10:09:16Z</time>
      </trkpt>
      <trkpt lat="41.604893000" lon="1.887141000">
        <ele>255.90</ele>
        <time>2014-03-09T10:09:30Z</time>
      </trkpt>
      <trkpt lat="41.604928000" lon="1.887060000">
        <ele>256.00</ele>
        <time>2014-03-09T10:09:35Z</time>
      </trkpt>
      <trkpt lat="41.605005000" lon="1.886648000">
        <ele>256.90</ele>
        <time>2014-03-09T10:09:49Z</time>
      </trkpt>
      <trkpt lat="41.605246000" lon="1.886507000">
        <ele>260.30</ele>
        <time>2014-03-09T10:10:01Z</time>
      </trkpt>
      <trkpt lat="41.605434000" lon="1.886367000">
        <ele>263.60</ele>
        <time>2014-03-09T10:10:12Z</time>
      </trkpt>
      <trkpt lat="41.605636000" lon="1.886198000">
        <ele>266.70</ele>
        <time>2014-03-09T10:10:25Z</time>
      </trkpt>
      <trkpt lat="41.605889000" lon="1.886090000">
        <ele>264.50</ele>
        <time>2014-03-09T10:10:38Z</time>
      </trkpt>
      <trkpt lat="41.606010000" lon="1.885966000">
        <ele>263.10</ele>
        <time>2014-03-09T10:10:53Z</time>
      </trkpt>
      <trkpt lat="41.606349000" lon="1.885912000">
        <ele>260.10</ele>
        <time>2014-03-09T10:11:05Z</time>
      </trkpt>
      <trkpt lat="41.606598000" lon="1.885906000">
        <ele>258.90</ele>
        <time>2014-03-09T10:11:17Z</time>
      </trkpt>
      <trkpt lat="41.606722000" lon="1.885929000">
        <ele>259.00</ele>
        <time>2014-03-09T10:11:32Z</time>
      </trkpt>
      <trkpt lat="41.606800000" lon="1.886001000">
        <ele>259.50</ele>
        <time>2014-03-09T10:11:49Z</time>
      </trkpt>
      <trkpt lat="41.606848000" lon="1.885926000">
        <ele>260.40</ele>
        <time>2014-03-09T10:12:01Z</time>
      </trkpt>
      <trkpt lat="41.606940000" lon="1.885881000">
        <ele>260.90</ele>
        <time>2014-03-09T10:12:09Z</time>
      </trkpt>
      <trkpt lat="41.606970000" lon="1.885605000">
        <ele>260.50</ele>
        <time>2014-03-09T10:12:20Z</time>
      </trkpt>
      <trkpt lat="41.607160000" lon="1.885322000">
        <ele>257.10</ele>
        <time>2014-03-09T10:12:28Z</time>
      </trkpt>
      <trkpt lat="41.607245000" lon="1.885146000">
        <ele>254.10</ele>
        <time>2014-03-09T10:12:33Z</time>
      </trkpt>
      <trkpt lat="41.607314000" lon="1.884979000">
        <ele>251.60</ele>
        <time>2014-03-09T10:12:39Z</time>
      </trkpt>
      <trkpt lat="41.607436000" lon="1.884896000">
        <ele>249.80</ele>
        <time>2014-03-09T10:12:44Z</time>
      </trkpt>
      <trkpt lat="41.607618000" lon="1.884893000">
        <ele>247.40</ele>
        <time>2014-03-09T10:12:49Z</time>
      </trkpt>
      <trkpt lat="41.607847000" lon="1.884770000">
        <ele>247.30</ele>
        <time>2014-03-09T10:12:57Z</time>
      </trkpt>
      <trkpt lat="41.607964000" lon="1.884563000">
        <ele>250.60</ele>
        <time>2014-03-09T10:13:05Z</time>
      </trkpt>
      <trkpt lat="41.607994000" lon="1.884514000">
        <ele>251.10</ele>
        <time>2014-03-09T10:13:07Z</time>
      </trkpt>
      <trkpt lat="41.608145000" lon="1.884561000">
        <ele>253.00</ele>
        <time>2014-03-09T10:13:14Z</time>
      </trkpt>
      <trkpt lat="41.608294000" lon="1.884797000">
        <ele>256.50</ele>
        <time>2014-03-09T10:13:24Z</time>
      </trkpt>
      <trkpt lat="41.608326000" lon="1.884683000">
        <ele>257.10</ele>
        <time>2014-03-09T10:13:30Z</time>
      </trkpt>
      <trkpt lat="41.608212000" lon="1.884346000">
        <ele>258.40</ele>
        <time>2014-03-09T10:13:41Z</time>
      </trkpt>
      <trkpt lat="41.608343000" lon="1.884315000">
        <ele>259.30</ele>
        <time>2014-03-09T10:13:48Z</time>
      </trkpt>
      <trkpt lat="41.608698000" lon="1.884575000">
        <ele>262.50</ele>
        <time>2014-03-09T10:14:01Z</time>
      </trkpt>
      <trkpt lat="41.608988000" lon="1.885015000">
        <ele>261.80</ele>
        <time>2014-03-09T10:14:14Z</time>
      </trkpt>
      <trkpt lat="41.609036000" lon="1.885116000">
        <ele>262.20</ele>
        <time>2014-03-09T10:14:22Z</time>
      </trkpt>
      <trkpt lat="41.609038000" lon="1.885114000">
        <ele>262.10</ele>
        <time>2014-03-09T10:14:38Z</time>
      </trkpt>
      <trkpt lat="41.609215000" lon="1.885486000">
        <ele>260.70</ele>
        <time>2014-03-09T10:14:50Z</time>
      </trkpt>
      <trkpt lat="41.609252000" lon="1.885755000">
        <ele>260.20</ele>
        <time>2014-03-09T10:14:55Z</time>
      </trkpt>
      <trkpt lat="41.609363000" lon="1.885994000">
        <ele>259.90</ele>
        <time>2014-03-09T10:15:00Z</time>
      </trkpt>
      <trkpt lat="41.609658000" lon="1.886226000">
        <ele>257.10</ele>
        <time>2014-03-09T10:15:06Z</time>
      </trkpt>
      <trkpt lat="41.609849000" lon="1.886282000">
        <ele>255.50</ele>
        <time>2014-03-09T10:15:09Z</time>
      </trkpt>
      <trkpt lat="41.610082000" lon="1.886138000">
        <ele>254.70</ele>
        <time>2014-03-09T10:15:13Z</time>
      </trkpt>
      <trkpt lat="41.610262000" lon="1.885990000">
        <ele>252.90</ele>
        <time>2014-03-09T10:15:16Z</time>
      </trkpt>
      <trkpt lat="41.610483000" lon="1.885778000">
        <ele>250.00</ele>
        <time>2014-03-09T10:15:20Z</time>
      </trkpt>
      <trkpt lat="41.610705000" lon="1.885754000">
        <ele>248.10</ele>
        <time>2014-03-09T10:15:24Z</time>
      </trkpt>
      <trkpt lat="41.611383000" lon="1.886268000">
        <ele>244.70</ele>
        <time>2014-03-09T10:15:35Z</time>
      </trkpt>
      <trkpt lat="41.611442000" lon="1.886309000">
        <ele>244.80</ele>
        <time>2014-03-09T10:15:36Z</time>
      </trkpt>
      <trkpt lat="41.611834000" lon="1.886856000">
        <ele>241.50</ele>
        <time>2014-03-09T10:15:46Z</time>
      </trkpt>
      <trkpt lat="41.611996000" lon="1.887032000">
        <ele>238.60</ele>
        <time>2014-03-09T10:15:53Z</time>
      </trkpt>
      <trkpt lat="41.612243000" lon="1.886992000">
        <ele>234.10</ele>
        <time>2014-03-09T10:15:57Z</time>
      </trkpt>
      <trkpt lat="41.612382000" lon="1.886895000">
        <ele>231.90</ele>
        <time>2014-03-09T10:15:59Z</time>
      </trkpt>
      <trkpt lat="41.612823000" lon="1.887029000">
        <ele>229.10</ele>
        <time>2014-03-09T10:16:05Z</time>
      </trkpt>
      <trkpt lat="41.612877000" lon="1.887500000">
        <ele>226.00</ele>
        <time>2014-03-09T10:16:10Z</time>
      </trkpt>
      <trkpt lat="41.612836000" lon="1.887680000">
        <ele>225.10</ele>
        <time>2014-03-09T10:16:12Z</time>
      </trkpt>
      <trkpt lat="41.612771000" lon="1.887981000">
        <ele>223.40</ele>
        <time>2014-03-09T10:16:18Z</time>
      </trkpt>
      <trkpt lat="41.612763000" lon="1.888011000">
        <ele>223.50</ele>
        <time>2014-03-09T10:16:37Z</time>
      </trkpt>
      <trkpt lat="41.612759000" lon="1.888064000">
        <ele>223.10</ele>
        <time>2014-03-09T10:18:20Z</time>
      </trkpt>
      <trkpt lat="41.612984000" lon="1.888329000">
        <ele>221.00</ele>
        <time>2014-03-09T10:18:29Z</time>
      </trkpt>
      <trkpt lat="41.613125000" lon="1.888410000">
        <ele>221.10</ele>
        <time>2014-03-09T10:18:35Z</time>
      </trkpt>
      <trkpt lat="41.613170000" lon="1.888448000">
        <ele>220.90</ele>
        <time>2014-03-09T10:18:43Z</time>
      </trkpt>
      <trkpt lat="41.613243000" lon="1.888451000">
        <ele>221.10</ele>
        <time>2014-03-09T10:18:48Z</time>
      </trkpt>
      <trkpt lat="41.613593000" lon="1.888803000">
        <ele>220.10</ele>
        <time>2014-03-09T10:19:01Z</time>
      </trkpt>
      <trkpt lat="41.613724000" lon="1.888933000">
        <ele>220.00</ele>
        <time>2014-03-09T10:19:04Z</time>
      </trkpt>
      <trkpt lat="41.614047000" lon="1.889031000">
        <ele>219.90</ele>
        <time>2014-03-09T10:19:09Z</time>
      </trkpt>
      <trkpt lat="41.613970000" lon="1.889350000">
        <ele>220.00</ele>
        <time>2014-03-09T10:19:14Z</time>
      </trkpt>
      <trkpt lat="41.613892000" lon="1.889520000">
        <ele>220.30</ele>
        <time>2014-03-09T10:19:17Z</time>
      </trkpt>
      <trkpt lat="41.613794000" lon="1.890010000">
        <ele>221.80</ele>
        <time>2014-03-09T10:19:28Z</time>
      </trkpt>
      <trkpt lat="41.614049000" lon="1.890433000">
        <ele>224.80</ele>
        <time>2014-03-09T10:19:40Z</time>
      </trkpt>
      <trkpt lat="41.614111000" lon="1.890685000">
        <ele>226.30</ele>
        <time>2014-03-09T10:19:47Z</time>
      </trkpt>
      <trkpt lat="41.614252000" lon="1.891021000">
        <ele>229.40</ele>
        <time>2014-03-09T10:19:58Z</time>
      </trkpt>
      <trkpt lat="41.614449000" lon="1.891218000">
        <ele>232.40</ele>
        <time>2014-03-09T10:20:08Z</time>
      </trkpt>
      <trkpt lat="41.614698000" lon="1.891319000">
        <ele>235.00</ele>
        <time>2014-03-09T10:20:20Z</time>
      </trkpt>
      <trkpt lat="41.614800000" lon="1.891440000">
        <ele>235.50</ele>
        <time>2014-03-09T10:20:26Z</time>
      </trkpt>
      <trkpt lat="41.614882000" lon="1.891445000">
        <ele>235.90</ele>
        <time>2014-03-09T10:20:30Z</time>
      </trkpt>
      <trkpt lat="41.615133000" lon="1.891060000">
        <ele>233.30</ele>
        <time>2014-03-09T10:20:42Z</time>
      </trkpt>
      <trkpt lat="41.615274000" lon="1.891117000">
        <ele>232.70</ele>
        <time>2014-03-09T10:20:51Z</time>
      </trkpt>
      <trkpt lat="41.615453000" lon="1.891461000">
        <ele>233.00</ele>
        <time>2014-03-09T10:21:06Z</time>
      </trkpt>
      <trkpt lat="41.615762000" lon="1.891761000">
        <ele>234.30</ele>
        <time>2014-03-09T10:21:19Z</time>
      </trkpt>
      <trkpt lat="41.616004000" lon="1.892043000">
        <ele>235.40</ele>
        <time>2014-03-09T10:21:30Z</time>
      </trkpt>
      <trkpt lat="41.616186000" lon="1.892692000">
        <ele>236.90</ele>
        <time>2014-03-09T10:21:46Z</time>
      </trkpt>
      <trkpt lat="41.616461000" lon="1.893332000">
        <ele>237.20</ele>
        <time>2014-03-09T10:22:01Z</time>
      </trkpt>
      <trkpt lat="41.616475000" lon="1.893383000">
        <ele>237.10</ele>
        <time>2014-03-09T10:22:02Z</time>
      </trkpt>
      <trkpt lat="41.616585000" lon="1.893553000">
        <ele>236.60</ele>
        <time>2014-03-09T10:22:06Z</time>
      </trkpt>
      <trkpt lat="41.616636000" lon="1.893579000">
        <ele>237.20</ele>
        <time>2014-03-09T10:22:08Z</time>
      </trkpt>
      <trkpt lat="41.616918000" lon="1.893646000">
        <ele>236.00</ele>
        <time>2014-03-09T10:22:20Z</time>
      </trkpt>
      <trkpt lat="41.617148000" lon="1.893516000">
        <ele>235.90</ele>
        <time>2014-03-09T10:22:29Z</time>
      </trkpt>
      <trkpt lat="41.617363000" lon="1.893535000">
        <ele>235.70</ele>
        <time>2014-03-09T10:22:35Z</time>
      </trkpt>
      <trkpt lat="41.617513000" lon="1.893625000">
        <ele>236.00</ele>
        <time>2014-03-09T10:22:40Z</time>
      </trkpt>
      <trkpt lat="41.617690000" lon="1.893625000">
        <ele>234.70</ele>
        <time>2014-03-09T10:22:44Z</time>
      </trkpt>
      <trkpt lat="41.617873000" lon="1.893667000">
        <ele>235.00</ele>
        <time>2014-03-09T10:22:48Z</time>
      </trkpt>
      <trkpt lat="41.618122000" lon="1.893663000">
        <ele>233.40</ele>
        <time>2014-03-09T10:22:54Z</time>
      </trkpt>
      <trkpt lat="41.618243000" lon="1.893571000">
        <ele>232.20</ele>
        <time>2014-03-09T10:23:02Z</time>
      </trkpt>
      <trkpt lat="41.618411000" lon="1.893596000">
        <ele>234.80</ele>
        <time>2014-03-09T10:23:09Z</time>
      </trkpt>
      <trkpt lat="41.618528000" lon="1.893529000">
        <ele>236.30</ele>
        <time>2014-03-09T10:23:14Z</time>
      </trkpt>
      <trkpt lat="41.618665000" lon="1.893542000">
        <ele>236.70</ele>
        <time>2014-03-09T10:23:19Z</time>
      </trkpt>
      <trkpt lat="41.618839000" lon="1.893797000">
        <ele>237.40</ele>
        <time>2014-03-09T10:23:29Z</time>
      </trkpt>
      <trkpt lat="41.618877000" lon="1.893915000">
        <ele>236.20</ele>
        <time>2014-03-09T10:23:31Z</time>
      </trkpt>
      <trkpt lat="41.618967000" lon="1.894297000">
        <ele>239.50</ele>
        <time>2014-03-09T10:23:38Z</time>
      </trkpt>
      <trkpt lat="41.618982000" lon="1.894331000">
        <ele>239.70</ele>
        <time>2014-03-09T10:23:39Z</time>
      </trkpt>
      <trkpt lat="41.619122000" lon="1.894781000">
        <ele>242.50</ele>
        <time>2014-03-09T10:23:52Z</time>
      </trkpt>
      <trkpt lat="41.619275000" lon="1.894906000">
        <ele>244.30</ele>
        <time>2014-03-09T10:23:59Z</time>
      </trkpt>
      <trkpt lat="41.619431000" lon="1.895038000">
        <ele>244.30</ele>
        <time>2014-03-09T10:24:06Z</time>
      </trkpt>
      <trkpt lat="41.619543000" lon="1.895138000">
        <ele>242.50</ele>
        <time>2014-03-09T10:24:09Z</time>
      </trkpt>
      <trkpt lat="41.619641000" lon="1.895195000">
        <ele>241.80</ele>
        <time>2014-03-09T10:24:11Z</time>
      </trkpt>
      <trkpt lat="41.619746000" lon="1.895208000">
        <ele>241.40</ele>
        <time>2014-03-09T10:24:13Z</time>
      </trkpt>
      <trkpt lat="41.619919000" lon="1.895205000">
        <ele>240.10</ele>
        <time>2014-03-09T10:24:16Z</time>
      </trkpt>
      <trkpt lat="41.620302000" lon="1.895165000">
        <ele>237.30</ele>
        <time>2014-03-09T10:24:22Z</time>
      </trkpt>
      <trkpt lat="41.620420000" lon="1.894903000">
        <ele>236.40</ele>
        <time>2014-03-09T10:24:28Z</time>
      </trkpt>
      <trkpt lat="41.620383000" lon="1.894878000">
        <ele>236.50</ele>
        <time>2014-03-09T10:24:29Z</time>
      </trkpt>
      <trkpt lat="41.619951000" lon="1.894650000">
        <ele>240.00</ele>
        <time>2014-03-09T10:24:42Z</time>
      </trkpt>
      <trkpt lat="41.619840000" lon="1.894192000">
        <ele>242.40</ele>
        <time>2014-03-09T10:24:54Z</time>
      </trkpt>
      <trkpt lat="41.620158000" lon="1.893758000">
        <ele>245.30</ele>
        <time>2014-03-09T10:25:09Z</time>
      </trkpt>
      <trkpt lat="41.620563000" lon="1.893468000">
        <ele>246.40</ele>
        <time>2014-03-09T10:25:24Z</time>
      </trkpt>
      <trkpt lat="41.620256000" lon="1.893253000">
        <ele>248.30</ele>
        <time>2014-03-09T10:25:36Z</time>
      </trkpt>
      <trkpt lat="41.619874000" lon="1.893118000">
        <ele>250.50</ele>
        <time>2014-03-09T10:25:50Z</time>
      </trkpt>
      <trkpt lat="41.619558000" lon="1.892906000">
        <ele>253.70</ele>
        <time>2014-03-09T10:26:05Z</time>
      </trkpt>
      <trkpt lat="41.619532000" lon="1.892836000">
        <ele>254.20</ele>
        <time>2014-03-09T10:26:08Z</time>
      </trkpt>
      <trkpt lat="41.619572000" lon="1.892690000">
        <ele>255.00</ele>
        <time>2014-03-09T10:26:13Z</time>
      </trkpt>
      <trkpt lat="41.619837000" lon="1.892504000">
        <ele>257.30</ele>
        <time>2014-03-09T10:26:27Z</time>
      </trkpt>
      <trkpt lat="41.620180000" lon="1.892576000">
        <ele>260.40</ele>
        <time>2014-03-09T10:26:42Z</time>
      </trkpt>
      <trkpt lat="41.620550000" lon="1.892597000">
        <ele>262.20</ele>
        <time>2014-03-09T10:26:57Z</time>
      </trkpt>
      <trkpt lat="41.620800000" lon="1.892241000">
        <ele>263.20</ele>
        <time>2014-03-09T10:27:14Z</time>
      </trkpt>
      <trkpt lat="41.620822000" lon="1.892224000">
        <ele>263.40</ele>
        <time>2014-03-09T10:27:15Z</time>
      </trkpt>
      <trkpt lat="41.621176000" lon="1.892134000">
        <ele>262.50</ele>
        <time>2014-03-09T10:27:30Z</time>
      </trkpt>
      <trkpt lat="41.621524000" lon="1.892469000">
        <ele>263.10</ele>
        <time>2014-03-09T10:27:43Z</time>
      </trkpt>
      <trkpt lat="41.622164000" lon="1.892874000">
        <ele>261.50</ele>
        <time>2014-03-09T10:28:03Z</time>
      </trkpt>
      <trkpt lat="41.622658000" lon="1.893219000">
        <ele>260.80</ele>
        <time>2014-03-09T10:28:19Z</time>
      </trkpt>
      <trkpt lat="41.622652000" lon="1.893331000">
        <ele>260.70</ele>
        <time>2014-03-09T10:28:23Z</time>
      </trkpt>
      <trkpt lat="41.622501000" lon="1.893500000">
        <ele>262.70</ele>
        <time>2014-03-09T10:28:37Z</time>
      </trkpt>
      <trkpt lat="41.622397000" lon="1.893608000">
        <ele>265.90</ele>
        <time>2014-03-09T10:28:44Z</time>
      </trkpt>
      <trkpt lat="41.622368000" lon="1.893698000">
        <ele>268.20</ele>
        <time>2014-03-09T10:28:48Z</time>
      </trkpt>
      <trkpt lat="41.622466000" lon="1.893944000">
        <ele>270.10</ele>
        <time>2014-03-09T10:28:59Z</time>
      </trkpt>
      <trkpt lat="41.622721000" lon="1.894443000">
        <ele>270.70</ele>
        <time>2014-03-09T10:29:14Z</time>
      </trkpt>
      <trkpt lat="41.623166000" lon="1.894838000">
        <ele>271.60</ele>
        <time>2014-03-09T10:29:31Z</time>
      </trkpt>
      <trkpt lat="41.623596000" lon="1.895332000">
        <ele>274.20</ele>
        <time>2014-03-09T10:29:48Z</time>
      </trkpt>
      <trkpt lat="41.623719000" lon="1.895724000">
        <ele>277.40</ele>
        <time>2014-03-09T10:29:59Z</time>
      </trkpt>
      <trkpt lat="41.623487000" lon="1.895997000">
        <ele>278.80</ele>
        <time>2014-03-09T10:30:10Z</time>
      </trkpt>
      <trkpt lat="41.623199000" lon="1.896384000">
        <ele>281.10</ele>
        <time>2014-03-09T10:30:24Z</time>
      </trkpt>
      <trkpt lat="41.623334000" lon="1.896852000">
        <ele>284.10</ele>
        <time>2014-03-09T10:30:38Z</time>
      </trkpt>
      <trkpt lat="41.623752000" lon="1.897188000">
        <ele>286.10</ele>
        <time>2014-03-09T10:30:58Z</time>
      </trkpt>
      <trkpt lat="41.624281000" lon="1.897223000">
        <ele>286.50</ele>
        <time>2014-03-09T10:31:18Z</time>
      </trkpt>
      <trkpt lat="41.624318000" lon="1.897195000">
        <ele>287.70</ele>
        <time>2014-03-09T10:31:20Z</time>
      </trkpt>
      <trkpt lat="41.624559000" lon="1.897094000">
        <ele>290.20</ele>
        <time>2014-03-09T10:31:36Z</time>
      </trkpt>
      <trkpt lat="41.624874000" lon="1.897032000">
        <ele>292.20</ele>
        <time>2014-03-09T10:31:49Z</time>
      </trkpt>
      <trkpt lat="41.625022000" lon="1.896958000">
        <ele>293.30</ele>
        <time>2014-03-09T10:31:57Z</time>
      </trkpt>
      <trkpt lat="41.624968000" lon="1.896870000">
        <ele>294.70</ele>
        <time>2014-03-09T10:32:03Z</time>
      </trkpt>
      <trkpt lat="41.624740000" lon="1.896804000">
        <ele>297.10</ele>
        <time>2014-03-09T10:32:16Z</time>
      </trkpt>
      <trkpt lat="41.624441000" lon="1.896788000">
        <ele>299.60</ele>
        <time>2014-03-09T10:32:32Z</time>
      </trkpt>
      <trkpt lat="41.624069000" lon="1.896768000">
        <ele>302.40</ele>
        <time>2014-03-09T10:32:51Z</time>
      </trkpt>
      <trkpt lat="41.624046000" lon="1.896684000">
        <ele>303.70</ele>
        <time>2014-03-09T10:32:57Z</time>
      </trkpt>
      <trkpt lat="41.624149000" lon="1.896671000">
        <ele>304.70</ele>
        <time>2014-03-09T10:33:03Z</time>
      </trkpt>
      <trkpt lat="41.624538000" lon="1.896463000">
        <ele>303.80</ele>
        <time>2014-03-09T10:33:19Z</time>
      </trkpt>
      <trkpt lat="41.624848000" lon="1.896467000">
        <ele>304.80</ele>
        <time>2014-03-09T10:33:29Z</time>
      </trkpt>
      <trkpt lat="41.625262000" lon="1.896286000">
        <ele>304.50</ele>
        <time>2014-03-09T10:33:43Z</time>
      </trkpt>
      <trkpt lat="41.625517000" lon="1.896201000">
        <ele>303.00</ele>
        <time>2014-03-09T10:33:50Z</time>
      </trkpt>
      <trkpt lat="41.625834000" lon="1.896271000">
        <ele>302.40</ele>
        <time>2014-03-09T10:33:58Z</time>
      </trkpt>
      <trkpt lat="41.626010000" lon="1.896273000">
        <ele>302.70</ele>
        <time>2014-03-09T10:34:03Z</time>
      </trkpt>
      <trkpt lat="41.626379000" lon="1.896096000">
        <ele>304.50</ele>
        <time>2014-03-09T10:34:17Z</time>
      </trkpt>
      <trkpt lat="41.626665000" lon="1.896232000">
        <ele>304.40</ele>
        <time>2014-03-09T10:34:30Z</time>
      </trkpt>
      <trkpt lat="41.627105000" lon="1.896413000">
        <ele>303.80</ele>
        <time>2014-03-09T10:34:44Z</time>
      </trkpt>
      <trkpt lat="41.627127000" lon="1.896419000">
        <ele>304.00</ele>
        <time>2014-03-09T10:34:45Z</time>
      </trkpt>
      <trkpt lat="41.627368000" lon="1.896321000">
        <ele>305.80</ele>
        <time>2014-03-09T10:34:58Z</time>
      </trkpt>
      <trkpt lat="41.627682000" lon="1.896190000">
        <ele>308.90</ele>
        <time>2014-03-09T10:35:14Z</time>
      </trkpt>
      <trkpt lat="41.627744000" lon="1.896215000">
        <ele>309.20</ele>
        <time>2014-03-09T10:35:19Z</time>
      </trkpt>
      <trkpt lat="41.627801000" lon="1.896245000">
        <ele>309.40</ele>
        <time>2014-03-09T10:35:26Z</time>
      </trkpt>
      <trkpt lat="41.627651000" lon="1.896463000">
        <ele>309.30</ele>
        <time>2014-03-09T10:35:41Z</time>
      </trkpt>
      <trkpt lat="41.627265000" lon="1.896968000">
        <ele>310.20</ele>
        <time>2014-03-09T10:35:59Z</time>
      </trkpt>
      <trkpt lat="41.627067000" lon="1.897510000">
        <ele>313.30</ele>
        <time>2014-03-09T10:36:14Z</time>
      </trkpt>
      <trkpt lat="41.627133000" lon="1.897941000">
        <ele>316.30</ele>
        <time>2014-03-09T10:36:26Z</time>
      </trkpt>
      <trkpt lat="41.627250000" lon="1.898371000">
        <ele>319.60</ele>
        <time>2014-03-09T10:36:39Z</time>
      </trkpt>
      <trkpt lat="41.627364000" lon="1.898781000">
        <ele>322.60</ele>
        <time>2014-03-09T10:36:52Z</time>
      </trkpt>
      <trkpt lat="41.627470000" lon="1.899183000">
        <ele>325.80</ele>
        <time>2014-03-09T10:37:04Z</time>
      </trkpt>
      <trkpt lat="41.627614000" lon="1.899559000">
        <ele>328.90</ele>
        <time>2014-03-09T10:37:18Z</time>
      </trkpt>
      <trkpt lat="41.627668000" lon="1.899779000">
        <ele>328.30</ele>
        <time>2014-03-09T10:37:35Z</time>
      </trkpt>
      <trkpt lat="41.627738000" lon="1.899827000">
        <ele>328.70</ele>
        <time>2014-03-09T10:37:39Z</time>
      </trkpt>
      <trkpt lat="41.627766000" lon="1.899811000">
        <ele>329.10</ele>
        <time>2014-03-09T10:37:41Z</time>
      </trkpt>
      <trkpt lat="41.627931000" lon="1.899834000">
        <ele>329.90</ele>
        <time>2014-03-09T10:37:51Z</time>
      </trkpt>
      <trkpt lat="41.628164000" lon="1.899931000">
        <ele>330.60</ele>
        <time>2014-03-09T10:38:03Z</time>
      </trkpt>
      <trkpt lat="41.628329000" lon="1.900507000">
        <ele>331.60</ele>
        <time>2014-03-09T10:38:20Z</time>
      </trkpt>
      <trkpt lat="41.628391000" lon="1.901042000">
        <ele>333.20</ele>
        <time>2014-03-09T10:38:34Z</time>
      </trkpt>
      <trkpt lat="41.628657000" lon="1.901284000">
        <ele>329.70</ele>
        <time>2014-03-09T10:38:40Z</time>
      </trkpt>
      <trkpt lat="41.629180000" lon="1.901614000">
        <ele>328.00</ele>
        <time>2014-03-09T10:38:49Z</time>
      </trkpt>
      <trkpt lat="41.629822000" lon="1.901749000">
        <ele>330.40</ele>
        <time>2014-03-09T10:39:01Z</time>
      </trkpt>
      <trkpt lat="41.629987000" lon="1.901855000">
        <ele>333.10</ele>
        <time>2014-03-09T10:39:06Z</time>
      </trkpt>
      <trkpt lat="41.630167000" lon="1.902393000">
        <ele>336.50</ele>
        <time>2014-03-09T10:39:20Z</time>
      </trkpt>
      <trkpt lat="41.630201000" lon="1.903010000">
        <ele>339.70</ele>
        <time>2014-03-09T10:39:36Z</time>
      </trkpt>
      <trkpt lat="41.630171000" lon="1.903316000">
        <ele>341.50</ele>
        <time>2014-03-09T10:39:45Z</time>
      </trkpt>
      <trkpt lat="41.630380000" lon="1.903572000">
        <ele>344.00</ele>
        <time>2014-03-09T10:39:57Z</time>
      </trkpt>
      <trkpt lat="41.630761000" lon="1.903542000">
        <ele>342.60</ele>
        <time>2014-03-09T10:40:08Z</time>
      </trkpt>
      <trkpt lat="41.630974000" lon="1.903611000">
        <ele>341.60</ele>
        <time>2014-03-09T10:40:12Z</time>
      </trkpt>
      <trkpt lat="41.631186000" lon="1.903850000">
        <ele>340.50</ele>
        <time>2014-03-09T10:40:17Z</time>
      </trkpt>
      <trkpt lat="41.631218000" lon="1.903963000">
        <ele>340.90</ele>
        <time>2014-03-09T10:40:19Z</time>
      </trkpt>
      <trkpt lat="41.631325000" lon="1.904131000">
        <ele>340.50</ele>
        <time>2014-03-09T10:40:23Z</time>
      </trkpt>
      <trkpt lat="41.631532000" lon="1.904319000">
        <ele>339.40</ele>
        <time>2014-03-09T10:40:32Z</time>
      </trkpt>
      <trkpt lat="41.631641000" lon="1.904887000">
        <ele>340.10</ele>
        <time>2014-03-09T10:40:42Z</time>
      </trkpt>
      <trkpt lat="41.631594000" lon="1.905017000">
        <ele>341.70</ele>
        <time>2014-03-09T10:40:45Z</time>
      </trkpt>
      <trkpt lat="41.631561000" lon="1.905103000">
        <ele>342.20</ele>
        <time>2014-03-09T10:40:47Z</time>
      </trkpt>
      <trkpt lat="41.631139000" lon="1.905297000">
        <ele>344.60</ele>
        <time>2014-03-09T10:41:00Z</time>
      </trkpt>
      <trkpt lat="41.630921000" lon="1.905314000">
        <ele>347.40</ele>
        <time>2014-03-09T10:41:08Z</time>
      </trkpt>
      <trkpt lat="41.630710000" lon="1.905632000">
        <ele>350.10</ele>
        <time>2014-03-09T10:41:20Z</time>
      </trkpt>
      <trkpt lat="41.630720000" lon="1.906128000">
        <ele>352.30</ele>
        <time>2014-03-09T10:41:33Z</time>
      </trkpt>
      <trkpt lat="41.630669000" lon="1.906696000">
        <ele>353.90</ele>
        <time>2014-03-09T10:41:48Z</time>
      </trkpt>
      <trkpt lat="41.630874000" lon="1.907362000">
        <ele>355.30</ele>
        <time>2014-03-09T10:42:04Z</time>
      </trkpt>
      <trkpt lat="41.631156000" lon="1.907780000">
        <ele>355.60</ele>
        <time>2014-03-09T10:42:18Z</time>
      </trkpt>
      <trkpt lat="41.631216000" lon="1.907844000">
        <ele>355.30</ele>
        <time>2014-03-09T10:42:20Z</time>
      </trkpt>
      <trkpt lat="41.631559000" lon="1.908451000">
        <ele>356.40</ele>
        <time>2014-03-09T10:42:36Z</time>
      </trkpt>
      <trkpt lat="41.631766000" lon="1.908556000">
        <ele>355.00</ele>
        <time>2014-03-09T10:42:43Z</time>
      </trkpt>
      <trkpt lat="41.631978000" lon="1.908667000">
        <ele>354.00</ele>
        <time>2014-03-09T10:42:48Z</time>
      </trkpt>
      <trkpt lat="41.632512000" lon="1.909189000">
        <ele>355.70</ele>
        <time>2014-03-09T10:43:05Z</time>
      </trkpt>
      <trkpt lat="41.632841000" lon="1.909492000">
        <ele>355.30</ele>
        <time>2014-03-09T10:43:17Z</time>
      </trkpt>
      <trkpt lat="41.633040000" lon="1.910005000">
        <ele>356.20</ele>
        <time>2014-03-09T10:43:29Z</time>
      </trkpt>
      <trkpt lat="41.633401000" lon="1.910463000">
        <ele>358.50</ele>
        <time>2014-03-09T10:43:45Z</time>
      </trkpt>
      <trkpt lat="41.633878000" lon="1.910708000">
        <ele>359.40</ele>
        <time>2014-03-09T10:44:01Z</time>
      </trkpt>
      <trkpt lat="41.634211000" lon="1.911328000">
        <ele>359.50</ele>
        <time>2014-03-09T10:44:17Z</time>
      </trkpt>
      <trkpt lat="41.634464000" lon="1.911808000">
        <ele>363.00</ele>
        <time>2014-03-09T10:44:30Z</time>
      </trkpt>
      <trkpt lat="41.634504000" lon="1.911875000">
        <ele>363.60</ele>
        <time>2014-03-09T10:44:32Z</time>
      </trkpt>
      <trkpt lat="41.634624000" lon="1.912104000">
        <ele>366.80</ele>
        <time>2014-03-09T10:44:39Z</time>
      </trkpt>
      <trkpt lat="41.634738000" lon="1.912347000">
        <ele>369.90</ele>
        <time>2014-03-09T10:44:49Z</time>
      </trkpt>
      <trkpt lat="41.634748000" lon="1.912368000">
        <ele>369.90</ele>
        <time>2014-03-09T10:44:50Z</time>
      </trkpt>
      <trkpt lat="41.634841000" lon="1.912465000">
        <ele>369.80</ele>
        <time>2014-03-09T10:45:05Z</time>
      </trkpt>
      <trkpt lat="41.634857000" lon="1.912489000">
        <ele>369.40</ele>
        <time>2014-03-09T10:45:48Z</time>
      </trkpt>
      <trkpt lat="41.634939000" lon="1.912400000">
        <ele>368.90</ele>
        <time>2014-03-09T10:45:52Z</time>
      </trkpt>
      <trkpt lat="41.634991000" lon="1.912316000">
        <ele>369.00</ele>
        <time>2014-03-09T10:45:54Z</time>
      </trkpt>
      <trkpt lat="41.635097000" lon="1.912201000">
        <ele>368.70</ele>
        <time>2014-03-09T10:45:57Z</time>
      </trkpt>
      <trkpt lat="41.635221000" lon="1.912115000">
        <ele>368.40</ele>
        <time>2014-03-09T10:46:00Z</time>
      </trkpt>
      <trkpt lat="41.636011000" lon="1.911976000">
        <ele>365.60</ele>
        <time>2014-03-09T10:46:16Z</time>
      </trkpt>
      <trkpt lat="41.636380000" lon="1.911979000">
        <ele>362.50</ele>
        <time>2014-03-09T10:46:21Z</time>
      </trkpt>
      <trkpt lat="41.636645000" lon="1.911985000">
        <ele>358.80</ele>
        <time>2014-03-09T10:46:24Z</time>
      </trkpt>
      <trkpt lat="41.636736000" lon="1.911983000">
        <ele>358.50</ele>
        <time>2014-03-09T10:46:25Z</time>
      </trkpt>
      <trkpt lat="41.636828000" lon="1.911975000">
        <ele>358.00</ele>
        <time>2014-03-09T10:46:26Z</time>
      </trkpt>
      <trkpt lat="41.637119000" lon="1.911903000">
        <ele>354.90</ele>
        <time>2014-03-09T10:46:29Z</time>
      </trkpt>
      <trkpt lat="41.637419000" lon="1.911944000">
        <ele>352.20</ele>
        <time>2014-03-09T10:46:32Z</time>
      </trkpt>
      <trkpt lat="41.637703000" lon="1.911611000">
        <ele>350.80</ele>
        <time>2014-03-09T10:46:37Z</time>
      </trkpt>
      <trkpt lat="41.637585000" lon="1.911294000">
        <ele>349.40</ele>
        <time>2014-03-09T10:46:40Z</time>
      </trkpt>
      <trkpt lat="41.637518000" lon="1.911210000">
        <ele>348.60</ele>
        <time>2014-03-09T10:46:41Z</time>
      </trkpt>
      <trkpt lat="41.637208000" lon="1.910872000">
        <ele>345.80</ele>
        <time>2014-03-09T10:46:45Z</time>
      </trkpt>
      <trkpt lat="41.637125000" lon="1.910781000">
        <ele>345.30</ele>
        <time>2014-03-09T10:46:46Z</time>
      </trkpt>
      <trkpt lat="41.636996000" lon="1.910313000">
        <ele>342.90</ele>
        <time>2014-03-09T10:46:50Z</time>
      </trkpt>
      <trkpt lat="41.636744000" lon="1.909801000">
        <ele>339.20</ele>
        <time>2014-03-09T10:46:56Z</time>
      </trkpt>
      <trkpt lat="41.636577000" lon="1.909878000">
        <ele>337.50</ele>
        <time>2014-03-09T10:46:58Z</time>
      </trkpt>
      <trkpt lat="41.636294000" lon="1.909916000">
        <ele>335.30</ele>
        <time>2014-03-09T10:47:01Z</time>
      </trkpt>
      <trkpt lat="41.636131000" lon="1.909773000">
        <ele>333.90</ele>
        <time>2014-03-09T10:47:03Z</time>
      </trkpt>
      <trkpt lat="41.636110000" lon="1.909316000">
        <ele>333.30</ele>
        <time>2014-03-09T10:47:08Z</time>
      </trkpt>
      <trkpt lat="41.636219000" lon="1.909156000">
        <ele>331.70</ele>
        <time>2014-03-09T10:47:10Z</time>
      </trkpt>
      <trkpt lat="41.636293000" lon="1.908966000">
        <ele>331.00</ele>
        <time>2014-03-09T10:47:12Z</time>
      </trkpt>
      <trkpt lat="41.636285000" lon="1.908541000">
        <ele>328.80</ele>
        <time>2014-03-09T10:47:16Z</time>
      </trkpt>
      <trkpt lat="41.636411000" lon="1.907968000">
        <ele>324.40</ele>
        <time>2014-03-09T10:47:22Z</time>
      </trkpt>
      <trkpt lat="41.636364000" lon="1.907434000">
        <ele>320.60</ele>
        <time>2014-03-09T10:47:27Z</time>
      </trkpt>
      <trkpt lat="41.636283000" lon="1.907348000">
        <ele>319.90</ele>
        <time>2014-03-09T10:47:28Z</time>
      </trkpt>
      <trkpt lat="41.636167000" lon="1.907168000">
        <ele>319.30</ele>
        <time>2014-03-09T10:47:30Z</time>
      </trkpt>
      <trkpt lat="41.636181000" lon="1.906869000">
        <ele>317.70</ele>
        <time>2014-03-09T10:47:33Z</time>
      </trkpt>
      <trkpt lat="41.636373000" lon="1.906865000">
        <ele>316.70</ele>
        <time>2014-03-09T10:47:36Z</time>
      </trkpt>
      <trkpt lat="41.636567000" lon="1.906982000">
        <ele>315.30</ele>
        <time>2014-03-09T10:47:39Z</time>
      </trkpt>
      <trkpt lat="41.636628000" lon="1.907016000">
        <ele>315.40</ele>
        <time>2014-03-09T10:47:40Z</time>
      </trkpt>
      <trkpt lat="41.636763000" lon="1.907122000">
        <ele>314.50</ele>
        <time>2014-03-09T10:47:43Z</time>
      </trkpt>
      <trkpt lat="41.636852000" lon="1.907287000">
        <ele>314.00</ele>
        <time>2014-03-09T10:47:47Z</time>
      </trkpt>
      <trkpt lat="41.636892000" lon="1.907464000">
        <ele>312.20</ele>
        <time>2014-03-09T10:47:51Z</time>
      </trkpt>
      <trkpt lat="41.636924000" lon="1.907767000">
        <ele>311.20</ele>
        <time>2014-03-09T10:48:03Z</time>
      </trkpt>
      <trkpt lat="41.636922000" lon="1.907768000">
        <ele>311.20</ele>
        <time>2014-03-09T10:48:56Z</time>
      </trkpt>
      <trkpt lat="41.636897000" lon="1.907781000">
        <ele>311.00</ele>
        <time>2014-03-09T10:49:35Z</time>
      </trkpt>
      <trkpt lat="41.636829000" lon="1.907836000">
        <ele>311.50</ele>
        <time>2014-03-09T10:49:41Z</time>
      </trkpt>
      <trkpt lat="41.636711000" lon="1.907938000">
        <ele>313.40</ele>
        <time>2014-03-09T10:49:57Z</time>
      </trkpt>
      <trkpt lat="41.636676000" lon="1.907924000">
        <ele>313.50</ele>
        <time>2014-03-09T10:50:17Z</time>
      </trkpt>
      <trkpt lat="41.636744000" lon="1.907850000">
        <ele>314.90</ele>
        <time>2014-03-09T12:14:37Z</time>
      </trkpt>
      <trkpt lat="41.636756000" lon="1.907854000">
        <ele>315.00</ele>
        <time>2014-03-09T12:14:38Z</time>
      </trkpt>
      <trkpt lat="41.636916000" lon="1.907722000">
        <ele>313.50</ele>
        <time>2014-03-09T12:14:46Z</time>
      </trkpt>
      <trkpt lat="41.636904000" lon="1.907535000">
        <ele>313.60</ele>
        <time>2014-03-09T12:14:55Z</time>
      </trkpt>
      <trkpt lat="41.636896000" lon="1.907466000">
        <ele>314.00</ele>
        <time>2014-03-09T12:14:59Z</time>
      </trkpt>
      <trkpt lat="41.636850000" lon="1.907367000">
        <ele>312.60</ele>
        <time>2014-03-09T12:15:07Z</time>
      </trkpt>
      <trkpt lat="41.636841000" lon="1.907293000">
        <ele>311.30</ele>
        <time>2014-03-09T12:15:12Z</time>
      </trkpt>
      <trkpt lat="41.636862000" lon="1.907172000">
        <ele>309.10</ele>
        <time>2014-03-09T12:15:25Z</time>
      </trkpt>
      <trkpt lat="41.636862000" lon="1.907149000">
        <ele>309.00</ele>
        <time>2014-03-09T12:15:26Z</time>
      </trkpt>
      <trkpt lat="41.636814000" lon="1.907070000">
        <ele>308.70</ele>
        <time>2014-03-09T12:15:30Z</time>
      </trkpt>
      <trkpt lat="41.636737000" lon="1.907011000">
        <ele>308.40</ele>
        <time>2014-03-09T12:15:36Z</time>
      </trkpt>
      <trkpt lat="41.636356000" lon="1.906756000">
        <ele>308.60</ele>
        <time>2014-03-09T12:15:53Z</time>
      </trkpt>
      <trkpt lat="41.636120000" lon="1.906788000">
        <ele>309.90</ele>
        <time>2014-03-09T12:16:05Z</time>
      </trkpt>
      <trkpt lat="41.636051000" lon="1.906987000">
        <ele>310.50</ele>
        <time>2014-03-09T12:16:15Z</time>
      </trkpt>
      <trkpt lat="41.635983000" lon="1.907007000">
        <ele>311.50</ele>
        <time>2014-03-09T12:16:21Z</time>
      </trkpt>
      <trkpt lat="41.635810000" lon="1.906781000">
        <ele>314.90</ele>
        <time>2014-03-09T12:16:34Z</time>
      </trkpt>
      <trkpt lat="41.635647000" lon="1.906558000">
        <ele>318.20</ele>
        <time>2014-03-09T12:16:49Z</time>
      </trkpt>
      <trkpt lat="41.635592000" lon="1.906467000">
        <ele>319.40</ele>
        <time>2014-03-09T12:16:55Z</time>
      </trkpt>
      <trkpt lat="41.635576000" lon="1.906407000">
        <ele>320.20</ele>
        <time>2014-03-09T12:16:59Z</time>
      </trkpt>
      <trkpt lat="41.635572000" lon="1.906353000">
        <ele>323.60</ele>
        <time>2014-03-09T12:17:02Z</time>
      </trkpt>
      <trkpt lat="41.635572000" lon="1.906335000">
        <ele>321.60</ele>
        <time>2014-03-09T12:17:03Z</time>
      </trkpt>
      <trkpt lat="41.635631000" lon="1.906079000">
        <ele>323.90</ele>
        <time>2014-03-09T12:17:16Z</time>
      </trkpt>
      <trkpt lat="41.635687000" lon="1.905884000">
        <ele>327.30</ele>
        <time>2014-03-09T12:17:26Z</time>
      </trkpt>
      <trkpt lat="41.635769000" lon="1.905725000">
        <ele>330.60</ele>
        <time>2014-03-09T12:17:36Z</time>
      </trkpt>
      <trkpt lat="41.635873000" lon="1.905568000">
        <ele>333.50</ele>
        <time>2014-03-09T12:17:48Z</time>
      </trkpt>
      <trkpt lat="41.635891000" lon="1.905538000">
        <ele>333.90</ele>
        <time>2014-03-09T12:17:50Z</time>
      </trkpt>
      <trkpt lat="41.636008000" lon="1.905523000">
        <ele>333.50</ele>
        <time>2014-03-09T12:18:04Z</time>
      </trkpt>
      <trkpt lat="41.636205000" lon="1.905543000">
        <ele>334.20</ele>
        <time>2014-03-09T12:18:20Z</time>
      </trkpt>
      <trkpt lat="41.636325000" lon="1.905571000">
        <ele>334.00</ele>
        <time>2014-03-09T12:18:27Z</time>
      </trkpt>
      <trkpt lat="41.636343000" lon="1.905543000">
        <ele>334.00</ele>
        <time>2014-03-09T12:18:29Z</time>
      </trkpt>
      <trkpt lat="41.636306000" lon="1.905509000">
        <ele>333.70</ele>
        <time>2014-03-09T12:18:33Z</time>
      </trkpt>
      <trkpt lat="41.635948000" lon="1.905524000">
        <ele>334.50</ele>
        <time>2014-03-09T12:18:51Z</time>
      </trkpt>
      <trkpt lat="41.635665000" lon="1.905527000">
        <ele>336.10</ele>
        <time>2014-03-09T12:19:06Z</time>
      </trkpt>
      <trkpt lat="41.635369000" lon="1.905694000">
        <ele>339.00</ele>
        <time>2014-03-09T12:19:27Z</time>
      </trkpt>
      <trkpt lat="41.635225000" lon="1.905742000">
        <ele>341.10</ele>
        <time>2014-03-09T12:19:38Z</time>
      </trkpt>
      <trkpt lat="41.635203000" lon="1.905670000">
        <ele>342.00</ele>
        <time>2014-03-09T12:19:44Z</time>
      </trkpt>
      <trkpt lat="41.635304000" lon="1.905604000">
        <ele>342.60</ele>
        <time>2014-03-09T12:19:51Z</time>
      </trkpt>
      <trkpt lat="41.635568000" lon="1.905327000">
        <ele>344.20</ele>
        <time>2014-03-09T12:20:11Z</time>
      </trkpt>
      <trkpt lat="41.635826000" lon="1.905204000">
        <ele>346.70</ele>
        <time>2014-03-09T12:20:28Z</time>
      </trkpt>
      <trkpt lat="41.635940000" lon="1.905203000">
        <ele>348.10</ele>
        <time>2014-03-09T12:20:35Z</time>
      </trkpt>
      <trkpt lat="41.636017000" lon="1.905078000">
        <ele>349.40</ele>
        <time>2014-03-09T12:20:43Z</time>
      </trkpt>
      <trkpt lat="41.635906000" lon="1.904649000">
        <ele>351.60</ele>
        <time>2014-03-09T12:21:01Z</time>
      </trkpt>
      <trkpt lat="41.635868000" lon="1.904300000">
        <ele>354.70</ele>
        <time>2014-03-09T12:21:16Z</time>
      </trkpt>
      <trkpt lat="41.635890000" lon="1.904214000">
        <ele>356.30</ele>
        <time>2014-03-09T12:21:20Z</time>
      </trkpt>
      <trkpt lat="41.635893000" lon="1.903981000">
        <ele>358.70</ele>
        <time>2014-03-09T12:21:30Z</time>
      </trkpt>
      <trkpt lat="41.635937000" lon="1.903569000">
        <ele>361.50</ele>
        <time>2014-03-09T12:21:46Z</time>
      </trkpt>
      <trkpt lat="41.635911000" lon="1.903073000">
        <ele>362.80</ele>
        <time>2014-03-09T12:22:02Z</time>
      </trkpt>
      <trkpt lat="41.635955000" lon="1.902538000">
        <ele>365.10</ele>
        <time>2014-03-09T12:22:19Z</time>
      </trkpt>
      <trkpt lat="41.636049000" lon="1.902360000">
        <ele>367.20</ele>
        <time>2014-03-09T12:22:26Z</time>
      </trkpt>
      <trkpt lat="41.635917000" lon="1.902129000">
        <ele>369.70</ele>
        <time>2014-03-09T12:22:38Z</time>
      </trkpt>
      <trkpt lat="41.635693000" lon="1.901916000">
        <ele>370.40</ele>
        <time>2014-03-09T12:22:50Z</time>
      </trkpt>
      <trkpt lat="41.635596000" lon="1.901507000">
        <ele>371.50</ele>
        <time>2014-03-09T12:23:02Z</time>
      </trkpt>
      <trkpt lat="41.635556000" lon="1.901418000">
        <ele>369.40</ele>
        <time>2014-03-09T12:23:04Z</time>
      </trkpt>
      <trkpt lat="41.635308000" lon="1.901327000">
        <ele>370.40</ele>
        <time>2014-03-09T12:23:10Z</time>
      </trkpt>
      <trkpt lat="41.635039000" lon="1.901350000">
        <ele>371.30</ele>
        <time>2014-03-09T12:23:19Z</time>
      </trkpt>
      <trkpt lat="41.634967000" lon="1.901140000">
        <ele>372.10</ele>
        <time>2014-03-09T12:23:25Z</time>
      </trkpt>
      <trkpt lat="41.635216000" lon="1.900643000">
        <ele>369.50</ele>
        <time>2014-03-09T12:23:36Z</time>
      </trkpt>
      <trkpt lat="41.635342000" lon="1.900420000">
        <ele>369.40</ele>
        <time>2014-03-09T12:23:40Z</time>
      </trkpt>
      <trkpt lat="41.635435000" lon="1.900176000">
        <ele>367.80</ele>
        <time>2014-03-09T12:23:44Z</time>
      </trkpt>
      <trkpt lat="41.635520000" lon="1.899591000">
        <ele>367.40</ele>
        <time>2014-03-09T12:23:52Z</time>
      </trkpt>
      <trkpt lat="41.635416000" lon="1.899319000">
        <ele>367.40</ele>
        <time>2014-03-09T12:23:58Z</time>
      </trkpt>
      <trkpt lat="41.634883000" lon="1.899149000">
        <ele>369.40</ele>
        <time>2014-03-09T12:24:15Z</time>
      </trkpt>
      <trkpt lat="41.634587000" lon="1.899216000">
        <ele>369.80</ele>
        <time>2014-03-09T12:24:29Z</time>
      </trkpt>
      <trkpt lat="41.634563000" lon="1.899229000">
        <ele>369.90</ele>
        <time>2014-03-09T12:24:30Z</time>
      </trkpt>
      <trkpt lat="41.634216000" lon="1.899419000">
        <ele>371.60</ele>
        <time>2014-03-09T12:24:45Z</time>
      </trkpt>
      <trkpt lat="41.634195000" lon="1.899430000">
        <ele>371.80</ele>
        <time>2014-03-09T12:24:46Z</time>
      </trkpt>
      <trkpt lat="41.634061000" lon="1.899199000">
        <ele>371.70</ele>
        <time>2014-03-09T12:24:53Z</time>
      </trkpt>
      <trkpt lat="41.634071000" lon="1.899161000">
        <ele>371.80</ele>
        <time>2014-03-09T12:24:54Z</time>
      </trkpt>
      <trkpt lat="41.634396000" lon="1.898585000">
        <ele>369.30</ele>
        <time>2014-03-09T12:25:08Z</time>
      </trkpt>
      <trkpt lat="41.634667000" lon="1.898296000">
        <ele>367.30</ele>
        <time>2014-03-09T12:25:15Z</time>
      </trkpt>
      <trkpt lat="41.634697000" lon="1.897889000">
        <ele>368.10</ele>
        <time>2014-03-09T12:25:23Z</time>
      </trkpt>
      <trkpt lat="41.634556000" lon="1.897739000">
        <ele>365.10</ele>
        <time>2014-03-09T12:25:26Z</time>
      </trkpt>
      <trkpt lat="41.634448000" lon="1.897623000">
        <ele>364.20</ele>
        <time>2014-03-09T12:25:28Z</time>
      </trkpt>
      <trkpt lat="41.634204000" lon="1.897344000">
        <ele>363.70</ele>
        <time>2014-03-09T12:25:33Z</time>
      </trkpt>
      <trkpt lat="41.634099000" lon="1.897192000">
        <ele>362.40</ele>
        <time>2014-03-09T12:25:36Z</time>
      </trkpt>
      <trkpt lat="41.633980000" lon="1.897248000">
        <ele>362.70</ele>
        <time>2014-03-09T12:25:48Z</time>
      </trkpt>
      <trkpt lat="41.633966000" lon="1.897259000">
        <ele>362.20</ele>
        <time>2014-03-09T12:25:51Z</time>
      </trkpt>
      <trkpt lat="41.633787000" lon="1.897512000">
        <ele>361.00</ele>
        <time>2014-03-09T12:25:59Z</time>
      </trkpt>
      <trkpt lat="41.633664000" lon="1.897803000">
        <ele>361.10</ele>
        <time>2014-03-09T12:26:04Z</time>
      </trkpt>
      <trkpt lat="41.633565000" lon="1.898113000">
        <ele>362.80</ele>
        <time>2014-03-09T12:26:09Z</time>
      </trkpt>
      <trkpt lat="41.633222000" lon="1.898359000">
        <ele>364.80</ele>
        <time>2014-03-09T12:26:18Z</time>
      </trkpt>
      <trkpt lat="41.633094000" lon="1.898216000">
        <ele>365.30</ele>
        <time>2014-03-09T12:26:22Z</time>
      </trkpt>
      <trkpt lat="41.633045000" lon="1.898073000">
        <ele>365.10</ele>
        <time>2014-03-09T12:26:25Z</time>
      </trkpt>
      <trkpt lat="41.633000000" lon="1.897839000">
        <ele>363.60</ele>
        <time>2014-03-09T12:26:29Z</time>
      </trkpt>
      <trkpt lat="41.632971000" lon="1.897377000">
        <ele>363.10</ele>
        <time>2014-03-09T12:26:36Z</time>
      </trkpt>
      <trkpt lat="41.632863000" lon="1.897149000">
        <ele>363.10</ele>
        <time>2014-03-09T12:26:41Z</time>
      </trkpt>
      <trkpt lat="41.632493000" lon="1.896910000">
        <ele>364.30</ele>
        <time>2014-03-09T12:26:52Z</time>
      </trkpt>
      <trkpt lat="41.632513000" lon="1.896701000">
        <ele>360.50</ele>
        <time>2014-03-09T12:26:56Z</time>
      </trkpt>
      <trkpt lat="41.632587000" lon="1.896555000">
        <ele>358.20</ele>
        <time>2014-03-09T12:26:58Z</time>
      </trkpt>
      <trkpt lat="41.632859000" lon="1.895949000">
        <ele>353.40</ele>
        <time>2014-03-09T12:27:05Z</time>
      </trkpt>
      <trkpt lat="41.632868000" lon="1.895697000">
        <ele>351.90</ele>
        <time>2014-03-09T12:27:08Z</time>
      </trkpt>
      <trkpt lat="41.632760000" lon="1.895591000">
        <ele>353.10</ele>
        <time>2014-03-09T12:27:11Z</time>
      </trkpt>
      <trkpt lat="41.632593000" lon="1.895543000">
        <ele>353.70</ele>
        <time>2014-03-09T12:27:15Z</time>
      </trkpt>
      <trkpt lat="41.632470000" lon="1.895528000">
        <ele>354.70</ele>
        <time>2014-03-09T12:27:18Z</time>
      </trkpt>
      <trkpt lat="41.632114000" lon="1.895392000">
        <ele>354.70</ele>
        <time>2014-03-09T12:27:27Z</time>
      </trkpt>
      <trkpt lat="41.631884000" lon="1.895530000">
        <ele>358.30</ele>
        <time>2014-03-09T12:27:35Z</time>
      </trkpt>
      <trkpt lat="41.631860000" lon="1.895549000">
        <ele>358.60</ele>
        <time>2014-03-09T12:27:36Z</time>
      </trkpt>
      <trkpt lat="41.631698000" lon="1.895655000">
        <ele>361.00</ele>
        <time>2014-03-09T12:27:42Z</time>
      </trkpt>
      <trkpt lat="41.631502000" lon="1.895592000">
        <ele>364.80</ele>
        <time>2014-03-09T12:27:52Z</time>
      </trkpt>
      <trkpt lat="41.631477000" lon="1.895587000">
        <ele>364.80</ele>
        <time>2014-03-09T12:27:55Z</time>
      </trkpt>
      <trkpt lat="41.631438000" lon="1.895582000">
        <ele>365.10</ele>
        <time>2014-03-09T12:27:58Z</time>
      </trkpt>
      <trkpt lat="41.631388000" lon="1.895642000">
        <ele>365.90</ele>
        <time>2014-03-09T12:28:02Z</time>
      </trkpt>
      <trkpt lat="41.631315000" lon="1.895635000">
        <ele>367.90</ele>
        <time>2014-03-09T12:28:08Z</time>
      </trkpt>
      <trkpt lat="41.631304000" lon="1.895603000">
        <ele>367.50</ele>
        <time>2014-03-09T12:28:10Z</time>
      </trkpt>
      <trkpt lat="41.631227000" lon="1.895505000">
        <ele>367.80</ele>
        <time>2014-03-09T12:28:16Z</time>
      </trkpt>
      <trkpt lat="41.631161000" lon="1.895385000">
        <ele>368.40</ele>
        <time>2014-03-09T12:28:22Z</time>
      </trkpt>
      <trkpt lat="41.631148000" lon="1.895338000">
        <ele>367.20</ele>
        <time>2014-03-09T12:28:24Z</time>
      </trkpt>
      <trkpt lat="41.631076000" lon="1.895212000">
        <ele>367.30</ele>
        <time>2014-03-09T12:28:29Z</time>
      </trkpt>
      <trkpt lat="41.630993000" lon="1.895152000">
        <ele>366.40</ele>
        <time>2014-03-09T12:28:33Z</time>
      </trkpt>
      <trkpt lat="41.630941000" lon="1.895073000">
        <ele>366.70</ele>
        <time>2014-03-09T12:28:37Z</time>
      </trkpt>
      <trkpt lat="41.630845000" lon="1.894850000">
        <ele>369.30</ele>
        <time>2014-03-09T12:28:50Z</time>
      </trkpt>
      <trkpt lat="41.630696000" lon="1.894833000">
        <ele>371.60</ele>
        <time>2014-03-09T12:29:01Z</time>
      </trkpt>
      <trkpt lat="41.630678000" lon="1.894822000">
        <ele>372.40</ele>
        <time>2014-03-09T12:29:03Z</time>
      </trkpt>
      <trkpt lat="41.630593000" lon="1.894801000">
        <ele>374.60</ele>
        <time>2014-03-09T12:29:14Z</time>
      </trkpt>
      <trkpt lat="41.630568000" lon="1.894754000">
        <ele>375.90</ele>
        <time>2014-03-09T12:29:28Z</time>
      </trkpt>
      <trkpt lat="41.630541000" lon="1.894660000">
        <ele>375.50</ele>
        <time>2014-03-09T12:29:41Z</time>
      </trkpt>
      <trkpt lat="41.630516000" lon="1.894637000">
        <ele>375.10</ele>
        <time>2014-03-09T12:29:42Z</time>
      </trkpt>
      <trkpt lat="41.630472000" lon="1.894447000">
        <ele>375.40</ele>
        <time>2014-03-09T12:29:48Z</time>
      </trkpt>
      <trkpt lat="41.630512000" lon="1.894265000">
        <ele>376.60</ele>
        <time>2014-03-09T12:29:55Z</time>
      </trkpt>
      <trkpt lat="41.630593000" lon="1.893918000">
        <ele>377.40</ele>
        <time>2014-03-09T12:30:07Z</time>
      </trkpt>
      <trkpt lat="41.630565000" lon="1.893822000">
        <ele>376.70</ele>
        <time>2014-03-09T12:30:10Z</time>
      </trkpt>
      <trkpt lat="41.630567000" lon="1.893708000">
        <ele>376.90</ele>
        <time>2014-03-09T12:30:13Z</time>
      </trkpt>
      <trkpt lat="41.630546000" lon="1.893594000">
        <ele>376.90</ele>
        <time>2014-03-09T12:30:16Z</time>
      </trkpt>
      <trkpt lat="41.630484000" lon="1.893339000">
        <ele>377.50</ele>
        <time>2014-03-09T12:30:24Z</time>
      </trkpt>
      <trkpt lat="41.630208000" lon="1.893007000">
        <ele>380.80</ele>
        <time>2014-03-09T12:30:42Z</time>
      </trkpt>
      <trkpt lat="41.630003000" lon="1.892629000">
        <ele>382.90</ele>
        <time>2014-03-09T12:30:59Z</time>
      </trkpt>
      <trkpt lat="41.629890000" lon="1.892325000">
        <ele>384.50</ele>
        <time>2014-03-09T12:31:12Z</time>
      </trkpt>
      <trkpt lat="41.629876000" lon="1.892117000">
        <ele>385.20</ele>
        <time>2014-03-09T12:31:22Z</time>
      </trkpt>
      <trkpt lat="41.629874000" lon="1.892013000">
        <ele>385.40</ele>
        <time>2014-03-09T12:31:40Z</time>
      </trkpt>
      <trkpt lat="41.629830000" lon="1.891947000">
        <ele>385.20</ele>
        <time>2014-03-09T12:31:44Z</time>
      </trkpt>
      <trkpt lat="41.629667000" lon="1.891698000">
        <ele>388.00</ele>
        <time>2014-03-09T12:31:57Z</time>
      </trkpt>
      <trkpt lat="41.629575000" lon="1.891620000">
        <ele>389.50</ele>
        <time>2014-03-09T12:32:02Z</time>
      </trkpt>
      <trkpt lat="41.629344000" lon="1.891530000">
        <ele>392.90</ele>
        <time>2014-03-09T12:32:12Z</time>
      </trkpt>
      <trkpt lat="41.629276000" lon="1.891497000">
        <ele>394.20</ele>
        <time>2014-03-09T12:32:15Z</time>
      </trkpt>
      <trkpt lat="41.629138000" lon="1.891373000">
        <ele>397.20</ele>
        <time>2014-03-09T12:32:22Z</time>
      </trkpt>
      <trkpt lat="41.629130000" lon="1.891345000">
        <ele>397.50</ele>
        <time>2014-03-09T12:32:23Z</time>
      </trkpt>
      <trkpt lat="41.629254000" lon="1.890954000">
        <ele>399.40</ele>
        <time>2014-03-09T12:32:36Z</time>
      </trkpt>
      <trkpt lat="41.629345000" lon="1.890679000">
        <ele>401.40</ele>
        <time>2014-03-09T12:32:45Z</time>
      </trkpt>
      <trkpt lat="41.629350000" lon="1.890286000">
        <ele>401.40</ele>
        <time>2014-03-09T12:32:59Z</time>
      </trkpt>
      <trkpt lat="41.629086000" lon="1.889723000">
        <ele>400.70</ele>
        <time>2014-03-09T12:33:12Z</time>
      </trkpt>
      <trkpt lat="41.628915000" lon="1.888992000">
        <ele>400.30</ele>
        <time>2014-03-09T12:33:27Z</time>
      </trkpt>
      <trkpt lat="41.628848000" lon="1.888646000">
        <ele>403.00</ele>
        <time>2014-03-09T12:33:35Z</time>
      </trkpt>
      <trkpt lat="41.628763000" lon="1.888156000">
        <ele>403.90</ele>
        <time>2014-03-09T12:33:47Z</time>
      </trkpt>
      <trkpt lat="41.628819000" lon="1.887810000">
        <ele>407.30</ele>
        <time>2014-03-09T12:33:56Z</time>
      </trkpt>
      <trkpt lat="41.629006000" lon="1.887434000">
        <ele>408.80</ele>
        <time>2014-03-09T12:34:08Z</time>
      </trkpt>
      <trkpt lat="41.629354000" lon="1.887152000">
        <ele>410.60</ele>
        <time>2014-03-09T12:34:23Z</time>
      </trkpt>
      <trkpt lat="41.629738000" lon="1.886787000">
        <ele>411.90</ele>
        <time>2014-03-09T12:34:39Z</time>
      </trkpt>
      <trkpt lat="41.629927000" lon="1.886807000">
        <ele>410.80</ele>
        <time>2014-03-09T12:34:44Z</time>
      </trkpt>
      <trkpt lat="41.630249000" lon="1.886629000">
        <ele>409.40</ele>
        <time>2014-03-09T12:34:55Z</time>
      </trkpt>
      <trkpt lat="41.630275000" lon="1.886634000">
        <ele>409.00</ele>
        <time>2014-03-09T12:35:14Z</time>
      </trkpt>
      <trkpt lat="41.630350000" lon="1.886544000">
        <ele>407.40</ele>
        <time>2014-03-09T12:35:18Z</time>
      </trkpt>
      <trkpt lat="41.630714000" lon="1.886464000">
        <ele>401.80</ele>
        <time>2014-03-09T12:35:25Z</time>
      </trkpt>
      <trkpt lat="41.631009000" lon="1.886159000">
        <ele>398.50</ele>
        <time>2014-03-09T12:35:32Z</time>
      </trkpt>
      <trkpt lat="41.631023000" lon="1.886087000">
        <ele>398.50</ele>
        <time>2014-03-09T12:35:33Z</time>
      </trkpt>
      <trkpt lat="41.631034000" lon="1.886009000">
        <ele>397.40</ele>
        <time>2014-03-09T12:35:34Z</time>
      </trkpt>
      <trkpt lat="41.631059000" lon="1.885619000">
        <ele>396.90</ele>
        <time>2014-03-09T12:35:39Z</time>
      </trkpt>
      <trkpt lat="41.631149000" lon="1.885438000">
        <ele>396.70</ele>
        <time>2014-03-09T12:35:46Z</time>
      </trkpt>
      <trkpt lat="41.631150000" lon="1.885420000">
        <ele>396.60</ele>
        <time>2014-03-09T12:36:13Z</time>
      </trkpt>
      <trkpt lat="41.631143000" lon="1.885406000">
        <ele>396.00</ele>
        <time>2014-03-09T12:36:25Z</time>
      </trkpt>
      <trkpt lat="41.631136000" lon="1.885394000">
        <ele>396.00</ele>
        <time>2014-03-09T12:36:27Z</time>
      </trkpt>
      <trkpt lat="41.631102000" lon="1.885294000">
        <ele>396.30</ele>
        <time>2014-03-09T12:36:32Z</time>
      </trkpt>
      <trkpt lat="41.631045000" lon="1.885026000">
        <ele>395.60</ele>
        <time>2014-03-09T12:36:40Z</time>
      </trkpt>
      <trkpt lat="41.631231000" lon="1.885005000">
        <ele>392.70</ele>
        <time>2014-03-09T12:36:46Z</time>
      </trkpt>
      <trkpt lat="41.631313000" lon="1.885131000">
        <ele>390.80</ele>
        <time>2014-03-09T12:36:48Z</time>
      </trkpt>
      <trkpt lat="41.631638000" lon="1.885274000">
        <ele>387.80</ele>
        <time>2014-03-09T12:36:53Z</time>
      </trkpt>
      <trkpt lat="41.631748000" lon="1.885365000">
        <ele>384.60</ele>
        <time>2014-03-09T12:36:55Z</time>
      </trkpt>
      <trkpt lat="41.631918000" lon="1.885372000">
        <ele>382.50</ele>
        <time>2014-03-09T12:36:58Z</time>
      </trkpt>
      <trkpt lat="41.631977000" lon="1.885247000">
        <ele>378.80</ele>
        <time>2014-03-09T12:37:00Z</time>
      </trkpt>
      <trkpt lat="41.631982000" lon="1.885179000">
        <ele>378.70</ele>
        <time>2014-03-09T12:37:01Z</time>
      </trkpt>
      <trkpt lat="41.631944000" lon="1.885033000">
        <ele>375.90</ele>
        <time>2014-03-09T12:37:03Z</time>
      </trkpt>
      <trkpt lat="41.631882000" lon="1.884878000">
        <ele>373.80</ele>
        <time>2014-03-09T12:37:05Z</time>
      </trkpt>
      <trkpt lat="41.631885000" lon="1.884690000">
        <ele>371.50</ele>
        <time>2014-03-09T12:37:07Z</time>
      </trkpt>
      <trkpt lat="41.631945000" lon="1.884537000">
        <ele>372.20</ele>
        <time>2014-03-09T12:37:09Z</time>
      </trkpt>
      <trkpt lat="41.632055000" lon="1.884368000">
        <ele>373.00</ele>
        <time>2014-03-09T12:37:12Z</time>
      </trkpt>
      <trkpt lat="41.632129000" lon="1.884123000">
        <ele>371.70</ele>
        <time>2014-03-09T12:37:15Z</time>
      </trkpt>
      <trkpt lat="41.632128000" lon="1.884047000">
        <ele>371.40</ele>
        <time>2014-03-09T12:37:16Z</time>
      </trkpt>
      <trkpt lat="41.632125000" lon="1.883908000">
        <ele>373.00</ele>
        <time>2014-03-09T12:37:18Z</time>
      </trkpt>
      <trkpt lat="41.632348000" lon="1.883546000">
        <ele>370.70</ele>
        <time>2014-03-09T12:37:24Z</time>
      </trkpt>
      <trkpt lat="41.632429000" lon="1.883425000">
        <ele>369.90</ele>
        <time>2014-03-09T12:37:26Z</time>
      </trkpt>
      <trkpt lat="41.632642000" lon="1.883446000">
        <ele>365.30</ele>
        <time>2014-03-09T12:37:32Z</time>
      </trkpt>
      <trkpt lat="41.632877000" lon="1.884093000">
        <ele>368.80</ele>
        <time>2014-03-09T12:37:46Z</time>
      </trkpt>
      <trkpt lat="41.632967000" lon="1.884610000">
        <ele>371.40</ele>
        <time>2014-03-09T12:38:02Z</time>
      </trkpt>
      <trkpt lat="41.633083000" lon="1.884872000">
        <ele>371.80</ele>
        <time>2014-03-09T12:38:09Z</time>
      </trkpt>
      <trkpt lat="41.633278000" lon="1.884808000">
        <ele>371.50</ele>
        <time>2014-03-09T12:38:14Z</time>
      </trkpt>
      <trkpt lat="41.633390000" lon="1.884670000">
        <ele>371.90</ele>
        <time>2014-03-09T12:38:18Z</time>
      </trkpt>
      <trkpt lat="41.633578000" lon="1.884617000">
        <ele>370.00</ele>
        <time>2014-03-09T12:38:22Z</time>
      </trkpt>
      <trkpt lat="41.633766000" lon="1.884668000">
        <ele>366.70</ele>
        <time>2014-03-09T12:38:25Z</time>
      </trkpt>
      <trkpt lat="41.633945000" lon="1.884221000">
        <ele>364.70</ele>
        <time>2014-03-09T12:38:31Z</time>
      </trkpt>
      <trkpt lat="41.633891000" lon="1.883910000">
        <ele>362.20</ele>
        <time>2014-03-09T12:38:34Z</time>
      </trkpt>
      <trkpt lat="41.633946000" lon="1.883589000">
        <ele>361.00</ele>
        <time>2014-03-09T12:38:39Z</time>
      </trkpt>
      <trkpt lat="41.634056000" lon="1.883689000">
        <ele>359.20</ele>
        <time>2014-03-09T12:38:42Z</time>
      </trkpt>
      <trkpt lat="41.634098000" lon="1.883779000">
        <ele>359.50</ele>
        <time>2014-03-09T12:38:44Z</time>
      </trkpt>
      <trkpt lat="41.634155000" lon="1.883873000">
        <ele>359.50</ele>
        <time>2014-03-09T12:38:46Z</time>
      </trkpt>
      <trkpt lat="41.634354000" lon="1.883933000">
        <ele>355.80</ele>
        <time>2014-03-09T12:38:50Z</time>
      </trkpt>
      <trkpt lat="41.634421000" lon="1.883895000">
        <ele>353.20</ele>
        <time>2014-03-09T12:38:51Z</time>
      </trkpt>
      <trkpt lat="41.634561000" lon="1.883810000">
        <ele>352.30</ele>
        <time>2014-03-09T12:38:53Z</time>
      </trkpt>
      <trkpt lat="41.634950000" lon="1.883586000">
        <ele>348.80</ele>
        <time>2014-03-09T12:39:00Z</time>
      </trkpt>
      <trkpt lat="41.634939000" lon="1.883418000">
        <ele>348.40</ele>
        <time>2014-03-09T12:39:02Z</time>
      </trkpt>
      <trkpt lat="41.634902000" lon="1.883149000">
        <ele>346.60</ele>
        <time>2014-03-09T12:39:05Z</time>
      </trkpt>
      <trkpt lat="41.635075000" lon="1.882512000">
        <ele>346.00</ele>
        <time>2014-03-09T12:39:13Z</time>
      </trkpt>
      <trkpt lat="41.635179000" lon="1.882481000">
        <ele>343.70</ele>
        <time>2014-03-09T12:39:15Z</time>
      </trkpt>
      <trkpt lat="41.635305000" lon="1.882478000">
        <ele>342.40</ele>
        <time>2014-03-09T12:39:17Z</time>
      </trkpt>
      <trkpt lat="41.635456000" lon="1.882335000">
        <ele>340.80</ele>
        <time>2014-03-09T12:39:20Z</time>
      </trkpt>
      <trkpt lat="41.635500000" lon="1.882073000">
        <ele>340.10</ele>
        <time>2014-03-09T12:39:23Z</time>
      </trkpt>
      <trkpt lat="41.635511000" lon="1.881781000">
        <ele>340.10</ele>
        <time>2014-03-09T12:39:26Z</time>
      </trkpt>
      <trkpt lat="41.635654000" lon="1.881615000">
        <ele>341.10</ele>
        <time>2014-03-09T12:39:31Z</time>
      </trkpt>
      <trkpt lat="41.635728000" lon="1.881724000">
        <ele>339.90</ele>
        <time>2014-03-09T12:39:33Z</time>
      </trkpt>
      <trkpt lat="41.635803000" lon="1.881861000">
        <ele>339.10</ele>
        <time>2014-03-09T12:39:35Z</time>
      </trkpt>
      <trkpt lat="41.635903000" lon="1.881973000">
        <ele>339.70</ele>
        <time>2014-03-09T12:39:37Z</time>
      </trkpt>
      <trkpt lat="41.636130000" lon="1.882048000">
        <ele>340.40</ele>
        <time>2014-03-09T12:39:41Z</time>
      </trkpt>
      <trkpt lat="41.636242000" lon="1.882025000">
        <ele>341.60</ele>
        <time>2014-03-09T12:39:43Z</time>
      </trkpt>
      <trkpt lat="41.636352000" lon="1.882030000">
        <ele>342.00</ele>
        <time>2014-03-09T12:39:45Z</time>
      </trkpt>
      <trkpt lat="41.636648000" lon="1.881778000">
        <ele>339.70</ele>
        <time>2014-03-09T12:39:51Z</time>
      </trkpt>
      <trkpt lat="41.636815000" lon="1.881506000">
        <ele>337.50</ele>
        <time>2014-03-09T12:39:55Z</time>
      </trkpt>
      <trkpt lat="41.636953000" lon="1.881218000">
        <ele>337.10</ele>
        <time>2014-03-09T12:39:59Z</time>
      </trkpt>
      <trkpt lat="41.637031000" lon="1.881095000">
        <ele>338.30</ele>
        <time>2014-03-09T12:40:04Z</time>
      </trkpt>
      <trkpt lat="41.637054000" lon="1.881118000">
        <ele>338.00</ele>
        <time>2014-03-09T12:40:07Z</time>
      </trkpt>
      <trkpt lat="41.637033000" lon="1.881141000">
        <ele>337.60</ele>
        <time>2014-03-09T12:40:09Z</time>
      </trkpt>
      <trkpt lat="41.636993000" lon="1.881126000">
        <ele>338.20</ele>
        <time>2014-03-09T12:40:12Z</time>
      </trkpt>
      <trkpt lat="41.636952000" lon="1.881038000">
        <ele>338.20</ele>
        <time>2014-03-09T12:40:16Z</time>
      </trkpt>
      <trkpt lat="41.636907000" lon="1.880707000">
        <ele>336.70</ele>
        <time>2014-03-09T12:40:22Z</time>
      </trkpt>
      <trkpt lat="41.636893000" lon="1.880519000">
        <ele>335.90</ele>
        <time>2014-03-09T12:40:25Z</time>
      </trkpt>
      <trkpt lat="41.636742000" lon="1.880175000">
        <ele>334.70</ele>
        <time>2014-03-09T12:40:34Z</time>
      </trkpt>
      <trkpt lat="41.636683000" lon="1.880038000">
        <ele>332.90</ele>
        <time>2014-03-09T12:40:37Z</time>
      </trkpt>
      <trkpt lat="41.636678000" lon="1.879990000">
        <ele>332.60</ele>
        <time>2014-03-09T12:40:38Z</time>
      </trkpt>
      <trkpt lat="41.636671000" lon="1.879869000">
        <ele>330.80</ele>
        <time>2014-03-09T12:40:41Z</time>
      </trkpt>
      <trkpt lat="41.636650000" lon="1.879656000">
        <ele>328.80</ele>
        <time>2014-03-09T12:40:51Z</time>
      </trkpt>
      <trkpt lat="41.636605000" lon="1.879467000">
        <ele>326.40</ele>
        <time>2014-03-09T12:40:59Z</time>
      </trkpt>
      <trkpt lat="41.636568000" lon="1.879419000">
        <ele>325.50</ele>
        <time>2014-03-09T12:41:01Z</time>
      </trkpt>
      <trkpt lat="41.636363000" lon="1.879282000">
        <ele>324.20</ele>
        <time>2014-03-09T12:41:07Z</time>
      </trkpt>
      <trkpt lat="41.636166000" lon="1.879118000">
        <ele>322.90</ele>
        <time>2014-03-09T12:41:13Z</time>
      </trkpt>
      <trkpt lat="41.636102000" lon="1.879378000">
        <ele>321.80</ele>
        <time>2014-03-09T12:41:19Z</time>
      </trkpt>
      <trkpt lat="41.636280000" lon="1.879748000">
        <ele>322.30</ele>
        <time>2014-03-09T12:41:25Z</time>
      </trkpt>
      <trkpt lat="41.636321000" lon="1.880123000">
        <ele>321.90</ele>
        <time>2014-03-09T12:41:31Z</time>
      </trkpt>
      <trkpt lat="41.636285000" lon="1.880254000">
        <ele>321.00</ele>
        <time>2014-03-09T12:41:33Z</time>
      </trkpt>
      <trkpt lat="41.636405000" lon="1.880535000">
        <ele>321.20</ele>
        <time>2014-03-09T12:41:38Z</time>
      </trkpt>
      <trkpt lat="41.636311000" lon="1.880835000">
        <ele>320.70</ele>
        <time>2014-03-09T12:41:44Z</time>
      </trkpt>
      <trkpt lat="41.636259000" lon="1.880826000">
        <ele>320.60</ele>
        <time>2014-03-09T12:41:45Z</time>
      </trkpt>
      <trkpt lat="41.635945000" lon="1.881060000">
        <ele>321.60</ele>
        <time>2014-03-09T12:41:53Z</time>
      </trkpt>
      <trkpt lat="41.635846000" lon="1.880943000">
        <ele>321.00</ele>
        <time>2014-03-09T12:41:58Z</time>
      </trkpt>
      <trkpt lat="41.635806000" lon="1.880788000">
        <ele>318.30</ele>
        <time>2014-03-09T12:42:03Z</time>
      </trkpt>
      <trkpt lat="41.635919000" lon="1.880713000">
        <ele>315.90</ele>
        <time>2014-03-09T12:42:07Z</time>
      </trkpt>
      <trkpt lat="41.636046000" lon="1.880446000">
        <ele>312.80</ele>
        <time>2014-03-09T12:42:14Z</time>
      </trkpt>
      <trkpt lat="41.635886000" lon="1.880227000">
        <ele>310.00</ele>
        <time>2014-03-09T12:42:22Z</time>
      </trkpt>
      <trkpt lat="41.635884000" lon="1.880131000">
        <ele>309.00</ele>
        <time>2014-03-09T12:42:24Z</time>
      </trkpt>
      <trkpt lat="41.635889000" lon="1.880020000">
        <ele>308.70</ele>
        <time>2014-03-09T12:42:26Z</time>
      </trkpt>
      <trkpt lat="41.635721000" lon="1.879429000">
        <ele>304.60</ele>
        <time>2014-03-09T12:42:36Z</time>
      </trkpt>
      <trkpt lat="41.635674000" lon="1.879194000">
        <ele>303.50</ele>
        <time>2014-03-09T12:42:39Z</time>
      </trkpt>
      <trkpt lat="41.635522000" lon="1.878812000">
        <ele>301.20</ele>
        <time>2014-03-09T12:42:44Z</time>
      </trkpt>
      <trkpt lat="41.635362000" lon="1.878526000">
        <ele>299.70</ele>
        <time>2014-03-09T12:42:48Z</time>
      </trkpt>
      <trkpt lat="41.635228000" lon="1.878345000">
        <ele>298.30</ele>
        <time>2014-03-09T12:42:51Z</time>
      </trkpt>
      <trkpt lat="41.635135000" lon="1.878232000">
        <ele>297.40</ele>
        <time>2014-03-09T12:42:53Z</time>
      </trkpt>
      <trkpt lat="41.634972000" lon="1.877930000">
        <ele>298.10</ele>
        <time>2014-03-09T12:42:58Z</time>
      </trkpt>
      <trkpt lat="41.634900000" lon="1.877515000">
        <ele>298.00</ele>
        <time>2014-03-09T12:43:04Z</time>
      </trkpt>
      <trkpt lat="41.635143000" lon="1.877123000">
        <ele>295.80</ele>
        <time>2014-03-09T12:43:15Z</time>
      </trkpt>
      <trkpt lat="41.635172000" lon="1.877099000">
        <ele>295.50</ele>
        <time>2014-03-09T12:43:16Z</time>
      </trkpt>
      <trkpt lat="41.635242000" lon="1.877056000">
        <ele>293.70</ele>
        <time>2014-03-09T12:43:18Z</time>
      </trkpt>
      <trkpt lat="41.635525000" lon="1.877137000">
        <ele>289.80</ele>
        <time>2014-03-09T12:43:26Z</time>
      </trkpt>
      <trkpt lat="41.635590000" lon="1.877207000">
        <ele>288.90</ele>
        <time>2014-03-09T12:43:29Z</time>
      </trkpt>
      <trkpt lat="41.635733000" lon="1.877136000">
        <ele>286.10</ele>
        <time>2014-03-09T12:43:36Z</time>
      </trkpt>
      <trkpt lat="41.635788000" lon="1.877005000">
        <ele>285.10</ele>
        <time>2014-03-09T12:43:39Z</time>
      </trkpt>
      <trkpt lat="41.635757000" lon="1.876758000">
        <ele>283.20</ele>
        <time>2014-03-09T12:43:44Z</time>
      </trkpt>
      <trkpt lat="41.635571000" lon="1.876819000">
        <ele>281.30</ele>
        <time>2014-03-09T12:43:49Z</time>
      </trkpt>
      <trkpt lat="41.635300000" lon="1.876837000">
        <ele>282.90</ele>
        <time>2014-03-09T12:43:55Z</time>
      </trkpt>
      <trkpt lat="41.635142000" lon="1.876939000">
        <ele>283.40</ele>
        <time>2014-03-09T12:43:59Z</time>
      </trkpt>
      <trkpt lat="41.635010000" lon="1.877003000">
        <ele>283.70</ele>
        <time>2014-03-09T12:44:02Z</time>
      </trkpt>
      <trkpt lat="41.634861000" lon="1.877132000">
        <ele>284.40</ele>
        <time>2014-03-09T12:44:06Z</time>
      </trkpt>
      <trkpt lat="41.634773000" lon="1.877279000">
        <ele>283.60</ele>
        <time>2014-03-09T12:44:09Z</time>
      </trkpt>
      <trkpt lat="41.634707000" lon="1.877546000">
        <ele>284.50</ele>
        <time>2014-03-09T12:44:13Z</time>
      </trkpt>
      <trkpt lat="41.634714000" lon="1.877693000">
        <ele>285.10</ele>
        <time>2014-03-09T12:44:15Z</time>
      </trkpt>
      <trkpt lat="41.634735000" lon="1.877927000">
        <ele>284.10</ele>
        <time>2014-03-09T12:44:18Z</time>
      </trkpt>
      <trkpt lat="41.634716000" lon="1.878298000">
        <ele>285.10</ele>
        <time>2014-03-09T12:44:23Z</time>
      </trkpt>
      <trkpt lat="41.634489000" lon="1.878622000">
        <ele>284.60</ele>
        <time>2014-03-09T12:44:32Z</time>
      </trkpt>
      <trkpt lat="41.634414000" lon="1.878484000">
        <ele>285.10</ele>
        <time>2014-03-09T12:44:35Z</time>
      </trkpt>
      <trkpt lat="41.634231000" lon="1.878185000">
        <ele>287.10</ele>
        <time>2014-03-09T12:44:42Z</time>
      </trkpt>
      <trkpt lat="41.633958000" lon="1.878209000">
        <ele>288.50</ele>
        <time>2014-03-09T12:44:50Z</time>
      </trkpt>
      <trkpt lat="41.633859000" lon="1.878349000">
        <ele>286.50</ele>
        <time>2014-03-09T12:44:53Z</time>
      </trkpt>
      <trkpt lat="41.633724000" lon="1.878514000">
        <ele>284.80</ele>
        <time>2014-03-09T12:44:56Z</time>
      </trkpt>
      <trkpt lat="41.633531000" lon="1.878823000">
        <ele>283.30</ele>
        <time>2014-03-09T12:45:01Z</time>
      </trkpt>
      <trkpt lat="41.633275000" lon="1.879132000">
        <ele>281.40</ele>
        <time>2014-03-09T12:45:07Z</time>
      </trkpt>
      <trkpt lat="41.633125000" lon="1.879440000">
        <ele>282.50</ele>
        <time>2014-03-09T12:45:12Z</time>
      </trkpt>
      <trkpt lat="41.632889000" lon="1.879906000">
        <ele>284.40</ele>
        <time>2014-03-09T12:45:21Z</time>
      </trkpt>
      <trkpt lat="41.632740000" lon="1.880317000">
        <ele>285.80</ele>
        <time>2014-03-09T12:45:29Z</time>
      </trkpt>
      <trkpt lat="41.632454000" lon="1.880745000">
        <ele>287.30</ele>
        <time>2014-03-09T12:45:39Z</time>
      </trkpt>
      <trkpt lat="41.632224000" lon="1.880917000">
        <ele>288.00</ele>
        <time>2014-03-09T12:45:45Z</time>
      </trkpt>
      <trkpt lat="41.632141000" lon="1.880954000">
        <ele>288.00</ele>
        <time>2014-03-09T12:45:47Z</time>
      </trkpt>
      <trkpt lat="41.631674000" lon="1.881557000">
        <ele>291.40</ele>
        <time>2014-03-09T12:46:05Z</time>
      </trkpt>
      <trkpt lat="41.631481000" lon="1.881745000">
        <ele>291.40</ele>
        <time>2014-03-09T12:46:13Z</time>
      </trkpt>
      <trkpt lat="41.631282000" lon="1.881683000">
        <ele>290.80</ele>
        <time>2014-03-09T12:46:18Z</time>
      </trkpt>
      <trkpt lat="41.631294000" lon="1.881255000">
        <ele>289.80</ele>
        <time>2014-03-09T12:46:28Z</time>
      </trkpt>
      <trkpt lat="41.631347000" lon="1.881149000">
        <ele>289.10</ele>
        <time>2014-03-09T12:46:30Z</time>
      </trkpt>
      <trkpt lat="41.631376000" lon="1.881087000">
        <ele>288.70</ele>
        <time>2014-03-09T12:46:31Z</time>
      </trkpt>
      <trkpt lat="41.631363000" lon="1.880779000">
        <ele>289.50</ele>
        <time>2014-03-09T12:46:36Z</time>
      </trkpt>
      <trkpt lat="41.631252000" lon="1.880034000">
        <ele>288.80</ele>
        <time>2014-03-09T12:46:50Z</time>
      </trkpt>
      <trkpt lat="41.631247000" lon="1.879925000">
        <ele>287.10</ele>
        <time>2014-03-09T12:46:53Z</time>
      </trkpt>
      <trkpt lat="41.631272000" lon="1.879821000">
        <ele>285.20</ele>
        <time>2014-03-09T12:46:55Z</time>
      </trkpt>
      <trkpt lat="41.631415000" lon="1.879794000">
        <ele>286.90</ele>
        <time>2014-03-09T12:47:00Z</time>
      </trkpt>
      <trkpt lat="41.631494000" lon="1.879832000">
        <ele>286.50</ele>
        <time>2014-03-09T12:47:02Z</time>
      </trkpt>
      <trkpt lat="41.631640000" lon="1.879858000">
        <ele>286.20</ele>
        <time>2014-03-09T12:47:05Z</time>
      </trkpt>
      <trkpt lat="41.631724000" lon="1.879841000">
        <ele>286.20</ele>
        <time>2014-03-09T12:47:07Z</time>
      </trkpt>
      <trkpt lat="41.631870000" lon="1.879579000">
        <ele>282.50</ele>
        <time>2014-03-09T12:47:12Z</time>
      </trkpt>
      <trkpt lat="41.631906000" lon="1.879505000">
        <ele>282.00</ele>
        <time>2014-03-09T12:47:13Z</time>
      </trkpt>
      <trkpt lat="41.632067000" lon="1.879054000">
        <ele>280.10</ele>
        <time>2014-03-09T12:47:19Z</time>
      </trkpt>
      <trkpt lat="41.632162000" lon="1.878740000">
        <ele>279.10</ele>
        <time>2014-03-09T12:47:23Z</time>
      </trkpt>
      <trkpt lat="41.632321000" lon="1.878384000">
        <ele>278.60</ele>
        <time>2014-03-09T12:47:28Z</time>
      </trkpt>
      <trkpt lat="41.632413000" lon="1.877863000">
        <ele>276.90</ele>
        <time>2014-03-09T12:47:38Z</time>
      </trkpt>
      <trkpt lat="41.632419000" lon="1.877835000">
        <ele>276.70</ele>
        <time>2014-03-09T12:47:39Z</time>
      </trkpt>
      <trkpt lat="41.632506000" lon="1.877708000">
        <ele>272.90</ele>
        <time>2014-03-09T12:47:44Z</time>
      </trkpt>
      <trkpt lat="41.632687000" lon="1.877684000">
        <ele>270.20</ele>
        <time>2014-03-09T12:47:51Z</time>
      </trkpt>
      <trkpt lat="41.632744000" lon="1.877616000">
        <ele>268.80</ele>
        <time>2014-03-09T12:47:54Z</time>
      </trkpt>
      <trkpt lat="41.632766000" lon="1.877592000">
        <ele>268.00</ele>
        <time>2014-03-09T12:47:55Z</time>
      </trkpt>
      <trkpt lat="41.632847000" lon="1.877534000">
        <ele>266.20</ele>
        <time>2014-03-09T12:47:59Z</time>
      </trkpt>
      <trkpt lat="41.632892000" lon="1.877445000">
        <ele>263.70</ele>
        <time>2014-03-09T12:48:13Z</time>
      </trkpt>
      <trkpt lat="41.632895000" lon="1.877418000">
        <ele>262.70</ele>
        <time>2014-03-09T12:48:32Z</time>
      </trkpt>
      <trkpt lat="41.632889000" lon="1.877411000">
        <ele>262.70</ele>
        <time>2014-03-09T12:48:47Z</time>
      </trkpt>
      <trkpt lat="41.632920000" lon="1.877340000">
        <ele>261.20</ele>
        <time>2014-03-09T12:48:53Z</time>
      </trkpt>
      <trkpt lat="41.632929000" lon="1.877279000">
        <ele>260.80</ele>
        <time>2014-03-09T12:49:18Z</time>
      </trkpt>
      <trkpt lat="41.632932000" lon="1.877290000">
        <ele>261.40</ele>
        <time>2014-03-09T12:55:17Z</time>
      </trkpt>
      <trkpt lat="41.632966000" lon="1.877292000">
        <ele>260.90</ele>
        <time>2014-03-09T12:55:22Z</time>
      </trkpt>
      <trkpt lat="41.633113000" lon="1.877063000">
        <ele>257.30</ele>
        <time>2014-03-09T12:55:29Z</time>
      </trkpt>
      <trkpt lat="41.633131000" lon="1.876977000">
        <ele>256.40</ele>
        <time>2014-03-09T12:55:31Z</time>
      </trkpt>
      <trkpt lat="41.633160000" lon="1.876615000">
        <ele>253.10</ele>
        <time>2014-03-09T12:55:39Z</time>
      </trkpt>
      <trkpt lat="41.633189000" lon="1.876299000">
        <ele>249.60</ele>
        <time>2014-03-09T12:55:43Z</time>
      </trkpt>
      <trkpt lat="41.633211000" lon="1.875878000">
        <ele>249.20</ele>
        <time>2014-03-09T12:55:48Z</time>
      </trkpt>
      <trkpt lat="41.633247000" lon="1.875635000">
        <ele>247.30</ele>
        <time>2014-03-09T12:55:51Z</time>
      </trkpt>
      <trkpt lat="41.633429000" lon="1.875098000">
        <ele>244.30</ele>
        <time>2014-03-09T12:55:58Z</time>
      </trkpt>
      <trkpt lat="41.633518000" lon="1.874735000">
        <ele>241.70</ele>
        <time>2014-03-09T12:56:02Z</time>
      </trkpt>
      <trkpt lat="41.633673000" lon="1.874360000">
        <ele>238.60</ele>
        <time>2014-03-09T12:56:07Z</time>
      </trkpt>
      <trkpt lat="41.633711000" lon="1.873581000">
        <ele>239.10</ele>
        <time>2014-03-09T12:56:16Z</time>
      </trkpt>
      <trkpt lat="41.633671000" lon="1.873256000">
        <ele>237.70</ele>
        <time>2014-03-09T12:56:20Z</time>
      </trkpt>
      <trkpt lat="41.633630000" lon="1.872998000">
        <ele>236.00</ele>
        <time>2014-03-09T12:56:23Z</time>
      </trkpt>
      <trkpt lat="41.633457000" lon="1.872451000">
        <ele>234.00</ele>
        <time>2014-03-09T12:56:29Z</time>
      </trkpt>
      <trkpt lat="41.633272000" lon="1.872059000">
        <ele>229.80</ele>
        <time>2014-03-09T12:56:33Z</time>
      </trkpt>
      <trkpt lat="41.632923000" lon="1.870858000">
        <ele>226.70</ele>
        <time>2014-03-09T12:56:44Z</time>
      </trkpt>
      <trkpt lat="41.632936000" lon="1.870330000">
        <ele>225.30</ele>
        <time>2014-03-09T12:56:53Z</time>
      </trkpt>
      <trkpt lat="41.632928000" lon="1.870307000">
        <ele>225.40</ele>
        <time>2014-03-09T12:57:24Z</time>
      </trkpt>
      <trkpt lat="41.632910000" lon="1.869979000">
        <ele>225.10</ele>
        <time>2014-03-09T12:57:36Z</time>
      </trkpt>
      <trkpt lat="41.632898000" lon="1.869518000">
        <ele>225.30</ele>
        <time>2014-03-09T12:57:50Z</time>
      </trkpt>
      <trkpt lat="41.632847000" lon="1.869369000">
        <ele>224.40</ele>
        <time>2014-03-09T12:57:53Z</time>
      </trkpt>
      <trkpt lat="41.632842000" lon="1.869224000">
        <ele>222.90</ele>
        <time>2014-03-09T12:57:55Z</time>
      </trkpt>
      <trkpt lat="41.632820000" lon="1.868930000">
        <ele>223.00</ele>
        <time>2014-03-09T12:58:00Z</time>
      </trkpt>
      <trkpt lat="41.632131000" lon="1.868848000">
        <ele>224.40</ele>
        <time>2014-03-09T12:58:16Z</time>
      </trkpt>
      <trkpt lat="41.631433000" lon="1.869063000">
        <ele>223.50</ele>
        <time>2014-03-09T12:58:35Z</time>
      </trkpt>
      <trkpt lat="41.631281000" lon="1.869086000">
        <ele>222.20</ele>
        <time>2014-03-09T12:58:38Z</time>
      </trkpt>
      <trkpt lat="41.631123000" lon="1.868819000">
        <ele>222.90</ele>
        <time>2014-03-09T12:58:44Z</time>
      </trkpt>
      <trkpt lat="41.631240000" lon="1.868500000">
        <ele>224.50</ele>
        <time>2014-03-09T12:58:51Z</time>
      </trkpt>
      <trkpt lat="41.631653000" lon="1.868003000">
        <ele>224.40</ele>
        <time>2014-03-09T12:59:04Z</time>
      </trkpt>
      <trkpt lat="41.631771000" lon="1.867888000">
        <ele>223.30</ele>
        <time>2014-03-09T12:59:07Z</time>
      </trkpt>
      <trkpt lat="41.632002000" lon="1.867792000">
        <ele>221.60</ele>
        <time>2014-03-09T12:59:12Z</time>
      </trkpt>
      <trkpt lat="41.632161000" lon="1.867726000">
        <ele>220.10</ele>
        <time>2014-03-09T12:59:15Z</time>
      </trkpt>
      <trkpt lat="41.632573000" lon="1.867625000">
        <ele>216.90</ele>
        <time>2014-03-09T12:59:22Z</time>
      </trkpt>
      <trkpt lat="41.632629000" lon="1.867600000">
        <ele>216.50</ele>
        <time>2014-03-09T12:59:23Z</time>
      </trkpt>
      <trkpt lat="41.632960000" lon="1.867163000">
        <ele>214.80</ele>
        <time>2014-03-09T12:59:32Z</time>
      </trkpt>
      <trkpt lat="41.633100000" lon="1.866338000">
        <ele>212.60</ele>
        <time>2014-03-09T12:59:44Z</time>
      </trkpt>
      <trkpt lat="41.633071000" lon="1.866069000">
        <ele>211.20</ele>
        <time>2014-03-09T12:59:50Z</time>
      </trkpt>
      <trkpt lat="41.632854000" lon="1.865777000">
        <ele>211.80</ele>
        <time>2014-03-09T12:59:59Z</time>
      </trkpt>
      <trkpt lat="41.632874000" lon="1.864976000">
        <ele>212.20</ele>
        <time>2014-03-09T13:00:14Z</time>
      </trkpt>
      <trkpt lat="41.632961000" lon="1.864479000">
        <ele>212.40</ele>
        <time>2014-03-09T13:00:23Z</time>
      </trkpt>
      <trkpt lat="41.632803000" lon="1.864131000">
        <ele>212.90</ele>
        <time>2014-03-09T13:00:32Z</time>
      </trkpt>
      <trkpt lat="41.632718000" lon="1.864176000">
        <ele>213.20</ele>
        <time>2014-03-09T13:00:34Z</time>
      </trkpt>
      <trkpt lat="41.632176000" lon="1.864572000">
        <ele>209.90</ele>
        <time>2014-03-09T13:00:46Z</time>
      </trkpt>
      <trkpt lat="41.632009000" lon="1.864733000">
        <ele>209.80</ele>
        <time>2014-03-09T13:00:50Z</time>
      </trkpt>
      <trkpt lat="41.631884000" lon="1.864896000">
        <ele>209.00</ele>
        <time>2014-03-09T13:00:53Z</time>
      </trkpt>
      <trkpt lat="41.631783000" lon="1.865120000">
        <ele>207.50</ele>
        <time>2014-03-09T13:00:56Z</time>
      </trkpt>
      <trkpt lat="41.631635000" lon="1.865559000">
        <ele>206.70</ele>
        <time>2014-03-09T13:01:01Z</time>
      </trkpt>
      <trkpt lat="41.631424000" lon="1.865779000">
        <ele>205.80</ele>
        <time>2014-03-09T13:01:05Z</time>
      </trkpt>
      <trkpt lat="41.630915000" lon="1.865918000">
        <ele>205.40</ele>
        <time>2014-03-09T13:01:13Z</time>
      </trkpt>
      <trkpt lat="41.630563000" lon="1.866267000">
        <ele>200.60</ele>
        <time>2014-03-09T13:01:20Z</time>
      </trkpt>
      <trkpt lat="41.630487000" lon="1.866790000">
        <ele>200.70</ele>
        <time>2014-03-09T13:01:26Z</time>
      </trkpt>
      <trkpt lat="41.630467000" lon="1.866987000">
        <ele>199.80</ele>
        <time>2014-03-09T13:01:28Z</time>
      </trkpt>
      <trkpt lat="41.630416000" lon="1.867282000">
        <ele>199.10</ele>
        <time>2014-03-09T13:01:31Z</time>
      </trkpt>
      <trkpt lat="41.630176000" lon="1.867653000">
        <ele>197.00</ele>
        <time>2014-03-09T13:01:36Z</time>
      </trkpt>
      <trkpt lat="41.629716000" lon="1.867967000">
        <ele>195.70</ele>
        <time>2014-03-09T13:01:43Z</time>
      </trkpt>
      <trkpt lat="41.629622000" lon="1.868013000">
        <ele>195.60</ele>
        <time>2014-03-09T13:01:45Z</time>
      </trkpt>
      <trkpt lat="41.629485000" lon="1.867844000">
        <ele>193.90</ele>
        <time>2014-03-09T13:01:52Z</time>
      </trkpt>
      <trkpt lat="41.629553000" lon="1.867767000">
        <ele>193.20</ele>
        <time>2014-03-09T13:01:54Z</time>
      </trkpt>
      <trkpt lat="41.629547000" lon="1.867640000">
        <ele>192.00</ele>
        <time>2014-03-09T13:01:59Z</time>
      </trkpt>
      <trkpt lat="41.629217000" lon="1.867544000">
        <ele>187.70</ele>
        <time>2014-03-09T13:02:06Z</time>
      </trkpt>
      <trkpt lat="41.629160000" lon="1.867528000">
        <ele>187.90</ele>
        <time>2014-03-09T13:02:07Z</time>
      </trkpt>
      <trkpt lat="41.629056000" lon="1.867505000">
        <ele>188.60</ele>
        <time>2014-03-09T13:02:09Z</time>
      </trkpt>
      <trkpt lat="41.628810000" lon="1.867538000">
        <ele>187.20</ele>
        <time>2014-03-09T13:02:18Z</time>
      </trkpt>
      <trkpt lat="41.628626000" lon="1.867583000">
        <ele>185.40</ele>
        <time>2014-03-09T13:02:22Z</time>
      </trkpt>
      <trkpt lat="41.628536000" lon="1.867627000">
        <ele>184.30</ele>
        <time>2014-03-09T13:02:24Z</time>
      </trkpt>
      <trkpt lat="41.628310000" lon="1.867799000">
        <ele>183.40</ele>
        <time>2014-03-09T13:02:29Z</time>
      </trkpt>
      <trkpt lat="41.627852000" lon="1.868120000">
        <ele>179.60</ele>
        <time>2014-03-09T13:02:38Z</time>
      </trkpt>
      <trkpt lat="41.627436000" lon="1.868431000">
        <ele>175.60</ele>
        <time>2014-03-09T13:02:45Z</time>
      </trkpt>
      <trkpt lat="41.627375000" lon="1.868488000">
        <ele>175.80</ele>
        <time>2014-03-09T13:02:46Z</time>
      </trkpt>
      <trkpt lat="41.627187000" lon="1.868667000">
        <ele>174.40</ele>
        <time>2014-03-09T13:02:49Z</time>
      </trkpt>
      <trkpt lat="41.626845000" lon="1.868789000">
        <ele>172.20</ele>
        <time>2014-03-09T13:02:54Z</time>
      </trkpt>
      <trkpt lat="41.626482000" lon="1.868766000">
        <ele>169.80</ele>
        <time>2014-03-09T13:02:59Z</time>
      </trkpt>
      <trkpt lat="41.626137000" lon="1.868874000">
        <ele>167.10</ele>
        <time>2014-03-09T13:03:04Z</time>
      </trkpt>
      <trkpt lat="41.625789000" lon="1.869239000">
        <ele>164.00</ele>
        <time>2014-03-09T13:03:10Z</time>
      </trkpt>
      <trkpt lat="41.625401000" lon="1.869458000">
        <ele>160.60</ele>
        <time>2014-03-09T13:03:16Z</time>
      </trkpt>
      <trkpt lat="41.625257000" lon="1.869471000">
        <ele>159.10</ele>
        <time>2014-03-09T13:03:18Z</time>
      </trkpt>
      <trkpt lat="41.624535000" lon="1.869181000">
        <ele>155.90</ele>
        <time>2014-03-09T13:03:29Z</time>
      </trkpt>
      <trkpt lat="41.624203000" lon="1.869024000">
        <ele>154.30</ele>
        <time>2014-03-09T13:03:34Z</time>
      </trkpt>
      <trkpt lat="41.623943000" lon="1.868723000">
        <ele>152.20</ele>
        <time>2014-03-09T13:03:39Z</time>
      </trkpt>
      <trkpt lat="41.623556000" lon="1.868291000">
        <ele>148.80</ele>
        <time>2014-03-09T13:03:47Z</time>
      </trkpt>
      <trkpt lat="41.623498000" lon="1.868260000">
        <ele>148.70</ele>
        <time>2014-03-09T13:03:48Z</time>
      </trkpt>
      <trkpt lat="41.623383000" lon="1.868205000">
        <ele>148.40</ele>
        <time>2014-03-09T13:03:50Z</time>
      </trkpt>
      <trkpt lat="41.623236000" lon="1.868148000">
        <ele>147.60</ele>
        <time>2014-03-09T13:03:53Z</time>
      </trkpt>
      <trkpt lat="41.622884000" lon="1.867836000">
        <ele>146.30</ele>
        <time>2014-03-09T13:04:03Z</time>
      </trkpt>
      <trkpt lat="41.622783000" lon="1.867705000">
        <ele>143.90</ele>
        <time>2014-03-09T13:04:06Z</time>
      </trkpt>
      <trkpt lat="41.622529000" lon="1.867500000">
        <ele>143.10</ele>
        <time>2014-03-09T13:04:11Z</time>
      </trkpt>
      <trkpt lat="41.622383000" lon="1.867384000">
        <ele>142.00</ele>
        <time>2014-03-09T13:04:14Z</time>
      </trkpt>
      <trkpt lat="41.622184000" lon="1.867152000">
        <ele>139.80</ele>
        <time>2014-03-09T13:04:18Z</time>
      </trkpt>
      <trkpt lat="41.622045000" lon="1.866953000">
        <ele>137.60</ele>
        <time>2014-03-09T13:04:21Z</time>
      </trkpt>
      <trkpt lat="41.621910000" lon="1.866762000">
        <ele>135.80</ele>
        <time>2014-03-09T13:04:24Z</time>
      </trkpt>
      <trkpt lat="41.621434000" lon="1.866124000">
        <ele>133.50</ele>
        <time>2014-03-09T13:04:37Z</time>
      </trkpt>
      <trkpt lat="41.621430000" lon="1.866112000">
        <ele>133.80</ele>
        <time>2014-03-09T13:04:38Z</time>
      </trkpt>
      <trkpt lat="41.621419000" lon="1.866075000">
        <ele>133.30</ele>
        <time>2014-03-09T13:04:40Z</time>
      </trkpt>
      <trkpt lat="41.621394000" lon="1.866047000">
        <ele>133.20</ele>
        <time>2014-03-09T13:04:56Z</time>
      </trkpt>
      <trkpt lat="41.621396000" lon="1.866036000">
        <ele>133.20</ele>
        <time>2014-03-09T13:05:34Z</time>
      </trkpt>
      <trkpt lat="41.621431000" lon="1.865761000">
        <ele>130.00</ele>
        <time>2014-03-09T13:05:40Z</time>
      </trkpt>
      <trkpt lat="41.621440000" lon="1.865622000">
        <ele>130.10</ele>
        <time>2014-03-09T13:05:42Z</time>
      </trkpt>
      <trkpt lat="41.621415000" lon="1.865209000">
        <ele>129.20</ele>
        <time>2014-03-09T13:05:49Z</time>
      </trkpt>
      <trkpt lat="41.621293000" lon="1.864974000">
        <ele>128.50</ele>
        <time>2014-03-09T13:05:53Z</time>
      </trkpt>
      <trkpt lat="41.621281000" lon="1.864192000">
        <ele>129.10</ele>
        <time>2014-03-09T13:06:06Z</time>
      </trkpt>
      <trkpt lat="41.621504000" lon="1.863590000">
        <ele>128.70</ele>
        <time>2014-03-09T13:06:16Z</time>
      </trkpt>
      <trkpt lat="41.622058000" lon="1.862477000">
        <ele>128.40</ele>
        <time>2014-03-09T13:06:36Z</time>
      </trkpt>
      <trkpt lat="41.622681000" lon="1.861051000">
        <ele>128.00</ele>
        <time>2014-03-09T13:07:00Z</time>
      </trkpt>
      <trkpt lat="41.622957000" lon="1.859973000">
        <ele>126.90</ele>
        <time>2014-03-09T13:07:14Z</time>
      </trkpt>
      <trkpt lat="41.623519000" lon="1.858661000">
        <ele>126.70</ele>
        <time>2014-03-09T13:07:33Z</time>
      </trkpt>
      <trkpt lat="41.623732000" lon="1.857770000">
        <ele>126.30</ele>
        <time>2014-03-09T13:07:45Z</time>
      </trkpt>
      <trkpt lat="41.623787000" lon="1.857459000">
        <ele>124.50</ele>
        <time>2014-03-09T13:07:49Z</time>
      </trkpt>
      <trkpt lat="41.623675000" lon="1.856364000">
        <ele>125.20</ele>
        <time>2014-03-09T13:08:03Z</time>
      </trkpt>
      <trkpt lat="41.623131000" lon="1.855485000">
        <ele>126.10</ele>
        <time>2014-03-09T13:08:19Z</time>
      </trkpt>
      <trkpt lat="41.622955000" lon="1.855319000">
        <ele>125.20</ele>
        <time>2014-03-09T13:08:23Z</time>
      </trkpt>
      <trkpt lat="41.622802000" lon="1.855149000">
        <ele>125.60</ele>
        <time>2014-03-09T13:08:27Z</time>
      </trkpt>
      <trkpt lat="41.622495000" lon="1.855059000">
        <ele>127.10</ele>
        <time>2014-03-09T13:08:35Z</time>
      </trkpt>
      <trkpt lat="41.622442000" lon="1.855118000">
        <ele>128.30</ele>
        <time>2014-03-09T13:08:37Z</time>
      </trkpt>
      <trkpt lat="41.622378000" lon="1.855217000">
        <ele>129.80</ele>
        <time>2014-03-09T13:08:40Z</time>
      </trkpt>
      <trkpt lat="41.622317000" lon="1.855341000">
        <ele>131.50</ele>
        <time>2014-03-09T13:08:44Z</time>
      </trkpt>
      <trkpt lat="41.622054000" lon="1.855483000">
        <ele>134.20</ele>
        <time>2014-03-09T13:08:56Z</time>
      </trkpt>
      <trkpt lat="41.621971000" lon="1.855584000">
        <ele>134.50</ele>
        <time>2014-03-09T13:09:00Z</time>
      </trkpt>
      <trkpt lat="41.621744000" lon="1.856308000">
        <ele>136.50</ele>
        <time>2014-03-09T13:09:19Z</time>
      </trkpt>
      <trkpt lat="41.621502000" lon="1.856555000">
        <ele>137.10</ele>
        <time>2014-03-09T13:09:28Z</time>
      </trkpt>
      <trkpt lat="41.621436000" lon="1.856751000">
        <ele>137.60</ele>
        <time>2014-03-09T13:09:33Z</time>
      </trkpt>
      <trkpt lat="41.621365000" lon="1.857371000">
        <ele>140.00</ele>
        <time>2014-03-09T13:09:47Z</time>
      </trkpt>
      <trkpt lat="41.621252000" lon="1.857798000">
        <ele>142.40</ele>
        <time>2014-03-09T13:09:58Z</time>
      </trkpt>
      <trkpt lat="41.621062000" lon="1.857931000">
        <ele>145.60</ele>
        <time>2014-03-09T13:10:05Z</time>
      </trkpt>
      <trkpt lat="41.620779000" lon="1.858194000">
        <ele>146.30</ele>
        <time>2014-03-09T13:10:15Z</time>
      </trkpt>
      <trkpt lat="41.620251000" lon="1.858305000">
        <ele>149.20</ele>
        <time>2014-03-09T13:10:31Z</time>
      </trkpt>
      <trkpt lat="41.620028000" lon="1.858603000">
        <ele>152.30</ele>
        <time>2014-03-09T13:10:42Z</time>
      </trkpt>
      <trkpt lat="41.619803000" lon="1.858806000">
        <ele>154.10</ele>
        <time>2014-03-09T13:10:55Z</time>
      </trkpt>
      <trkpt lat="41.619774000" lon="1.858834000">
        <ele>154.40</ele>
        <time>2014-03-09T13:10:58Z</time>
      </trkpt>
      <trkpt lat="41.619656000" lon="1.858764000">
        <ele>154.50</ele>
        <time>2014-03-09T13:11:18Z</time>
      </trkpt>
      <trkpt lat="41.619655000" lon="1.858765000">
        <ele>154.60</ele>
        <time>2014-03-09T13:11:47Z</time>
      </trkpt>
      <trkpt lat="41.619508000" lon="1.858445000">
        <ele>156.00</ele>
        <time>2014-03-09T13:11:57Z</time>
      </trkpt>
      <trkpt lat="41.619500000" lon="1.858337000">
        <ele>158.50</ele>
        <time>2014-03-09T13:12:08Z</time>
      </trkpt>
      <trkpt lat="41.619505000" lon="1.858335000">
        <ele>158.70</ele>
        <time>2014-03-09T13:12:10Z</time>
      </trkpt>
      <trkpt lat="41.619524000" lon="1.858305000">
        <ele>159.40</ele>
        <time>2014-03-09T13:12:21Z</time>
      </trkpt>
      <trkpt lat="41.619530000" lon="1.858285000">
        <ele>159.70</ele>
        <time>2014-03-09T13:12:28Z</time>
      </trkpt>
      <trkpt lat="41.619547000" lon="1.858269000">
        <ele>159.90</ele>
        <time>2014-03-09T13:12:43Z</time>
      </trkpt>
      <trkpt lat="41.619567000" lon="1.858237000">
        <ele>160.40</ele>
        <time>2014-03-09T13:13:02Z</time>
      </trkpt>
      <trkpt lat="41.619621000" lon="1.858199000">
        <ele>161.50</ele>
        <time>2014-03-09T13:13:20Z</time>
      </trkpt>
      <trkpt lat="41.619626000" lon="1.858163000">
        <ele>162.30</ele>
        <time>2014-03-09T13:13:34Z</time>
      </trkpt>
      <trkpt lat="41.619964000" lon="1.857829000">
        <ele>161.90</ele>
        <time>2014-03-09T13:13:49Z</time>
      </trkpt>
      <trkpt lat="41.619973000" lon="1.857795000">
        <ele>162.00</ele>
        <time>2014-03-09T13:13:50Z</time>
      </trkpt>
      <trkpt lat="41.620017000" lon="1.857731000">
        <ele>162.70</ele>
        <time>2014-03-09T13:13:53Z</time>
      </trkpt>
      <trkpt lat="41.619984000" lon="1.857635000">
        <ele>164.60</ele>
        <time>2014-03-09T13:13:59Z</time>
      </trkpt>
      <trkpt lat="41.619947000" lon="1.857634000">
        <ele>164.90</ele>
        <time>2014-03-09T13:14:01Z</time>
      </trkpt>
      <trkpt lat="41.619872000" lon="1.857582000">
        <ele>167.00</ele>
        <time>2014-03-09T13:14:06Z</time>
      </trkpt>
      <trkpt lat="41.619849000" lon="1.857553000">
        <ele>167.80</ele>
        <time>2014-03-09T13:14:20Z</time>
      </trkpt>
      <trkpt lat="41.619836000" lon="1.857518000">
        <ele>167.90</ele>
        <time>2014-03-09T13:14:22Z</time>
      </trkpt>
      <trkpt lat="41.619767000" lon="1.857484000">
        <ele>169.80</ele>
        <time>2014-03-09T13:14:27Z</time>
      </trkpt>
      <trkpt lat="41.619657000" lon="1.857536000">
        <ele>171.10</ele>
        <time>2014-03-09T13:14:33Z</time>
      </trkpt>
      <trkpt lat="41.619582000" lon="1.857409000">
        <ele>172.10</ele>
        <time>2014-03-09T13:14:39Z</time>
      </trkpt>
      <trkpt lat="41.619418000" lon="1.857376000">
        <ele>173.00</ele>
        <time>2014-03-09T13:14:46Z</time>
      </trkpt>
      <trkpt lat="41.619323000" lon="1.857461000">
        <ele>175.20</ele>
        <time>2014-03-09T13:14:51Z</time>
      </trkpt>
      <trkpt lat="41.619255000" lon="1.857550000">
        <ele>176.50</ele>
        <time>2014-03-09T13:14:56Z</time>
      </trkpt>
      <trkpt lat="41.619241000" lon="1.857564000">
        <ele>177.00</ele>
        <time>2014-03-09T13:14:57Z</time>
      </trkpt>
      <trkpt lat="41.619215000" lon="1.857585000">
        <ele>177.80</ele>
        <time>2014-03-09T13:14:59Z</time>
      </trkpt>
      <trkpt lat="41.619158000" lon="1.857559000">
        <ele>178.20</ele>
        <time>2014-03-09T13:15:02Z</time>
      </trkpt>
      <trkpt lat="41.618993000" lon="1.857508000">
        <ele>180.40</ele>
        <time>2014-03-09T13:15:10Z</time>
      </trkpt>
      <trkpt lat="41.618938000" lon="1.857565000">
        <ele>181.30</ele>
        <time>2014-03-09T13:15:13Z</time>
      </trkpt>
      <trkpt lat="41.618813000" lon="1.857561000">
        <ele>182.80</ele>
        <time>2014-03-09T13:15:28Z</time>
      </trkpt>
      <trkpt lat="41.618687000" lon="1.857484000">
        <ele>183.00</ele>
        <time>2014-03-09T13:16:22Z</time>
      </trkpt>
      <trkpt lat="41.618676000" lon="1.857475000">
        <ele>183.20</ele>
        <time>2014-03-09T13:16:23Z</time>
      </trkpt>
      <trkpt lat="41.618599000" lon="1.857548000">
        <ele>184.70</ele>
        <time>2014-03-09T13:16:32Z</time>
      </trkpt>
      <trkpt lat="41.618544000" lon="1.857514000">
        <ele>183.60</ele>
        <time>2014-03-09T13:16:34Z</time>
      </trkpt>
      <trkpt lat="41.618321000" lon="1.857359000">
        <ele>180.10</ele>
        <time>2014-03-09T13:16:39Z</time>
      </trkpt>
      <trkpt lat="41.618211000" lon="1.857313000">
        <ele>179.00</ele>
        <time>2014-03-09T13:16:41Z</time>
      </trkpt>
      <trkpt lat="41.618039000" lon="1.857238000">
        <ele>178.80</ele>
        <time>2014-03-09T13:16:44Z</time>
      </trkpt>
      <trkpt lat="41.617581000" lon="1.857090000">
        <ele>182.00</ele>
        <time>2014-03-09T13:16:56Z</time>
      </trkpt>
      <trkpt lat="41.617445000" lon="1.856974000">
        <ele>183.60</ele>
        <time>2014-03-09T13:17:06Z</time>
      </trkpt>
      <trkpt lat="41.617415000" lon="1.856924000">
        <ele>183.70</ele>
        <time>2014-03-09T13:17:21Z</time>
      </trkpt>
      <trkpt lat="41.617308000" lon="1.856848000">
        <ele>184.60</ele>
        <time>2014-03-09T13:18:09Z</time>
      </trkpt>
      <trkpt lat="41.617231000" lon="1.856789000">
        <ele>186.40</ele>
        <time>2014-03-09T13:18:21Z</time>
      </trkpt>
      <trkpt lat="41.617179000" lon="1.856782000">
        <ele>187.70</ele>
        <time>2014-03-09T13:18:33Z</time>
      </trkpt>
      <trkpt lat="41.617172000" lon="1.856775000">
        <ele>188.00</ele>
        <time>2014-03-09T13:18:52Z</time>
      </trkpt>
      <trkpt lat="41.617172000" lon="1.856774000">
        <ele>187.90</ele>
        <time>2014-03-09T13:19:07Z</time>
      </trkpt>
      <trkpt lat="41.617178000" lon="1.856683000">
        <ele>187.50</ele>
        <time>2014-03-09T13:19:10Z</time>
      </trkpt>
      <trkpt lat="41.617206000" lon="1.856612000">
        <ele>186.80</ele>
        <time>2014-03-09T13:19:12Z</time>
      </trkpt>
      <trkpt lat="41.617213000" lon="1.856413000">
        <ele>186.20</ele>
        <time>2014-03-09T13:19:16Z</time>
      </trkpt>
      <trkpt lat="41.617108000" lon="1.856206000">
        <ele>185.80</ele>
        <time>2014-03-09T13:19:20Z</time>
      </trkpt>
      <trkpt lat="41.616973000" lon="1.855944000">
        <ele>186.30</ele>
        <time>2014-03-09T13:19:24Z</time>
      </trkpt>
      <trkpt lat="41.616902000" lon="1.855729000">
        <ele>185.20</ele>
        <time>2014-03-09T13:19:28Z</time>
      </trkpt>
      <trkpt lat="41.616791000" lon="1.855540000">
        <ele>184.20</ele>
        <time>2014-03-09T13:19:32Z</time>
      </trkpt>
      <trkpt lat="41.616583000" lon="1.854883000">
        <ele>181.90</ele>
        <time>2014-03-09T13:19:43Z</time>
      </trkpt>
      <trkpt lat="41.616395000" lon="1.854563000">
        <ele>181.10</ele>
        <time>2014-03-09T13:19:49Z</time>
      </trkpt>
      <trkpt lat="41.616289000" lon="1.854419000">
        <ele>181.30</ele>
        <time>2014-03-09T13:19:52Z</time>
      </trkpt>
      <trkpt lat="41.616096000" lon="1.854184000">
        <ele>181.60</ele>
        <time>2014-03-09T13:19:58Z</time>
      </trkpt>
      <trkpt lat="41.615940000" lon="1.854052000">
        <ele>180.30</ele>
        <time>2014-03-09T13:20:02Z</time>
      </trkpt>
      <trkpt lat="41.615808000" lon="1.853857000">
        <ele>180.40</ele>
        <time>2014-03-09T13:20:06Z</time>
      </trkpt>
      <trkpt lat="41.615604000" lon="1.853691000">
        <ele>180.10</ele>
        <time>2014-03-09T13:20:11Z</time>
      </trkpt>
      <trkpt lat="41.615508000" lon="1.853664000">
        <ele>180.40</ele>
        <time>2014-03-09T13:20:13Z</time>
      </trkpt>
      <trkpt lat="41.615346000" lon="1.853464000">
        <ele>181.10</ele>
        <time>2014-03-09T13:20:18Z</time>
      </trkpt>
      <trkpt lat="41.615187000" lon="1.853251000">
        <ele>179.30</ele>
        <time>2014-03-09T13:20:23Z</time>
      </trkpt>
      <trkpt lat="41.614913000" lon="1.852937000">
        <ele>178.60</ele>
        <time>2014-03-09T13:20:30Z</time>
      </trkpt>
      <trkpt lat="41.614787000" lon="1.852793000">
        <ele>178.20</ele>
        <time>2014-03-09T13:20:33Z</time>
      </trkpt>
      <trkpt lat="41.614608000" lon="1.852664000">
        <ele>178.00</ele>
        <time>2014-03-09T13:20:37Z</time>
      </trkpt>
      <trkpt lat="41.614545000" lon="1.852488000">
        <ele>177.70</ele>
        <time>2014-03-09T13:20:41Z</time>
      </trkpt>
      <trkpt lat="41.614489000" lon="1.852380000">
        <ele>179.20</ele>
        <time>2014-03-09T13:20:44Z</time>
      </trkpt>
      <trkpt lat="41.614261000" lon="1.851990000">
        <ele>178.90</ele>
        <time>2014-03-09T13:20:56Z</time>
      </trkpt>
      <trkpt lat="41.614153000" lon="1.851903000">
        <ele>179.50</ele>
        <time>2014-03-09T13:21:03Z</time>
      </trkpt>
      <trkpt lat="41.614133000" lon="1.851836000">
        <ele>179.00</ele>
        <time>2014-03-09T13:21:09Z</time>
      </trkpt>
      <trkpt lat="41.614101000" lon="1.851767000">
        <ele>178.20</ele>
        <time>2014-03-09T13:21:13Z</time>
      </trkpt>
      <trkpt lat="41.613963000" lon="1.851149000">
        <ele>174.70</ele>
        <time>2014-03-09T13:21:25Z</time>
      </trkpt>
      <trkpt lat="41.613879000" lon="1.850872000">
        <ele>173.30</ele>
        <time>2014-03-09T13:21:29Z</time>
      </trkpt>
      <trkpt lat="41.613615000" lon="1.850337000">
        <ele>169.80</ele>
        <time>2014-03-09T13:21:36Z</time>
      </trkpt>
      <trkpt lat="41.613459000" lon="1.850114000">
        <ele>168.30</ele>
        <time>2014-03-09T13:21:39Z</time>
      </trkpt>
      <trkpt lat="41.613028000" lon="1.849647000">
        <ele>164.80</ele>
        <time>2014-03-09T13:21:48Z</time>
      </trkpt>
      <trkpt lat="41.612732000" lon="1.849388000">
        <ele>161.30</ele>
        <time>2014-03-09T13:21:53Z</time>
      </trkpt>
      <trkpt lat="41.612355000" lon="1.849166000">
        <ele>157.50</ele>
        <time>2014-03-09T13:21:58Z</time>
      </trkpt>
      <trkpt lat="41.612024000" lon="1.849023000">
        <ele>154.20</ele>
        <time>2014-03-09T13:22:02Z</time>
      </trkpt>
      <trkpt lat="41.611935000" lon="1.848981000">
        <ele>154.50</ele>
        <time>2014-03-09T13:22:03Z</time>
      </trkpt>
      <trkpt lat="41.611764000" lon="1.848907000">
        <ele>154.40</ele>
        <time>2014-03-09T13:22:05Z</time>
      </trkpt>
      <trkpt lat="41.611457000" lon="1.848603000">
        <ele>152.90</ele>
        <time>2014-03-09T13:22:10Z</time>
      </trkpt>
      <trkpt lat="41.611048000" lon="1.848514000">
        <ele>152.30</ele>
        <time>2014-03-09T13:22:18Z</time>
      </trkpt>
      <trkpt lat="41.610865000" lon="1.848680000">
        <ele>149.60</ele>
        <time>2014-03-09T13:22:24Z</time>
      </trkpt>
      <trkpt lat="41.610796000" lon="1.848782000">
        <ele>147.40</ele>
        <time>2014-03-09T13:22:29Z</time>
      </trkpt>
      <trkpt lat="41.610764000" lon="1.848593000">
        <ele>144.50</ele>
        <time>2014-03-09T13:22:35Z</time>
      </trkpt>
      <trkpt lat="41.610872000" lon="1.848322000">
        <ele>140.00</ele>
        <time>2014-03-09T13:22:40Z</time>
      </trkpt>
      <trkpt lat="41.610969000" lon="1.848110000">
        <ele>137.10</ele>
        <time>2014-03-09T13:22:45Z</time>
      </trkpt>
      <trkpt lat="41.610992000" lon="1.848041000">
        <ele>136.00</ele>
        <time>2014-03-09T13:22:47Z</time>
      </trkpt>
      <trkpt lat="41.610998000" lon="1.848002000">
        <ele>135.40</ele>
        <time>2014-03-09T13:22:49Z</time>
      </trkpt>
      <trkpt lat="41.611002000" lon="1.847995000">
        <ele>135.00</ele>
        <time>2014-03-09T13:23:26Z</time>
      </trkpt>
      <trkpt lat="41.611000000" lon="1.847961000">
        <ele>135.10</ele>
        <time>2014-03-09T13:25:10Z</time>
      </trkpt>
      <trkpt lat="41.610800000" lon="1.848098000">
        <ele>134.80</ele>
        <time>2014-03-09T13:25:18Z</time>
      </trkpt>
      <trkpt lat="41.610318000" lon="1.848584000">
        <ele>135.40</ele>
        <time>2014-03-09T13:25:34Z</time>
      </trkpt>
      <trkpt lat="41.609788000" lon="1.849148000">
        <ele>136.10</ele>
        <time>2014-03-09T13:25:52Z</time>
      </trkpt>
      <trkpt lat="41.609350000" lon="1.849500000">
        <ele>137.20</ele>
        <time>2014-03-09T13:26:07Z</time>
      </trkpt>
      <trkpt lat="41.609224000" lon="1.849506000">
        <ele>136.60</ele>
        <time>2014-03-09T13:26:13Z</time>
      </trkpt>
      <trkpt lat="41.609025000" lon="1.849617000">
        <ele>133.30</ele>
        <time>2014-03-09T13:26:18Z</time>
      </trkpt>
      <trkpt lat="41.609048000" lon="1.849470000">
        <ele>129.90</ele>
        <time>2014-03-09T13:26:23Z</time>
      </trkpt>
      <trkpt lat="41.609119000" lon="1.849347000">
        <ele>126.80</ele>
        <time>2014-03-09T13:26:25Z</time>
      </trkpt>
      <trkpt lat="41.609228000" lon="1.849140000">
        <ele>123.40</ele>
        <time>2014-03-09T13:26:28Z</time>
      </trkpt>
      <trkpt lat="41.609288000" lon="1.849024000">
        <ele>122.40</ele>
        <time>2014-03-09T13:26:30Z</time>
      </trkpt>
      <trkpt lat="41.609221000" lon="1.848972000">
        <ele>120.70</ele>
        <time>2014-03-09T13:26:34Z</time>
      </trkpt>
      <trkpt lat="41.609133000" lon="1.849056000">
        <ele>117.50</ele>
        <time>2014-03-09T13:26:36Z</time>
      </trkpt>
      <trkpt lat="41.608978000" lon="1.849003000">
        <ele>115.60</ele>
        <time>2014-03-09T13:26:40Z</time>
      </trkpt>
      <trkpt lat="41.608795000" lon="1.849025000">
        <ele>112.50</ele>
        <time>2014-03-09T13:26:45Z</time>
      </trkpt>
      <trkpt lat="41.608729000" lon="1.849105000">
        <ele>112.90</ele>
        <time>2014-03-09T13:26:47Z</time>
      </trkpt>
      <trkpt lat="41.608038000" lon="1.849863000">
        <ele>113.10</ele>
        <time>2014-03-09T13:27:07Z</time>
      </trkpt>
      <trkpt lat="41.607897000" lon="1.849999000">
        <ele>113.40</ele>
        <time>2014-03-09T13:27:11Z</time>
      </trkpt>
      <trkpt lat="41.607730000" lon="1.850096000">
        <ele>112.80</ele>
        <time>2014-03-09T13:27:15Z</time>
      </trkpt>
      <trkpt lat="41.607187000" lon="1.850245000">
        <ele>113.20</ele>
        <time>2014-03-09T13:27:26Z</time>
      </trkpt>
      <trkpt lat="41.607002000" lon="1.850355000">
        <ele>112.20</ele>
        <time>2014-03-09T13:27:30Z</time>
      </trkpt>
      <trkpt lat="41.606622000" lon="1.850811000">
        <ele>111.30</ele>
        <time>2014-03-09T13:27:39Z</time>
      </trkpt>
      <trkpt lat="41.606353000" lon="1.851217000">
        <ele>111.10</ele>
        <time>2014-03-09T13:27:47Z</time>
      </trkpt>
      <trkpt lat="41.605901000" lon="1.851668000">
        <ele>111.50</ele>
        <time>2014-03-09T13:27:59Z</time>
      </trkpt>
      <trkpt lat="41.605257000" lon="1.852338000">
        <ele>112.20</ele>
        <time>2014-03-09T13:28:16Z</time>
      </trkpt>
      <trkpt lat="41.604671000" lon="1.852993000">
        <ele>112.30</ele>
        <time>2014-03-09T13:28:32Z</time>
      </trkpt>
      <trkpt lat="41.603825000" lon="1.853591000">
        <ele>112.30</ele>
        <time>2014-03-09T13:28:53Z</time>
      </trkpt>
      <trkpt lat="41.603146000" lon="1.853939000">
        <ele>114.20</ele>
        <time>2014-03-09T13:29:10Z</time>
      </trkpt>
      <trkpt lat="41.603060000" lon="1.853962000">
        <ele>114.20</ele>
        <time>2014-03-09T13:29:12Z</time>
      </trkpt>
      <trkpt lat="41.602827000" lon="1.853961000">
        <ele>113.80</ele>
        <time>2014-03-09T13:29:17Z</time>
      </trkpt>
      <trkpt lat="41.602380000" lon="1.853923000">
        <ele>112.10</ele>
        <time>2014-03-09T13:29:26Z</time>
      </trkpt>
      <trkpt lat="41.601971000" lon="1.853662000">
        <ele>111.10</ele>
        <time>2014-03-09T13:29:34Z</time>
      </trkpt>
      <trkpt lat="41.601796000" lon="1.853523000">
        <ele>111.70</ele>
        <time>2014-03-09T13:29:38Z</time>
      </trkpt>
      <trkpt lat="41.601095000" lon="1.852660000">
        <ele>111.40</ele>
        <time>2014-03-09T13:29:57Z</time>
      </trkpt>
      <trkpt lat="41.600495000" lon="1.852094000">
        <ele>112.50</ele>
        <time>2014-03-09T13:30:12Z</time>
      </trkpt>
      <trkpt lat="41.600285000" lon="1.851987000">
        <ele>114.70</ele>
        <time>2014-03-09T13:30:18Z</time>
      </trkpt>
      <trkpt lat="41.599847000" lon="1.851858000">
        <ele>117.80</ele>
        <time>2014-03-09T13:30:31Z</time>
      </trkpt>
      <trkpt lat="41.599316000" lon="1.851946000">
        <ele>118.50</ele>
        <time>2014-03-09T13:30:45Z</time>
      </trkpt>
      <trkpt lat="41.599146000" lon="1.852007000">
        <ele>118.50</ele>
        <time>2014-03-09T13:30:49Z</time>
      </trkpt>
      <trkpt lat="41.598907000" lon="1.852176000">
        <ele>118.90</ele>
        <time>2014-03-09T13:30:55Z</time>
      </trkpt>
      <trkpt lat="41.598652000" lon="1.852525000">
        <ele>117.20</ele>
        <time>2014-03-09T13:31:03Z</time>
      </trkpt>
      <trkpt lat="41.598493000" lon="1.852808000">
        <ele>114.60</ele>
        <time>2014-03-09T13:31:08Z</time>
      </trkpt>
      <trkpt lat="41.598138000" lon="1.853288000">
        <ele>111.10</ele>
        <time>2014-03-09T13:31:17Z</time>
      </trkpt>
      <trkpt lat="41.597988000" lon="1.853577000">
        <ele>108.90</ele>
        <time>2014-03-09T13:31:21Z</time>
      </trkpt>
      <trkpt lat="41.597868000" lon="1.853749000">
        <ele>109.20</ele>
        <time>2014-03-09T13:31:24Z</time>
      </trkpt>
      <trkpt lat="41.597709000" lon="1.854069000">
        <ele>109.20</ele>
        <time>2014-03-09T13:31:29Z</time>
      </trkpt>
      <trkpt lat="41.597657000" lon="1.854207000">
        <ele>110.10</ele>
        <time>2014-03-09T13:31:31Z</time>
      </trkpt>
      <trkpt lat="41.597328000" lon="1.854732000">
        <ele>110.20</ele>
        <time>2014-03-09T13:31:41Z</time>
      </trkpt>
      <trkpt lat="41.596856000" lon="1.855193000">
        <ele>109.70</ele>
        <time>2014-03-09T13:31:53Z</time>
      </trkpt>
      <trkpt lat="41.596733000" lon="1.855254000">
        <ele>109.90</ele>
        <time>2014-03-09T13:31:56Z</time>
      </trkpt>
      <trkpt lat="41.596190000" lon="1.855431000">
        <ele>109.30</ele>
        <time>2014-03-09T13:32:09Z</time>
      </trkpt>
      <trkpt lat="41.596135000" lon="1.855458000">
        <ele>109.20</ele>
        <time>2014-03-09T13:32:10Z</time>
      </trkpt>
      <trkpt lat="41.595450000" lon="1.855693000">
        <ele>110.30</ele>
        <time>2014-03-09T13:32:25Z</time>
      </trkpt>
      <trkpt lat="41.594717000" lon="1.855868000">
        <ele>111.70</ele>
        <time>2014-03-09T13:32:42Z</time>
      </trkpt>
      <trkpt lat="41.594167000" lon="1.855709000">
        <ele>112.40</ele>
        <time>2014-03-09T13:32:55Z</time>
      </trkpt>
      <trkpt lat="41.593990000" lon="1.855660000">
        <ele>112.40</ele>
        <time>2014-03-09T13:32:59Z</time>
      </trkpt>
      <trkpt lat="41.593794000" lon="1.855509000">
        <ele>113.10</ele>
        <time>2014-03-09T13:33:04Z</time>
      </trkpt>
      <trkpt lat="41.593736000" lon="1.855423000">
        <ele>112.60</ele>
        <time>2014-03-09T13:33:06Z</time>
      </trkpt>
      <trkpt lat="41.593435000" lon="1.855047000">
        <ele>110.30</ele>
        <time>2014-03-09T13:33:14Z</time>
      </trkpt>
      <trkpt lat="41.592932000" lon="1.854452000">
        <ele>109.80</ele>
        <time>2014-03-09T13:33:26Z</time>
      </trkpt>
      <trkpt lat="41.592899000" lon="1.854408000">
        <ele>110.20</ele>
        <time>2014-03-09T13:33:27Z</time>
      </trkpt>
      <trkpt lat="41.592750000" lon="1.854142000">
        <ele>109.20</ele>
        <time>2014-03-09T13:33:32Z</time>
      </trkpt>
      <trkpt lat="41.592399000" lon="1.853194000">
        <ele>107.30</ele>
        <time>2014-03-09T13:33:46Z</time>
      </trkpt>
      <trkpt lat="41.592301000" lon="1.853041000">
        <ele>105.70</ele>
        <time>2014-03-09T13:33:49Z</time>
      </trkpt>
      <trkpt lat="41.591727000" lon="1.852463000">
        <ele>107.30</ele>
        <time>2014-03-09T13:34:04Z</time>
      </trkpt>
      <trkpt lat="41.591238000" lon="1.852338000">
        <ele>108.80</ele>
        <time>2014-03-09T13:34:21Z</time>
      </trkpt>
      <trkpt lat="41.591203000" lon="1.852352000">
        <ele>108.50</ele>
        <time>2014-03-09T13:34:57Z</time>
      </trkpt>
      <trkpt lat="41.590908000" lon="1.852507000">
        <ele>108.80</ele>
        <time>2014-03-09T13:35:10Z</time>
      </trkpt>
      <trkpt lat="41.590726000" lon="1.852687000">
        <ele>107.90</ele>
        <time>2014-03-09T13:35:16Z</time>
      </trkpt>
      <trkpt lat="41.590349000" lon="1.853095000">
        <ele>108.10</ele>
        <time>2014-03-09T13:35:28Z</time>
      </trkpt>
      <trkpt lat="41.589977000" lon="1.853419000">
        <ele>107.20</ele>
        <time>2014-03-09T13:35:38Z</time>
      </trkpt>
      <trkpt lat="41.589757000" lon="1.853590000">
        <ele>107.90</ele>
        <time>2014-03-09T13:35:43Z</time>
      </trkpt>
      <trkpt lat="41.589250000" lon="1.854028000">
        <ele>108.30</ele>
        <time>2014-03-09T13:35:56Z</time>
      </trkpt>
      <trkpt lat="41.589134000" lon="1.854122000">
        <ele>108.30</ele>
        <time>2014-03-09T13:35:59Z</time>
      </trkpt>
      <trkpt lat="41.588781000" lon="1.854407000">
        <ele>108.20</ele>
        <time>2014-03-09T13:36:08Z</time>
      </trkpt>
      <trkpt lat="41.588419000" lon="1.854619000">
        <ele>107.10</ele>
        <time>2014-03-09T13:36:16Z</time>
      </trkpt>
      <trkpt lat="41.588314000" lon="1.854703000">
        <ele>106.30</ele>
        <time>2014-03-09T13:36:18Z</time>
      </trkpt>
      <trkpt lat="41.587964000" lon="1.855009000">
        <ele>105.30</ele>
        <time>2014-03-09T13:36:25Z</time>
      </trkpt>
      <trkpt lat="41.587395000" lon="1.855286000">
        <ele>105.60</ele>
        <time>2014-03-09T13:36:36Z</time>
      </trkpt>
      <trkpt lat="41.587029000" lon="1.855472000">
        <ele>104.50</ele>
        <time>2014-03-09T13:36:43Z</time>
      </trkpt>
      <trkpt lat="41.586471000" lon="1.855731000">
        <ele>106.70</ele>
        <time>2014-03-09T13:36:56Z</time>
      </trkpt>
      <trkpt lat="41.586438000" lon="1.855739000">
        <ele>106.80</ele>
        <time>2014-03-09T13:36:57Z</time>
      </trkpt>
      <trkpt lat="41.586342000" lon="1.855844000">
        <ele>106.70</ele>
        <time>2014-03-09T13:37:01Z</time>
      </trkpt>
      <trkpt lat="41.586201000" lon="1.855990000">
        <ele>106.00</ele>
        <time>2014-03-09T13:37:06Z</time>
      </trkpt>
      <trkpt lat="41.585576000" lon="1.856472000">
        <ele>107.70</ele>
        <time>2014-03-09T13:37:23Z</time>
      </trkpt>
      <trkpt lat="41.585249000" lon="1.856798000">
        <ele>109.30</ele>
        <time>2014-03-09T13:37:36Z</time>
      </trkpt>
      <trkpt lat="41.585227000" lon="1.856833000">
        <ele>109.10</ele>
        <time>2014-03-09T13:37:37Z</time>
      </trkpt>
      <trkpt lat="41.585079000" lon="1.856926000">
        <ele>109.00</ele>
        <time>2014-03-09T13:37:41Z</time>
      </trkpt>
      <trkpt lat="41.584544000" lon="1.857451000">
        <ele>107.80</ele>
        <time>2014-03-09T13:37:53Z</time>
      </trkpt>
      <trkpt lat="41.584407000" lon="1.857549000">
        <ele>108.30</ele>
        <time>2014-03-09T13:37:56Z</time>
      </trkpt>
      <trkpt lat="41.584242000" lon="1.857790000">
        <ele>107.90</ele>
        <time>2014-03-09T13:38:01Z</time>
      </trkpt>
      <trkpt lat="41.584177000" lon="1.857909000">
        <ele>107.30</ele>
        <time>2014-03-09T13:38:03Z</time>
      </trkpt>
      <trkpt lat="41.583656000" lon="1.858349000">
        <ele>107.40</ele>
        <time>2014-03-09T13:38:14Z</time>
      </trkpt>
      <trkpt lat="41.583491000" lon="1.858415000">
        <ele>107.00</ele>
        <time>2014-03-09T13:38:17Z</time>
      </trkpt>
      <trkpt lat="41.583336000" lon="1.858461000">
        <ele>107.40</ele>
        <time>2014-03-09T13:38:20Z</time>
      </trkpt>
      <trkpt lat="41.583183000" lon="1.858647000">
        <ele>107.70</ele>
        <time>2014-03-09T13:38:24Z</time>
      </trkpt>
      <trkpt lat="41.582971000" lon="1.858921000">
        <ele>106.30</ele>
        <time>2014-03-09T13:38:29Z</time>
      </trkpt>
      <trkpt lat="41.582753000" lon="1.859198000">
        <ele>104.90</ele>
        <time>2014-03-09T13:38:33Z</time>
      </trkpt>
      <trkpt lat="41.582334000" lon="1.859682000">
        <ele>104.90</ele>
        <time>2014-03-09T13:38:45Z</time>
      </trkpt>
      <trkpt lat="41.582261000" lon="1.859775000">
        <ele>104.60</ele>
        <time>2014-03-09T13:38:48Z</time>
      </trkpt>
      <trkpt lat="41.582111000" lon="1.860067000">
        <ele>105.90</ele>
        <time>2014-03-09T13:38:55Z</time>
      </trkpt>
      <trkpt lat="41.581613000" lon="1.860629000">
        <ele>107.70</ele>
        <time>2014-03-09T13:39:11Z</time>
      </trkpt>
      <trkpt lat="41.581576000" lon="1.860661000">
        <ele>107.80</ele>
        <time>2014-03-09T13:39:12Z</time>
      </trkpt>
      <trkpt lat="41.581473000" lon="1.860784000">
        <ele>105.80</ele>
        <time>2014-03-09T13:39:15Z</time>
      </trkpt>
      <trkpt lat="41.581398000" lon="1.860866000">
        <ele>106.10</ele>
        <time>2014-03-09T13:39:17Z</time>
      </trkpt>
      <trkpt lat="41.581278000" lon="1.861067000">
        <ele>107.90</ele>
        <time>2014-03-09T13:39:21Z</time>
      </trkpt>
      <trkpt lat="41.581158000" lon="1.861173000">
        <ele>108.10</ele>
        <time>2014-03-09T13:39:25Z</time>
      </trkpt>
      <trkpt lat="41.580838000" lon="1.861306000">
        <ele>108.30</ele>
        <time>2014-03-09T13:39:34Z</time>
      </trkpt>
      <trkpt lat="41.580722000" lon="1.861369000">
        <ele>108.60</ele>
        <time>2014-03-09T13:39:37Z</time>
      </trkpt>
      <trkpt lat="41.580458000" lon="1.861448000">
        <ele>108.30</ele>
        <time>2014-03-09T13:39:43Z</time>
      </trkpt>
      <trkpt lat="41.580325000" lon="1.861418000">
        <ele>107.30</ele>
        <time>2014-03-09T13:39:46Z</time>
      </trkpt>
      <trkpt lat="41.579864000" lon="1.861390000">
        <ele>104.90</ele>
        <time>2014-03-09T13:39:55Z</time>
      </trkpt>
      <trkpt lat="41.579686000" lon="1.861424000">
        <ele>103.90</ele>
        <time>2014-03-09T13:39:58Z</time>
      </trkpt>
      <trkpt lat="41.579567000" lon="1.861430000">
        <ele>103.80</ele>
        <time>2014-03-09T13:40:00Z</time>
      </trkpt>
      <trkpt lat="41.579009000" lon="1.861420000">
        <ele>105.00</ele>
        <time>2014-03-09T13:40:10Z</time>
      </trkpt>
      <trkpt lat="41.578668000" lon="1.861366000">
        <ele>104.30</ele>
        <time>2014-03-09T13:40:16Z</time>
      </trkpt>
      <trkpt lat="41.578504000" lon="1.861329000">
        <ele>104.20</ele>
        <time>2014-03-09T13:40:19Z</time>
      </trkpt>
      <trkpt lat="41.578302000" lon="1.861332000">
        <ele>105.20</ele>
        <time>2014-03-09T13:40:23Z</time>
      </trkpt>
      <trkpt lat="41.578162000" lon="1.861396000">
        <ele>107.70</ele>
        <time>2014-03-09T13:40:26Z</time>
      </trkpt>
      <trkpt lat="41.578119000" lon="1.861416000">
        <ele>107.80</ele>
        <time>2014-03-09T13:40:27Z</time>
      </trkpt>
      <trkpt lat="41.577877000" lon="1.861432000">
        <ele>108.90</ele>
        <time>2014-03-09T13:40:33Z</time>
      </trkpt>
      <trkpt lat="41.577642000" lon="1.861602000">
        <ele>110.50</ele>
        <time>2014-03-09T13:40:39Z</time>
      </trkpt>
      <trkpt lat="41.577600000" lon="1.861631000">
        <ele>110.80</ele>
        <time>2014-03-09T13:40:40Z</time>
      </trkpt>
      <trkpt lat="41.577176000" lon="1.861877000">
        <ele>113.60</ele>
        <time>2014-03-09T13:40:53Z</time>
      </trkpt>
      <trkpt lat="41.577033000" lon="1.862085000">
        <ele>113.50</ele>
        <time>2014-03-09T13:40:58Z</time>
      </trkpt>
      <trkpt lat="41.576970000" lon="1.862155000">
        <ele>113.70</ele>
        <time>2014-03-09T13:41:00Z</time>
      </trkpt>
      <trkpt lat="41.576415000" lon="1.862448000">
        <ele>115.10</ele>
        <time>2014-03-09T13:41:15Z</time>
      </trkpt>
      <trkpt lat="41.576373000" lon="1.862473000">
        <ele>115.10</ele>
        <time>2014-03-09T13:41:16Z</time>
      </trkpt>
      <trkpt lat="41.576004000" lon="1.862895000">
        <ele>115.90</ele>
        <time>2014-03-09T13:41:27Z</time>
      </trkpt>
      <trkpt lat="41.575692000" lon="1.863215000">
        <ele>112.00</ele>
        <time>2014-03-09T13:41:34Z</time>
      </trkpt>
      <trkpt lat="41.575638000" lon="1.863267000">
        <ele>112.10</ele>
        <time>2014-03-09T13:41:35Z</time>
      </trkpt>
      <trkpt lat="41.575583000" lon="1.863316000">
        <ele>111.70</ele>
        <time>2014-03-09T13:41:36Z</time>
      </trkpt>
      <trkpt lat="41.575396000" lon="1.863427000">
        <ele>110.40</ele>
        <time>2014-03-09T13:41:39Z</time>
      </trkpt>
      <trkpt lat="41.575255000" lon="1.863501000">
        <ele>108.70</ele>
        <time>2014-03-09T13:41:41Z</time>
      </trkpt>
      <trkpt lat="41.575100000" lon="1.863574000">
        <ele>105.40</ele>
        <time>2014-03-09T13:41:43Z</time>
      </trkpt>
      <trkpt lat="41.574740000" lon="1.864100000">
        <ele>104.40</ele>
        <time>2014-03-09T13:41:50Z</time>
      </trkpt>
      <trkpt lat="41.574582000" lon="1.864496000">
        <ele>107.90</ele>
        <time>2014-03-09T13:41:55Z</time>
      </trkpt>
      <trkpt lat="41.574526000" lon="1.864606000">
        <ele>109.10</ele>
        <time>2014-03-09T13:41:57Z</time>
      </trkpt>
      <trkpt lat="41.574401000" lon="1.864867000">
        <ele>111.40</ele>
        <time>2014-03-09T13:42:03Z</time>
      </trkpt>
      <trkpt lat="41.574333000" lon="1.865094000">
        <ele>112.00</ele>
        <time>2014-03-09T13:42:09Z</time>
      </trkpt>
      <trkpt lat="41.574220000" lon="1.865268000">
        <ele>112.20</ele>
        <time>2014-03-09T13:42:13Z</time>
      </trkpt>
      <trkpt lat="41.573449000" lon="1.865942000">
        <ele>109.50</ele>
        <time>2014-03-09T13:42:30Z</time>
      </trkpt>
      <trkpt lat="41.573299000" lon="1.866063000">
        <ele>108.40</ele>
        <time>2014-03-09T13:42:33Z</time>
      </trkpt>
      <trkpt lat="41.572815000" lon="1.866261000">
        <ele>107.40</ele>
        <time>2014-03-09T13:42:42Z</time>
      </trkpt>
      <trkpt lat="41.572455000" lon="1.866217000">
        <ele>106.10</ele>
        <time>2014-03-09T13:42:50Z</time>
      </trkpt>
      <trkpt lat="41.572301000" lon="1.866127000">
        <ele>105.50</ele>
        <time>2014-03-09T13:42:54Z</time>
      </trkpt>
      <trkpt lat="41.572153000" lon="1.865979000">
        <ele>106.70</ele>
        <time>2014-03-09T13:42:58Z</time>
      </trkpt>
      <trkpt lat="41.572033000" lon="1.865873000">
        <ele>108.60</ele>
        <time>2014-03-09T13:43:01Z</time>
      </trkpt>
      <trkpt lat="41.571990000" lon="1.865852000">
        <ele>108.90</ele>
        <time>2014-03-09T13:43:02Z</time>
      </trkpt>
      <trkpt lat="41.571618000" lon="1.865748000">
        <ele>109.60</ele>
        <time>2014-03-09T13:43:10Z</time>
      </trkpt>
      <trkpt lat="41.571384000" lon="1.865761000">
        <ele>109.40</ele>
        <time>2014-03-09T13:43:15Z</time>
      </trkpt>
      <trkpt lat="41.571111000" lon="1.865909000">
        <ele>108.20</ele>
        <time>2014-03-09T13:43:21Z</time>
      </trkpt>
      <trkpt lat="41.570966000" lon="1.866043000">
        <ele>107.60</ele>
        <time>2014-03-09T13:43:24Z</time>
      </trkpt>
      <trkpt lat="41.570810000" lon="1.866164000">
        <ele>107.90</ele>
        <time>2014-03-09T13:43:27Z</time>
      </trkpt>
      <trkpt lat="41.570580000" lon="1.866384000">
        <ele>107.80</ele>
        <time>2014-03-09T13:43:32Z</time>
      </trkpt>
      <trkpt lat="41.570499000" lon="1.866485000">
        <ele>108.30</ele>
        <time>2014-03-09T13:43:34Z</time>
      </trkpt>
      <trkpt lat="41.570324000" lon="1.866776000">
        <ele>111.30</ele>
        <time>2014-03-09T13:43:40Z</time>
      </trkpt>
      <trkpt lat="41.570231000" lon="1.866965000">
        <ele>114.50</ele>
        <time>2014-03-09T13:43:46Z</time>
      </trkpt>
      <trkpt lat="41.570037000" lon="1.867561000">
        <ele>117.40</ele>
        <time>2014-03-09T13:44:03Z</time>
      </trkpt>
      <trkpt lat="41.570015000" lon="1.867827000">
        <ele>118.90</ele>
        <time>2014-03-09T13:44:11Z</time>
      </trkpt>
      <trkpt lat="41.570082000" lon="1.868090000">
        <ele>121.20</ele>
        <time>2014-03-09T13:44:21Z</time>
      </trkpt>
      <trkpt lat="41.570253000" lon="1.868306000">
        <ele>124.30</ele>
        <time>2014-03-09T13:44:32Z</time>
      </trkpt>
      <trkpt lat="41.570351000" lon="1.868527000">
        <ele>126.20</ele>
        <time>2014-03-09T13:44:41Z</time>
      </trkpt>
      <trkpt lat="41.570482000" lon="1.868617000">
        <ele>128.30</ele>
        <time>2014-03-09T13:44:48Z</time>
      </trkpt>
      <trkpt lat="41.570576000" lon="1.868633000">
        <ele>130.10</ele>
        <time>2014-03-09T13:44:53Z</time>
      </trkpt>
      <trkpt lat="41.570729000" lon="1.868787000">
        <ele>133.00</ele>
        <time>2014-03-09T13:45:03Z</time>
      </trkpt>
      <trkpt lat="41.570799000" lon="1.869016000">
        <ele>136.20</ele>
        <time>2014-03-09T13:45:14Z</time>
      </trkpt>
      <trkpt lat="41.570818000" lon="1.869278000">
        <ele>139.50</ele>
        <time>2014-03-09T13:45:25Z</time>
      </trkpt>
      <trkpt lat="41.570896000" lon="1.869673000">
        <ele>142.70</ele>
        <time>2014-03-09T13:45:41Z</time>
      </trkpt>
      <trkpt lat="41.571102000" lon="1.869917000">
        <ele>143.70</ele>
        <time>2014-03-09T13:45:55Z</time>
      </trkpt>
      <trkpt lat="41.571168000" lon="1.869977000">
        <ele>143.70</ele>
        <time>2014-03-09T13:45:59Z</time>
      </trkpt>
      <trkpt lat="41.571247000" lon="1.870051000">
        <ele>144.00</ele>
        <time>2014-03-09T13:46:04Z</time>
      </trkpt>
      <trkpt lat="41.571366000" lon="1.870317000">
        <ele>143.50</ele>
        <time>2014-03-09T13:46:15Z</time>
      </trkpt>
      <trkpt lat="41.571286000" lon="1.870450000">
        <ele>143.30</ele>
        <time>2014-03-09T13:46:20Z</time>
      </trkpt>
      <trkpt lat="41.571163000" lon="1.870937000">
        <ele>143.20</ele>
        <time>2014-03-09T13:46:35Z</time>
      </trkpt>
      <trkpt lat="41.571124000" lon="1.871179000">
        <ele>144.50</ele>
        <time>2014-03-09T13:46:42Z</time>
      </trkpt>
      <trkpt lat="41.571328000" lon="1.871637000">
        <ele>144.70</ele>
        <time>2014-03-09T13:46:54Z</time>
      </trkpt>
      <trkpt lat="41.571431000" lon="1.872210000">
        <ele>141.80</ele>
        <time>2014-03-09T13:47:04Z</time>
      </trkpt>
      <trkpt lat="41.571524000" lon="1.872399000">
        <ele>140.40</ele>
        <time>2014-03-09T13:47:07Z</time>
      </trkpt>
      <trkpt lat="41.571569000" lon="1.872452000">
        <ele>139.90</ele>
        <time>2014-03-09T13:47:08Z</time>
      </trkpt>
      <trkpt lat="41.571668000" lon="1.872550000">
        <ele>139.90</ele>
        <time>2014-03-09T13:47:10Z</time>
      </trkpt>
      <trkpt lat="41.571735000" lon="1.872877000">
        <ele>136.80</ele>
        <time>2014-03-09T13:47:14Z</time>
      </trkpt>
      <trkpt lat="41.571783000" lon="1.873078000">
        <ele>135.50</ele>
        <time>2014-03-09T13:47:16Z</time>
      </trkpt>
      <trkpt lat="41.571811000" lon="1.873179000">
        <ele>134.60</ele>
        <time>2014-03-09T13:47:17Z</time>
      </trkpt>
      <trkpt lat="41.571814000" lon="1.873700000">
        <ele>131.30</ele>
        <time>2014-03-09T13:47:22Z</time>
      </trkpt>
      <trkpt lat="41.571750000" lon="1.873883000">
        <ele>131.00</ele>
        <time>2014-03-09T13:47:24Z</time>
      </trkpt>
      <trkpt lat="41.571632000" lon="1.874120000">
        <ele>130.90</ele>
        <time>2014-03-09T13:47:27Z</time>
      </trkpt>
      <trkpt lat="41.571429000" lon="1.874364000">
        <ele>128.20</ele>
        <time>2014-03-09T13:47:31Z</time>
      </trkpt>
      <trkpt lat="41.571446000" lon="1.874709000">
        <ele>123.70</ele>
        <time>2014-03-09T13:47:36Z</time>
      </trkpt>
      <trkpt lat="41.571723000" lon="1.875180000">
        <ele>120.80</ele>
        <time>2014-03-09T13:47:42Z</time>
      </trkpt>
      <trkpt lat="41.571825000" lon="1.875566000">
        <ele>119.40</ele>
        <time>2014-03-09T13:47:46Z</time>
      </trkpt>
      <trkpt lat="41.571820000" lon="1.875732000">
        <ele>119.80</ele>
        <time>2014-03-09T13:47:48Z</time>
      </trkpt>
      <trkpt lat="41.571845000" lon="1.876052000">
        <ele>116.50</ele>
        <time>2014-03-09T13:47:52Z</time>
      </trkpt>
      <trkpt lat="41.571746000" lon="1.876344000">
        <ele>113.50</ele>
        <time>2014-03-09T13:47:56Z</time>
      </trkpt>
      <trkpt lat="41.571663000" lon="1.876751000">
        <ele>108.80</ele>
        <time>2014-03-09T13:48:00Z</time>
      </trkpt>
      <trkpt lat="41.571634000" lon="1.876836000">
        <ele>108.90</ele>
        <time>2014-03-09T13:48:01Z</time>
      </trkpt>
      <trkpt lat="41.571482000" lon="1.876992000">
        <ele>105.20</ele>
        <time>2014-03-09T13:48:04Z</time>
      </trkpt>
      <trkpt lat="41.571306000" lon="1.877069000">
        <ele>103.90</ele>
        <time>2014-03-09T13:48:07Z</time>
      </trkpt>
      <trkpt lat="41.571198000" lon="1.877116000">
        <ele>103.10</ele>
        <time>2014-03-09T13:48:09Z</time>
      </trkpt>
      <trkpt lat="41.571054000" lon="1.877330000">
        <ele>100.40</ele>
        <time>2014-03-09T13:48:14Z</time>
      </trkpt>
      <trkpt lat="41.570975000" lon="1.877542000">
        <ele>96.10</ele>
        <time>2014-03-09T13:48:17Z</time>
      </trkpt>
      <trkpt lat="41.570777000" lon="1.877807000">
        <ele>90.30</ele>
        <time>2014-03-09T13:48:21Z</time>
      </trkpt>
      <trkpt lat="41.570617000" lon="1.878069000">
        <ele>84.90</ele>
        <time>2014-03-09T13:48:24Z</time>
      </trkpt>
      <trkpt lat="41.570454000" lon="1.878329000">
        <ele>81.60</ele>
        <time>2014-03-09T13:48:27Z</time>
      </trkpt>
      <trkpt lat="41.570397000" lon="1.878414000">
        <ele>80.70</ele>
        <time>2014-03-09T13:48:28Z</time>
      </trkpt>
      <trkpt lat="41.570073000" lon="1.879138000">
        <ele>83.30</ele>
        <time>2014-03-09T13:48:37Z</time>
      </trkpt>
      <trkpt lat="41.569966000" lon="1.879370000">
        <ele>83.40</ele>
        <time>2014-03-09T13:48:41Z</time>
      </trkpt>
      <trkpt lat="41.569813000" lon="1.879549000">
        <ele>85.10</ele>
        <time>2014-03-09T13:48:45Z</time>
      </trkpt>
      <trkpt lat="41.569217000" lon="1.880026000">
        <ele>88.20</ele>
        <time>2014-03-09T13:49:00Z</time>
      </trkpt>
      <trkpt lat="41.568802000" lon="1.880392000">
        <ele>91.30</ele>
        <time>2014-03-09T13:49:13Z</time>
      </trkpt>
      <trkpt lat="41.568373000" lon="1.880710000">
        <ele>93.90</ele>
        <time>2014-03-09T13:49:27Z</time>
      </trkpt>
      <trkpt lat="41.567910000" lon="1.880510000">
        <ele>93.50</ele>
        <time>2014-03-09T13:49:40Z</time>
      </trkpt>
      <trkpt lat="41.567679000" lon="1.880212000">
        <ele>93.30</ele>
        <time>2014-03-09T13:49:49Z</time>
      </trkpt>
      <trkpt lat="41.567433000" lon="1.880253000">
        <ele>90.30</ele>
        <time>2014-03-09T13:49:55Z</time>
      </trkpt>
      <trkpt lat="41.567396000" lon="1.880306000">
        <ele>89.70</ele>
        <time>2014-03-09T13:49:56Z</time>
      </trkpt>
      <trkpt lat="41.567278000" lon="1.880469000">
        <ele>89.10</ele>
        <time>2014-03-09T13:49:59Z</time>
      </trkpt>
      <trkpt lat="41.567081000" lon="1.880481000">
        <ele>87.30</ele>
        <time>2014-03-09T13:50:03Z</time>
      </trkpt>
      <trkpt lat="41.566883000" lon="1.880384000">
        <ele>85.40</ele>
        <time>2014-03-09T13:50:07Z</time>
      </trkpt>
      <trkpt lat="41.566811000" lon="1.880358000">
        <ele>86.20</ele>
        <time>2014-03-09T13:50:14Z</time>
      </trkpt>
      <trkpt lat="41.566791000" lon="1.880335000">
        <ele>85.80</ele>
        <time>2014-03-09T13:50:29Z</time>
      </trkpt>
      <trkpt lat="41.566727000" lon="1.880295000">
        <ele>85.50</ele>
        <time>2014-03-09T13:50:32Z</time>
      </trkpt>
      <trkpt lat="41.566549000" lon="1.880376000">
        <ele>85.30</ele>
        <time>2014-03-09T13:50:36Z</time>
      </trkpt>
      <trkpt lat="41.565603000" lon="1.880980000">
        <ele>85.80</ele>
        <time>2014-03-09T13:50:55Z</time>
      </trkpt>
      <trkpt lat="41.564403000" lon="1.881514000">
        <ele>85.30</ele>
        <time>2014-03-09T13:51:19Z</time>
      </trkpt>
      <trkpt lat="41.563452000" lon="1.881798000">
        <ele>81.40</ele>
        <time>2014-03-09T13:51:34Z</time>
      </trkpt>
      <trkpt lat="41.563122000" lon="1.881803000">
        <ele>79.40</ele>
        <time>2014-03-09T13:51:38Z</time>
      </trkpt>
      <trkpt lat="41.562870000" lon="1.881772000">
        <ele>81.10</ele>
        <time>2014-03-09T13:51:41Z</time>
      </trkpt>
      <trkpt lat="41.561782000" lon="1.881439000">
        <ele>84.20</ele>
        <time>2014-03-09T13:51:56Z</time>
      </trkpt>
      <trkpt lat="41.561151000" lon="1.881249000">
        <ele>87.60</ele>
        <time>2014-03-09T13:52:07Z</time>
      </trkpt>
      <trkpt lat="41.560081000" lon="1.881112000">
        <ele>90.00</ele>
        <time>2014-03-09T13:52:27Z</time>
      </trkpt>
      <trkpt lat="41.558474000" lon="1.880973000">
        <ele>92.60</ele>
        <time>2014-03-09T13:52:55Z</time>
      </trkpt>
      <trkpt lat="41.557622000" lon="1.880441000">
        <ele>95.40</ele>
        <time>2014-03-09T13:53:11Z</time>
      </trkpt>
      <trkpt lat="41.556765000" lon="1.879670000">
        <ele>96.60</ele>
        <time>2014-03-09T13:53:30Z</time>
      </trkpt>
      <trkpt lat="41.556104000" lon="1.879218000">
        <ele>96.20</ele>
        <time>2014-03-09T13:53:44Z</time>
      </trkpt>
      <trkpt lat="41.555959000" lon="1.879119000">
        <ele>96.50</ele>
        <time>2014-03-09T13:53:47Z</time>
      </trkpt>
      <trkpt lat="41.555280000" lon="1.878780000">
        <ele>96.40</ele>
        <time>2014-03-09T13:54:00Z</time>
      </trkpt>
      <trkpt lat="41.554188000" lon="1.878677000">
        <ele>94.80</ele>
        <time>2014-03-09T13:54:20Z</time>
      </trkpt>
      <trkpt lat="41.553982000" lon="1.879369000">
        <ele>97.40</ele>
        <time>2014-03-09T13:54:31Z</time>
      </trkpt>
      <trkpt lat="41.554040000" lon="1.879771000">
        <ele>102.50</ele>
        <time>2014-03-09T13:54:36Z</time>
      </trkpt>
      <trkpt lat="41.554082000" lon="1.879951000">
        <ele>104.20</ele>
        <time>2014-03-09T13:54:39Z</time>
      </trkpt>
      <trkpt lat="41.554101000" lon="1.880004000">
        <ele>104.60</ele>
        <time>2014-03-09T13:54:40Z</time>
      </trkpt>
      <trkpt lat="41.554120000" lon="1.880279000">
        <ele>101.80</ele>
        <time>2014-03-09T13:54:44Z</time>
      </trkpt>
      <trkpt lat="41.553949000" lon="1.880569000">
        <ele>98.80</ele>
        <time>2014-03-09T13:54:49Z</time>
      </trkpt>
      <trkpt lat="41.552684000" lon="1.880731000">
        <ele>99.40</ele>
        <time>2014-03-09T13:55:11Z</time>
      </trkpt>
      <trkpt lat="41.551680000" lon="1.880926000">
        <ele>100.00</ele>
        <time>2014-03-09T13:55:28Z</time>
      </trkpt>
      <trkpt lat="41.551473000" lon="1.881093000">
        <ele>99.90</ele>
        <time>2014-03-09T13:55:32Z</time>
      </trkpt>
      <trkpt lat="41.550730000" lon="1.881899000">
        <ele>100.10</ele>
        <time>2014-03-09T13:55:48Z</time>
      </trkpt>
      <trkpt lat="41.549610000" lon="1.883178000">
        <ele>99.80</ele>
        <time>2014-03-09T13:56:11Z</time>
      </trkpt>
      <trkpt lat="41.549573000" lon="1.883230000">
        <ele>99.80</ele>
        <time>2014-03-09T13:56:12Z</time>
      </trkpt>
      <trkpt lat="41.549433000" lon="1.883318000">
        <ele>97.90</ele>
        <time>2014-03-09T13:56:15Z</time>
      </trkpt>
      <trkpt lat="41.549277000" lon="1.883345000">
        <ele>97.30</ele>
        <time>2014-03-09T13:56:18Z</time>
      </trkpt>
      <trkpt lat="41.549087000" lon="1.883494000">
        <ele>97.60</ele>
        <time>2014-03-09T13:56:22Z</time>
      </trkpt>
      <trkpt lat="41.548664000" lon="1.883590000">
        <ele>96.00</ele>
        <time>2014-03-09T13:56:29Z</time>
      </trkpt>
      <trkpt lat="41.547635000" lon="1.883743000">
        <ele>91.50</ele>
        <time>2014-03-09T13:56:44Z</time>
      </trkpt>
      <trkpt lat="41.547298000" lon="1.883786000">
        <ele>94.20</ele>
        <time>2014-03-09T13:56:49Z</time>
      </trkpt>
      <trkpt lat="41.547101000" lon="1.883825000">
        <ele>92.90</ele>
        <time>2014-03-09T13:56:52Z</time>
      </trkpt>
      <trkpt lat="41.546341000" lon="1.883935000">
        <ele>91.90</ele>
        <time>2014-03-09T13:57:06Z</time>
      </trkpt>
      <trkpt lat="41.545918000" lon="1.883998000">
        <ele>88.80</ele>
        <time>2014-03-09T13:57:13Z</time>
      </trkpt>
      <trkpt lat="41.545780000" lon="1.884003000">
        <ele>88.40</ele>
        <time>2014-03-09T13:57:15Z</time>
      </trkpt>
      <trkpt lat="41.545534000" lon="1.884273000">
        <ele>88.60</ele>
        <time>2014-03-09T13:57:20Z</time>
      </trkpt>
      <trkpt lat="41.545478000" lon="1.884427000">
        <ele>88.80</ele>
        <time>2014-03-09T13:57:22Z</time>
      </trkpt>
      <trkpt lat="41.544869000" lon="1.885189000">
        <ele>92.30</ele>
        <time>2014-03-09T13:57:34Z</time>
      </trkpt>
      <trkpt lat="41.544801000" lon="1.885282000">
        <ele>93.20</ele>
        <time>2014-03-09T13:57:36Z</time>
      </trkpt>
      <trkpt lat="41.544399000" lon="1.885784000">
        <ele>95.40</ele>
        <time>2014-03-09T13:57:51Z</time>
      </trkpt>
      <trkpt lat="41.544344000" lon="1.885850000">
        <ele>95.10</ele>
        <time>2014-03-09T13:57:53Z</time>
      </trkpt>
      <trkpt lat="41.544126000" lon="1.885903000">
        <ele>94.40</ele>
        <time>2014-03-09T13:57:58Z</time>
      </trkpt>
      <trkpt lat="41.543921000" lon="1.886228000">
        <ele>93.80</ele>
        <time>2014-03-09T13:58:06Z</time>
      </trkpt>
      <trkpt lat="41.543825000" lon="1.886277000">
        <ele>93.50</ele>
        <time>2014-03-09T13:58:09Z</time>
      </trkpt>
      <trkpt lat="41.543556000" lon="1.886345000">
        <ele>93.70</ele>
        <time>2014-03-09T13:58:18Z</time>
      </trkpt>
      <trkpt lat="41.543633000" lon="1.886434000">
        <ele>93.90</ele>
        <time>2014-03-09T14:06:50Z</time>
      </trkpt>
      <trkpt lat="41.543527000" lon="1.886533000">
        <ele>93.90</ele>
        <time>2014-03-09T14:06:56Z</time>
      </trkpt>
      <trkpt lat="41.543302000" lon="1.886920000">
        <ele>94.70</ele>
        <time>2014-03-09T14:07:09Z</time>
      </trkpt>
      <trkpt lat="41.543383000" lon="1.887241000">
        <ele>95.80</ele>
        <time>2014-03-09T14:07:19Z</time>
      </trkpt>
      <trkpt lat="41.543407000" lon="1.887305000">
        <ele>95.90</ele>
        <time>2014-03-09T14:07:21Z</time>
      </trkpt>
      <trkpt lat="41.543474000" lon="1.887409000">
        <ele>96.20</ele>
        <time>2014-03-09T14:07:25Z</time>
      </trkpt>
      <trkpt lat="41.543475000" lon="1.887533000">
        <ele>96.00</ele>
        <time>2014-03-09T14:07:29Z</time>
      </trkpt>
      <trkpt lat="41.543435000" lon="1.887760000">
        <ele>96.50</ele>
        <time>2014-03-09T14:07:36Z</time>
      </trkpt>
      <trkpt lat="41.543602000" lon="1.888004000">
        <ele>96.20</ele>
        <time>2014-03-09T14:07:43Z</time>
      </trkpt>
      <trkpt lat="41.543697000" lon="1.888118000">
        <ele>97.10</ele>
        <time>2014-03-09T14:07:47Z</time>
      </trkpt>
      <trkpt lat="41.543791000" lon="1.888206000">
        <ele>96.80</ele>
        <time>2014-03-09T14:07:50Z</time>
      </trkpt>
      <trkpt lat="41.543784000" lon="1.888421000">
        <ele>97.80</ele>
        <time>2014-03-09T14:07:58Z</time>
      </trkpt>
      <trkpt lat="41.543818000" lon="1.888372000">
        <ele>101.00</ele>
        <time>2014-03-09T14:28:13Z</time>
      </trkpt>
      <trkpt lat="41.544085000" lon="1.888312000">
        <ele>101.80</ele>
        <time>2014-03-09T14:28:20Z</time>
      </trkpt>
      <trkpt lat="41.544189000" lon="1.888085000">
        <ele>101.70</ele>
        <time>2014-03-09T14:28:24Z</time>
      </trkpt>
      <trkpt lat="41.544433000" lon="1.887257000">
        <ele>102.00</ele>
        <time>2014-03-09T14:28:37Z</time>
      </trkpt>
      <trkpt lat="41.544844000" lon="1.886392000">
        <ele>102.50</ele>
        <time>2014-03-09T14:28:55Z</time>
      </trkpt>
      <trkpt lat="41.544811000" lon="1.886215000">
        <ele>102.10</ele>
        <time>2014-03-09T14:29:00Z</time>
      </trkpt>
      <trkpt lat="41.544690000" lon="1.886174000">
        <ele>102.10</ele>
        <time>2014-03-09T14:29:12Z</time>
      </trkpt>
    </trkseg>
  </trk>
</gpx>
